     2.11           OBSERVATION DATA    G (GPS)             RINEX VERSION / TYPE
teqc 2010Oct21 OPUS Account 20111027 20:54:59UTC            PGM / RUN BY / DATE
J 1526                                                      MARKER NAME
3047                                                        MARKER NUMBER
CSMIDDLETON NGS                                             OBSERVER / AGENCY
0220390632 TRIMBLE R7 2.28                                  REC # / TYPE / VERS
11909788 TRM41249.00 NONE                                   ANT # / TYPE
  -754024.5818 -5567428.6325  3009180.7440                  APPROX POSITION XYZ
        1.9990        0.0000        0.0000                  ANTENNA: DELTA H/E/N
     1     1                                                WAVELENGTH FACT L1/2
     5    L1    L2    C1    P1    P2                        # / TYPES OF OBSERV
    15                                                      LEAP SECONDS
  2011     8    20     0     0   30.0000000     GPS         TIME OF FIRST OBS
                                                            END OF HEADER
 11  8 20  0  0 30.0000000  0  7G17G10G09G04G12G05G02
   3966451.31356   3113243.51254  22847905.0164                   22847903.3554
 -14329663.82057 -11154532.27354  21026483.7894                   21026481.5594
    202981.19956    246993.23053  23135440.1484                   23135440.8164
  -9039308.78557  -7010075.28955  21193479.1484                   21193477.2974
 -11031400.00457  -8585609.50855  22016124.6254                   22016122.2464
  -8355075.21156  -6443631.30154  22737640.7894                   22737640.3984
 -15205987.13357 -11833810.74655  20714714.9454                   20714710.3524
 11  8 20  0  1  0.0000000  0  7G17G10G09G04G12G05G02
   4035816.85946   3167294.54744  22861104.8054                   22861103.0434
 -14330937.38747 -11155524.65645  21026241.3364                   21026238.7344
    294380.66045    318213.52743  23152833.4224                   23152833.5204
  -8946742.09847  -6937945.42645  21211093.7814                   21211092.1374
 -11083991.93446  -8626590.21544  22006116.3984                   22006114.1174
  -8431652.86746  -6503302.10544  22723068.1024                   22723067.5354
 -15195445.15247 -11825596.20745  20716720.8914                   20716716.2504
 11  8 20  0  1 30.0000000  0  7G17G10G09G04G12G05G02
   4105357.96146   3221482.35944  22874337.6334                   22874336.7814
 -14331568.30547 -11156016.26245  21026120.4694                   21026119.3444
    386126.39846    389703.62543  23170291.5784                   23170292.0084
  -8853910.49247  -6865609.12145  21228758.8444                   21228757.1644
 -11136211.46547  -8667280.72745  21996178.8914                   21996176.7074
  -8507997.74646  -6562791.52744  22708540.1884                   22708539.9924
 -15184530.16847 -11817091.01245  20718798.4694                   20718793.2504
 11  8 20  0  2  0.0000000  0  7G17G10G09G04G12G05G02
   4175074.00846   3275806.50844  22887605.2194                   22887602.9654
 -14331556.60247 -11156007.11745  21026123.1334                   21026121.1914
    478213.61746    461459.83643  23187815.3984                   23187815.8444
  -8760817.74247  -6793069.33245  21246473.6484                   21246472.0314
 -11188057.39847  -8707680.12944  21986313.7894                   21986310.8554
  -8584108.28546  -6622098.36344  22694056.9614                   22694056.4224
 -15173244.24647 -11808296.77745  20720945.7814                   20720941.1884
 11  8 20  0  2 30.0000000  0  7G17G10G09G04G12G05G02
   4244961.68446   3330264.41044  22900903.8134                   22900902.3094
 -14330904.66047 -11155499.09044  21026247.0864                   21026245.5824
    570635.46945    533476.80143  23205402.1254                   23205403.2974
  -8667469.57847  -6720330.52745  21264237.3204                   21264235.7704
 -11239530.69547  -8747789.16445  21976518.5634                   21976515.7734
  -8659985.04746  -6681223.02344  22679618.3134                   22679617.3484
 -15161592.14547 -11799217.21145  20723162.8914                   20723158.9694
 11  8 20  0  3  0.0000000  0  7G17G10G09G04G12G05G02
   4315017.01246   3384852.92244  22914235.1094                   22914233.3714
 -14329615.94947 -11154494.88345  21026492.3204                   21026490.7974
    663383.63346    605748.02343  23223051.3134                   23223052.1024
  -8573873.06247  -6647398.19145  21282048.8204                   21282046.3914
 -11290633.78947  -8787609.72344  21966792.7274                   21966790.7304
  -8735630.01246  -6740167.05544  22665223.6724                   22665222.5634
 -15149579.57047 -11789856.75045  20725449.0314                   20725444.3014
 11  8 20  0  3 30.0000000  0  7G17G10G09G04G12G05G02
   4385244.83246   3439575.85944  22927598.4534                   22927596.8014
 -14327685.08247 -11152990.29344  21026860.0554                   21026857.8834
    756458.75446    678274.01243  23240764.3284                   23240763.7074
  -8480026.43047  -6574270.94945  21299907.1094                   21299905.2814
 -11341359.77047  -8827136.44145  21957140.2974                   21957138.1094
  -8811035.92646  -6798924.80544  22650873.8284                   22650872.8404
 -15137202.94147 -11780212.61745  20727804.1414                   20727799.1484
 11  8 20  0  4  0.0000000  0  7G17G10G09G04G12G05G02
   4455645.96546   3494433.84443  22940996.0004                   22940993.5784
 -14325110.82847 -11150984.35545  21027349.9454                   21027347.5004
    849857.62946    751052.30543  23258537.4304                   23258536.6134
  -8385931.85247  -6500950.51645  21317813.1254                   21317810.4924
 -11391706.16047  -8866367.35945  21947559.8754                   21947557.8914
  -8886199.52746  -6857493.76644  22636570.2194                   22636570.2464
 -15124463.12547 -11770285.48845  20730228.7034                   20730223.7934
 11  8 20  0  4 30.0000000  0  7G17G10G09G04G12G05G02
   4526220.60946   3549427.01644  22954425.6884                   22954424.0824
 -14321892.05546 -11148476.18744  21027962.5554                   21027959.7344
    943577.08246    824080.40243  23276371.8204                   23276371.5664
  -8291591.46547  -6427438.54345  21335765.5784                   21335762.9184
 -11441670.40647  -8905300.50445  21938052.2974                   21938049.7194
  -8961118.17246  -6915871.84844  22622314.5164                   22622313.6764
 -15111361.31247 -11760076.27045  20732721.6024                   20732717.1524
 11  8 20  0  5  0.0000000  0  8G17G10G09G30G04G12G05G02
   4596965.69546   3604553.01644  22967887.6174                   22967886.2344
 -14318031.40647 -11145467.86345  21028696.7344                   21028694.5164
   1037609.64846    897352.44143  23294264.7194                   23294264.8634
   -120881.07015                  24433320.859
  -8197011.37947  -6353739.78945  21353762.9454                   21353761.4224
 -11491253.82047  -8943936.89845  21928616.5864                   21928614.5314
  -9035792.31646  -6974059.40244  22608104.0634                   22608102.8554
 -15097902.31647 -11749588.73845  20735283.2114                   20735277.9964
 11  8 20  0  5 30.0000000  0  8G17G10G09G30G04G12G05G02
   4667886.41046   3659815.87143  22981383.8754                   22981381.9804
 -14313522.96147 -11141954.77744  21029554.6334                   21029552.5594
   1131956.42246    970869.33643  23312218.0394                   23312218.6954
   -202863.293 5                  24417719.141
  -8102189.73447  -6279852.80144  21371807.0944                   21371805.4454
 -11540449.66847  -8982271.28945  21919254.9614                   21919252.7234
  -9110215.10946  -7032051.08644  22593941.1954                   22593940.5944
 -15084082.87147 -11738820.32445  20737912.5634                   20737907.6844
 11  8 20  0  6  0.0000000  0  8G17G10G09G30G04G12G05G02
   4738974.26146   3715208.97043  22994911.0394                   22994909.9964
 -14308374.93447 -11137943.29345  21030533.9774                   21030532.2664
   1226604.89146   1044621.32843  23330230.2344                   23330229.7854
   -284641.949 5                  24402157.531
  -8007137.65647  -6205786.25444  21389895.2194                   21389893.4264
 -11589264.19947  -9020308.55945  21909965.5944                   21909963.3244
  -9184392.49646  -7089851.57044  22579826.3204                   22579825.3714
 -15069913.03547 -11727778.88745  20740608.7814                   20740604.3164
 11  8 20  0  6 30.0000000  0  8G17G10G09G30G04G12G05G02
   4810232.73046   3770735.01643  23008471.8984                   23008469.5634
 -14302583.31246 -11133430.31245  21031635.6724                   21031634.2274
   1321554.61745   1118608.04343  23348298.2664                   23348298.1054
   -366211.262 5                  24386635.844
  -7911854.56647  -6131539.71944  21408026.1644                   21408024.3874
 -11637691.67647  -9058044.22745  21900750.6094                   21900748.1954
  -9258318.39846  -7147456.09044  22565757.8984                   22565757.3714
 -15055390.68047 -11716462.76245  20743372.5084                   20743367.7504
 11  8 20  0  7  0.0000000  0  8G17G10G09G30G04G12G05G02
   4881654.72746   3826388.47343  23022062.6094                   23022061.5434
 -14296154.84047 -11128421.08645  21032859.3364                   21032857.9104
   1416794.45345   1192820.79743  23366421.5864                   23366421.6764
   -447576.223 5                  24371152.430
  -7816350.05947  -6057120.62944  21426200.2814                   21426198.1294
 -11685737.69547  -9095482.64545  21891607.3834                   21891604.9494
  -9331997.85946  -7204868.58244  22551737.5234                   22551736.8874
 -15040524.49647 -11704878.71145  20746201.0554                   20746196.8134
 11  8 20  0  7 30.0000000  0  8G17G10G09G30G04G12G05G02
   4953244.83246   3882172.95343  23035685.6564                   23035683.9454
 -14289084.66046 -11122911.83645  21034204.2734                   21034203.3554
   1512324.82045   1267259.97743  23384600.4614                   23384600.6334
   -528730.156 5                  24355708.984
  -7720622.63747  -5982527.84844  21444416.9064                   21444414.9574
 -11733395.93747  -9132618.90645  21882538.2344                   21882535.9774
  -9405423.89146  -7262083.58244  22537764.9224                   22537764.3054
 -15025311.43447 -11693024.37145  20749096.3284                   20749092.0164
 11  8 20  0  8  0.0000000  0  9G17G10G09G30G04G12G05G25G02
   5025007.97346   3938092.25043  23049341.9614                   23049340.5394
 -14281367.17647 -11116898.18445  21035673.3834                   21035671.4494
   1608146.74646   1341926.32443  23402835.9144                   23402834.6954
   -609666.062 5                  24340307.102
  -7624670.49247  -5907759.97344  21462675.7814                   21462673.9264
 -11780659.40647  -9169447.56245  21873544.3754                   21873541.9344
  -9478589.09446  -7319095.35544  22523842.6024                   22523841.1094
   -117280.27315                  24748572.656
 -15009748.38347 -11680897.30145  20752057.5554                   20752053.1174
 11  8 20  0  8 30.0000000  0  9G17G10G09G30G04G12G05G25G02
   5096942.91046   3994145.40244  23063030.4384                   23063028.7624
 -14273003.25447 -11110380.81645  21037264.9924                   21037263.2814
   1704254.80546   1416815.64843  23421124.5394                   23421123.8364
   -690383.094 5                  24324947.773
  -7528497.19947  -5832819.76644  21480977.2424                   21480975.1844
 -11827527.23847  -9205967.91445  21864625.7114                   21864622.9414
  -9551492.34046  -7375902.99644  22509969.0944                   22509968.3954
   -196977.605 5                  24733405.141
 -14993838.19147 -11668499.75445  20755085.3834                   20755081.1484
 11  8 20  0  9  0.0000000  0  9G17G10G09G30G04G12G05G25G02
   5169042.31646   4050326.73043  23076750.7894                   23076749.1954
 -14264000.32847 -11103365.52045  21038978.1334                   21038976.6484
   1800637.72346   1491919.10543  23439464.9064                   23439465.0164
   -770886.266 5                  24309627.805
  -7432113.25847  -5757715.41844  21499318.3284                   21499316.2854
 -11874005.14147  -9242184.45345  21855781.8204                   21855778.7154
  -9624138.67646  -7432510.44544  22496144.4844                   22496143.3594
   -276543.379 5                  24718264.117
 -14977589.87547 -11655838.70745  20758177.6484                   20758172.9654
 11  8 20  0  9 30.0000000  0  9G17G10G09G30G04G12G05G25G02
   5241310.06646   4106639.24243  23090501.9064                   23090501.5434
 -14254353.81247 -11095848.74645  21040814.1414                   21040811.9264
   1897295.71146   1567236.96543  23457858.7584                   23457859.3054
   -851169.555 5                  24294351.031
  -7335517.27747  -5682445.84844  21517699.6564                   21517698.3484
 -11920087.03547  -9278092.39845  21847012.4924                   21847009.5864
  -9696521.77046  -7488912.79344  22482371.1094                   22482369.3284
   -355971.844 5                  24703151.133
 -14961001.00447 -11642912.30945  20761334.5704                   20761329.4024
 11  8 20  0 10  0.0000000  0  9G17G10G09G30G04G12G05G25G02
   5313750.31346   4163086.16443  23104287.5314                   23104286.4344
 -14244059.09047 -11087826.85945  21042773.2584                   21042771.0784
   1994228.63746   1642769.05543  23476304.8524                   23476304.6884
   -931226.746 5                  24279116.508
  -7238708.14847  -5607010.19544  21536121.5554                   21536120.6604
 -11965767.09847  -9313687.22345  21838319.6484                   21838317.1804
  -9768635.34446  -7545105.10944  22468648.0634                   22468647.0594
   -435256.930 5                  24688062.438
 -14944069.16847 -11629718.66045  20764556.3914                   20764551.5004
 11  8 20  0 10 30.0000000  0  9G17G10G09G30G04G12G05G25G02
   5386360.25046   4219665.30143  23118105.5634                   23118103.8754
 -14233119.15247 -11079302.21545  21044854.8914                   21044852.5084
   2091429.75046   1718510.09843  23494801.4534                   23494801.6524
  -1011058.527 5                  24263925.250
  -7141691.68047  -5531412.97745  21554583.9454                   21554581.6684
 -12011046.49247  -9348969.84845  21829703.3914                   21829700.5314
  -9840479.71946  -7601087.65644  22454976.6174                   22454975.3134
   -514399.785 5                  24673001.406
 -14926798.71947 -11616261.15645  20767842.8054                   20767838.2624
 11  8 20  0 11  0.0000000  0  9G17G10G09G30G04G12G05G25G02
   5459147.21945   4276382.39543  23131955.4454                   23131954.4654
 -14221526.43447 -11070268.91845  21047060.9304                   21047058.6564
   2188902.26246   1794462.63343  23513348.8594                   23513350.1414
  -1090655.426 5                  24248778.500
  -7044462.98047  -5455650.36344  21573085.9774                   21573083.8674
 -12055915.59447  -9383932.76245  21821165.0164                   21821162.2464
  -9912045.44146  -7656853.06244  22441357.5394                   22441356.8094
   -593391.156 5                  24657969.992
 -14909184.25447 -11602535.57845  20771193.8444                   20771189.7384
 11  8 20  0 11 30.0000000  0  9G17G10G09G30G04G12G05G25G02
   5532106.35946   4333233.64543  23145839.6094                   23145837.6254
 -14209285.34447 -11060730.39545  21049390.3984                   21049388.0204
   2286637.18445   1870619.63743  23531947.5864                   23531948.7894
  -1170020.070 5                  24233676.133
  -6947029.82447  -5379728.43445  21591626.5944                   21591624.8094
 -12100377.82047  -9418578.64545  21812703.6724                   21812701.2544
  -9983334.89146  -7712403.20344  22427791.2344                   22427790.9774
   -672233.930 5                  24642967.781
 -14891232.09447 -11588546.86345  20774610.8754                   20774606.1484
 11  8 20  0 12  0.0000000  0  9G17G10G09G30G04G12G05G25G02
   5605240.98846   4390221.63343  23159756.0004                   23159754.5204
 -14196392.32047 -11050683.86745  21051843.7814                   21051841.6884
   2384633.97346   1946980.69543  23550596.7504                   23550597.5084
  -1249146.863 5                  24218618.547
  -6849391.55947  -5303646.68445  21610206.7344                   21610205.3634
 -12144427.69547  -9452903.20345  21804321.6414                   21804318.9384
 -10054342.51646  -7767733.75044  22414278.9384                   22414278.1994
   -750922.801 5                  24627993.586
 -14872940.68047 -11574293.80145  20778091.6334                   20778086.9534
 11  8 20  0 12 30.0000000  0  9G17G10G09G30G04G12G05G25G02
   5678555.45345   4447349.76243  23173707.5474                   23173706.0314
 -14182842.88747 -11040125.85545  21054422.2974                   21054420.3244
   2482893.17646   2023546.23043  23569293.9454                   23569295.2894
  -1328029.187 5                  24203607.766
  -6751546.34047  -5227403.66844  21628826.7274                   21628824.5944
 -12188058.67247  -9486901.34845  21796019.0864                   21796016.2464
 -10125060.74646  -7822838.79344  22400821.8524                   22400821.0204
   -829451.516 6                  24613049.555
 -14854306.87947 -11559773.94145  20781637.2814                   20781632.5864
 11  8 20  0 13  0.0000000  0  9G17G10G09G30G04G12G05G25G02
   4176633.92646   3277021.26643  22887901.5474                   22887900.5824
 -15744055.00847 -12256654.77045  20757333.5004                   20757331.0354
   1005995.05946    872716.42643  23288250.3444                   23288250.8484
  -2982086.109 5                  23888850.461
  -8228912.52347  -6378598.10944  21347692.6564                   21347691.0314
 -13806689.16047 -10748171.84045  21488003.7894                   21488001.4774
 -11770908.90646  -9105317.79744  22087626.8444                   22087626.1024
  -2483239.51246  -1925977.66853  24298344.5394                   24298345.6024
 -16410750.65247 -12772587.25845  20485455.9384                   20485451.4024
 11  8 20  0 13 30.0000000  0  9G17G10G09G30G04G12G05G25G02
   4250309.16846   3334430.51243  22901922.1024                   22901920.5274
 -15729191.53947 -12245072.84045  20760161.8834                   20760160.0984
   1104766.89545    949681.40643  23307045.4614                   23307046.6094
  -3060472.344 5                  23873934.266
  -8130661.47347  -6302038.86744  21366389.8204                   21366387.5944
 -13849476.79347 -10781512.84845  21479861.2424                   21479859.1294
 -11841042.46146  -9159967.23044  22074281.9224                   22074280.3244
  -2561441.73445  -1986914.39543  24283463.4924                   24283463.6954
 -16391437.13747 -12757537.75445  20489131.0704                   20489126.4964
 11  8 20  0 14  0.0000000  0  9G17G10G09G30G04G12G05G25G02
   4324170.21146   3391984.50843  22915978.4304                   22915975.1214
 -15713665.50847 -12232974.62145  20763115.4924                   20763114.4064
   1203794.98446   1026846.07043  23325889.6174                   23325890.7424
  -3138601.699 5                  23859066.516
  -8032205.97747  -6225320.31644  21385124.3204                   21385122.9694
 -13891834.27047 -10814518.65645  21471801.3914                   21471798.5784
 -11910874.28946  -9214381.57444  22060992.4384                   22060991.9884
  -2639472.14845  -2047717.28143  24268613.8524                   24268614.3364
 -16371780.52047 -12742220.89145  20492871.5004                   20492867.0594
 11  8 20  0 14 30.0000000  0  9G17G10G09G30G04G12G05G25G02
   4398210.00446   3449677.85243  22930066.6954                   22930064.4304
 -15697484.18747 -12220365.78545  20766195.2424                   20766193.3594
   1303067.98846   1104201.53143  23344781.1564                   23344781.8834
  -3216479.098 5                  23844247.391
  -7933556.00047  -6148450.20744  21403896.4534                   21403894.7584
 -13933766.98847 -10847193.48445  21463821.8364                   21463818.8834
 -11980408.64146  -9268564.10544  22047760.9534                   22047760.0394
  -2717336.07846  -2108390.44942  24253797.4534                   24253798.0204
 -16351789.64547 -12726643.57845  20496675.6884                   20496670.8134
 11  8 20  0 15  0.0000000  0  9G17G10G09G30G04G12G05G25G02
   4472430.39146   3507511.88343  22944189.6804                   22944187.7034
 -15680645.42647 -12207244.67644  20769399.5084                   20769397.5904
   1402583.82846   1181746.23443  23363719.0634                   23363719.5164
  -3294100.445 5                  23829475.539
  -7834712.28546  -6071429.13744  21422706.0474                   21422704.7814
 -13975271.09846 -10879534.33645  21455923.7974                   21455920.9844
 -12049642.11746  -9322512.19544  22034586.0234                   22034585.4734
  -2795029.62146  -2168930.78943  24239012.5864                   24239013.5204
 -16331464.42647 -12710805.73045  20500543.2974                   20500538.9494
 11  8 20  0 15 30.0000000  0  9G17G10G09G30G04G12G05G25G02
   4546832.75046   3565487.69943  22958348.1644                   22958347.2814
 -15663147.92647 -12193610.24645  20772729.0004                   20772727.0514
   1502339.92646   1259478.18043  23382702.0084                   23382702.8244
  -3371462.187 5                  23814754.969
  -7735676.08646  -5994258.08244  21441551.4924                   21441550.5204
 -14016343.39547 -10911538.71545  21448108.0234                   21448105.3754
 -12118571.25046  -9376223.13344  22021468.5944                   22021467.7584
  -2872549.48845  -2229335.75042  24224260.4614                   24224261.3984
 -16310805.14547 -12694707.56645  20504474.8444                   20504470.0274
 11  8 20  0 16  0.0000000  0  9G17G10G09G30G04G12G05G25G02
   4621424.82446   3623611.33243  22972542.5004                   22972541.5394
 -15644984.10247 -12179456.62145  20776185.6884                   20776184.1484
   1602339.61346   1337399.94543  23401731.2344                   23401732.2774
  -3448554.426 5                  23800084.258
  -7636442.44547  -5916933.18444  21460436.1094                   21460434.4734
 -14056974.41446 -10943199.22745  21440375.6724                   21440373.6884
 -12187185.46546  -9429688.66844  22008412.1094                   22008411.5744
  -2949886.14546  -2289598.06642  24209544.2034                   24209544.4344
 -16289805.81247 -12678344.45745  20508470.8204                   20508466.4384
 11  8 20  0 16 30.0000000  0  9G17G10G09G30G04G12G05G25G02
   4696204.55546   3681881.21143  22986772.1414                   22986771.8524
 -15626155.98047 -12164785.34445  20779768.2814                   20779766.4844
   1702576.97745   1415506.85543  23420805.6644                   23420806.9344
  -3525377.172 5                  23785464.695
  -7537016.51647  -5839458.46944  21479356.3054                   21479354.4064
 -14097164.66446 -10974516.28545  21432728.1024                   21432725.2034
 -12255484.93446  -9482908.96144  21995415.6564                   21995414.5864
  -3027039.77346  -2349717.69942  24194862.6174                   24194862.6524
 -16268470.16047 -12661719.25445  20512531.1724                   20512526.5904
 11  8 20  0 17  0.0000000  0  9G17G10G09G30G04G12G05G25G02
   4771172.79346   3740297.95743  23001038.6414                   23001037.3484
 -15606662.88747 -12149595.91045  20783477.8364                   20783476.2074
   1803049.28946   1493796.84443  23439925.0314                   23439925.7544
  -3601926.863 5                  23770898.523
  -7437399.27047  -5761834.65644  21498312.5634                   21498310.2664
 -14136911.07847 -11005487.50045  21425164.7194                   21425162.0594
 -12323465.92246  -9535881.08644  21982479.3284                   21982477.8484
  -3104007.21545  -2409692.27342  24180215.9384                   24180216.7234
 -16246798.86747 -12644832.51645  20516654.6564                   20516650.0084
 11  8 20  0 17 30.0000000  0  9G17G10G09G30G04G12G05G25G02
   4846328.84446   3798861.10543  23015340.7664                   23015338.4264
 -15586505.56647 -12133888.91045  20787313.8284                   20787311.5234
   1903751.52345   1572266.03143  23459087.4614                   23459088.3914
  -3678202.141 5                  23756382.742
  -7337594.59046  -5684064.79344  21517305.0634                   21517303.1684
 -14176212.64547 -11036112.08245  21417686.1024                   21417683.4574
 -12391126.93046  -9588603.87144  21969603.6644                   21969602.3554
  -3180787.22345  -2469520.77743  24165605.1954                   24165606.1094
 -16224794.35547 -12627686.13345  20520842.0314                   20520837.6134
 11  8 20  0 18  0.0000000  0  9G17G10G09G30G04G12G05G25G02
   4921670.84046   3857569.11743  23029678.0394                   23029675.5554
 -15565685.91047 -12117665.79744  20791275.3134                   20791273.4344
   2004677.63345   1650909.69943  23478293.2194                   23478294.1414
  -3754202.77045  -2916147.16853  23741921.5234                   23741918.0354
  -7237606.81647  -5606152.26244  21536331.6174                   21536330.1334
 -14215069.46946 -11066390.10545  21410291.5634                   21410288.7274
 -12458467.65246  -9641077.08244  21956788.8674                   21956787.9344
  -3257379.93446  -2529203.35942  24151029.4384                   24151030.6174
 -16202460.62547 -12610283.21945  20525092.0634                   20525087.5204
 11  8 20  0 18 30.0000000  0  9G17G10G09G30G04G12G05G25G02
   4997199.12146   3916422.29743  23044049.7504                   23044048.8364
 -15544203.74246 -12100926.41845  20795362.8984                   20795361.4804
   2105824.49246   1729725.31343  23497541.9384                   23497542.2074
  -3829926.05545  -2975152.26643  23727510.2424                   23727509.7894
  -7137438.33247  -5528098.92244  21555392.9694                   21555391.6254
 -14253479.35946 -11096319.87945  21402982.3284                   21402979.3134
 -12525485.26246  -9693298.52745  21944036.0554                   21944034.6374
  -3333782.78946  -2588738.00842  24136490.7344                   24136491.7424
 -16179798.64546 -12592624.51245  20529404.4614                   20529399.7344
 11  8 20  0 19  0.0000000  0  9G17G10G09G30G04G12G05G25G02
   5072909.03946   3975416.99243  23058456.8204                   23058455.3794
 -15522064.23447 -12083674.85245  20799576.5314                   20799574.7384
   2207182.96146   1808705.84043  23516831.0634                   23516828.8754
  -3905374.58645  -3033943.28942  23713153.4614                   23713152.5664
  -7037096.49247  -5449910.49644  21574487.4304                   21574486.3134
 -14291445.20747 -11125903.63745  21395757.5314                   21395755.1374
 -12592182.50046  -9745270.32044  21931343.3834                   21931342.3594
  -3409998.69946  -2648126.95742  24121987.3984                   24121988.2034
 -16156814.68047 -12574714.91445  20533778.5164                   20533773.4844
 11  8 20  0 19 30.0000000  0  9G17G10G09G30G04G12G05G25G02
   5148804.44546   4034556.22743  23072899.3054                   23072898.2154
 -15499263.67246 -12065908.17645  20803915.1414                   20803913.9144
   2308752.93046   1887851.23442  23536158.5084                   23536157.5784
  -3980542.04746  -3092515.30142  23698850.1954                   23698848.6914
  -6936579.85246  -5371585.87144  21593615.8984                   21593613.6374
 -14328961.27346 -11155136.91045  21388618.7504                   21388616.0784
 -12658552.99246  -9796987.50444  21918713.5944                   21918712.1914
  -3486021.70346  -2707365.64843  24107519.8364                   24107521.3914
 -16133506.67647 -12556552.81645  20538213.4304                   20538209.0164
 11  8 20  0 20  0.0000000  0  9G17G10G09G30G04G12G05G25G02
   5224888.95346   4093842.83643  23087378.2584                   23087376.5704
 -15475798.48047 -12047623.59445  20808380.4224                   20808378.6414
   2410534.48846   1967161.47342  23555525.7734                   23555526.2584
  -4055422.45746  -3150863.62542  23684600.8674                   23684599.8164
  -6835887.44946  -5293124.28944  21612776.6564                   21612775.4924
 -14366022.28547 -11184015.60245  21381565.8364                   21381563.5004
 -12724590.50846  -9848445.24644  21906146.6724                   21906145.5594
  -3561845.98446  -2766449.41043  24093091.5394                   24093093.0474
 -16109872.79747 -12538136.80145  20542710.8594                   20542706.4064
 11  8 20  0 20 30.0000000  0  9G17G10G09G30G04G12G05G25G02
   5301165.14146   4153278.73843  23101893.1094                   23101892.3244
 -15451666.66447 -12028819.57845  20812972.5944                   20812970.6684
   2512525.55945   2046634.93043  23574934.6174                   23574934.4304
  -4130011.48045  -3208984.88742  23670407.7584                   23670405.5474
  -6735019.71147  -5214526.08644  21631971.3914                   21631969.2274
 -14402623.87546 -11212536.29745  21374600.5314                   21374598.1484
 -12790290.75446  -9899640.16044  21893645.0004                   21893642.9694
  -3637467.36746  -2825375.14543  24078700.7114                   24078702.4384
 -16085912.32047 -12519466.28145  20547270.1484                   20547265.8984
 11  8 20  0 21  0.0000000  0  9G17G10G09G30G04G12G05G25G02
   5377636.67646   4212866.90243  23116445.6724                   23116444.7034
 -15426864.97346 -12009493.57045  20817692.1884                   20817690.0984
   2614726.08646   2126271.61743  23594382.7664                   23594383.6414
  -4204302.98045  -3266874.30142  23656269.9064                   23656268.6294
  -6633975.35547  -5135790.25844  21651199.4304                   21651197.7194
 -14438760.88746 -11240694.98845  21367724.1484                   21367721.4654
 -12855647.19946  -9950567.19144  21881207.7194                   21881206.5514
  -3712880.05546  -2884138.21943  24064350.9614                   24064351.3524
 -16061623.18047 -12500539.66845  20551892.4844                   20551887.9024
 11  8 20  0 21 30.0000000  0  9G17G10G09G30G04G12G05G25G02
   5454299.03946   4272603.76643  23131034.4534                   23131032.8404
 -15401398.05946 -11989649.22745  20822538.3134                   20822536.4384
   2717127.89145   2206065.19143  23613867.8204                   23613870.2894
  -4278299.13745  -3324533.59042  23642189.4614                   23642187.0594
  -6532761.24646  -5056922.16444  21670459.3594                   21670457.8404
 -14474435.69147 -11268493.52045  21360935.6884                   21360933.0124
 -12920662.42646 -10001228.32844  21868835.9924                   21868834.7894
  -3788086.32046  -2942740.45743  24050039.4384                   24050040.5434
 -16037011.50447 -12481361.73445  20556576.2344                   20556571.5474
 11  8 20  0 22  0.0000000  0  9G17G10G09G30G04G12G05G25G02
   5531149.66446   4332487.34843  23145657.7504                   23145656.3164
 -15375268.71946 -11969288.69545  20827511.3284                   20827508.7464
   2819724.19945   2286010.23843  23633391.9534                   23633393.6724
  -4352000.21145  -3381962.92642  23628163.2034                   23628161.6644
  -6431382.57446  -4977925.83644  21689751.3834                   21689749.6764
 -14509649.07847 -11295932.50045  21354234.9694                   21354232.0704
 -12985336.41046 -10051623.57044  21856527.9924                   21856527.4064
  -3863086.76246  -3001182.29743  24035766.7344                   24035768.3674
 -16012081.54347 -12461935.78145  20561319.7584                   20561315.7624
 11  8 20  0 22 30.0000000  0  9G17G10G09G30G04G12G05G25G02
   5608192.82046   4392520.93443  23160319.1094                   23160317.3714
 -15348472.85947 -11948408.78945  20832609.5394                   20832607.5704
   2922515.67245   2366107.40643  23652952.6414                   23652954.6914
  -4425399.38345  -3439156.97343  23614195.4224                   23614194.9224
  -6329837.34846  -4898799.71544  21709075.1884                   21709073.1844
 -14544394.89547 -11323007.13345  21347623.3204                   21347620.4494
 -13049662.70346 -10101747.88744  21844287.5944                   21844286.1954
  -3937874.86346  -3059458.67643  24021535.9224                   24021536.2854
 -15986830.48047 -12442259.62145  20566125.1884                   20566120.3874
 11  8 20  0 23  0.0000000  0  9G17G10G09G30G04G12G05G25G02
   5685424.21146   4452701.18843  23175016.1564                   23175013.5004
 -15321015.76246 -11927013.64145  20837835.0944                   20837832.6374
   3025493.50046   2446349.76643  23672550.2274                   23672550.5084
  -4498499.16045  -3496117.78942  23600286.0394                   23600284.6414
  -6228132.93446  -4819549.52744  21728429.0474                   21728427.1764
 -14578676.19947 -11349719.81645  21341099.3134                   21341096.4384
 -13113643.35946 -10151602.87944  21832112.9614                   21832111.2504
  -4012453.24246  -3117571.64143  24007343.3914                   24007344.8484
 -15961264.56247 -12422338.12145  20570990.0234                   20570985.2234
 11  8 20  0 23 30.0000000  0  9G17G10G09G30G04G12G05G25G02
   5762850.59446   4513033.38343  23189749.0944                   23189748.2894
 -15292891.07846 -11905098.28945  20843186.3284                   20843184.7304
   3128660.61346   2526739.62543  23692181.8594                   23692181.9304
  -4571290.47745  -3552838.21542  23586434.5784                   23586432.5204
  -6126264.70746  -4740171.70744  21747813.1644                   21747811.9774
 -14612484.36347 -11376063.82445  21334665.3674                   21334663.0204
 -13177269.51246 -10201181.63344  21820004.7274                   21820002.9384
  -4086813.04346  -3175514.29343  23993193.4304                   23993194.5234
 -15935379.06647 -12402167.59845  20575916.0394                   20575910.9884
 11  8 20  0 24  0.0000000  0  9G17G10G09G30G04G12G05G25G02
   5840471.45346   4573517.14843  23204521.1644                   23204518.8364
 -15264099.71847 -11882663.46245  20848665.3984                   20848663.2974
   3232012.72346   2607273.66043  23711848.9614                   23711849.2274
  -4643771.23845  -3609316.70742  23572641.3444                   23572639.2114
  -6024235.86346  -4660668.73444  21767229.5394                   21767227.5904
 -14645817.92647 -11402038.00445  21328322.2504                   21328319.6524
 -13240538.89546 -10250482.37544  21807964.4774                   21807963.6524
  -4160952.32846  -3233285.10243  23979085.7734                   23979086.1914
 -15909175.86347 -12381749.51245  20580902.7194                   20580897.5664
 11  8 20  0 24 30.0000000  0  9G17G10G09G30G04G12G05G25G02
   5918287.35546   4634152.87143  23219327.5004                   23219327.5084
 -15234641.48847 -11859708.99245  20854270.5634                   20854268.5864
   3335546.27346   2687949.05943  23731551.4064                   23731551.1644
  -4715938.91445  -3665551.18442  23558908.9774                   23558906.0784
  -5922048.42246  -4581042.19544  21786675.4694                   21786672.9264
 -14678674.83647 -11427640.77345  21322070.0394                   21322067.4224
 -13303449.19546 -10299503.32844  21795993.8364                   21795992.4304
  -4234869.02046  -3290882.42243  23965018.0234                   23965020.4414
 -15882656.49647 -12361085.07045  20585948.6884                   20585943.8874
 11  8 20  0 25  0.0000000  0  9G17G10G09G30G04G12G05G25G02
   5996294.47346   4694937.58643  23234172.3134                   23234171.6724
 -15204520.70747 -11836238.25045  20860003.1884                   20860001.1724
   3439253.68046   2768759.95343  23751286.4224                   23751286.1414
  -4787795.07445  -3721542.93442  23545234.6254                   23545232.9454
  -5819708.70347  -4501296.99244  21806149.3204                   21806147.8094
 -14711057.29747 -11452873.83645  21315908.2274                   21315905.4264
 -13366001.75047 -10348245.51245  21784090.0234                   21784088.9884
  -4308564.66446  -3348307.53143  23950995.8444                   23950996.7114
 -15855826.37547 -12340178.47745  20591054.7344                   20591049.4774
 11  8 20  0 25 30.0000000  0  9G17G10G09G30G04G12G05G25G02
   6074491.55946   4755870.33643  23249053.1024                   23249051.6524
 -15173739.60947 -11812252.96945  20865860.2974                   20865858.0044
   3543129.44946   2849702.00043  23771052.5474                   23771053.2894
  -4859338.70745  -3777291.16043  23531620.5314                   23531618.1134
  -5717220.64846  -4421436.19944  21825652.3284                   21825650.1954
 -14742964.88747 -11477736.87145  21309836.1644                   21309833.4964
 -13428195.76247 -10396708.31644  21772254.7584                   21772253.4414
  -4382038.64546  -3405559.92243  23937013.9454                   23937014.2034
 -15828688.39147 -12319031.99245  20596218.6094                   20596213.8134
 11  8 20  0 26  0.0000000  0  9G17G10G09G30G04G12G05G25G02
   6152884.63346   4816955.78943  23263971.5084                   23263970.0864
 -15142292.39147 -11787748.63345  20871844.8134                   20871842.7344
   3647176.09045   2930777.19543  23790851.6024                   23790854.0124
  -4930561.09045  -3832789.08642  23518066.8524                   23518064.9184
  -5614580.16046  -4341456.63344  21845183.6484                   21845182.8954
 -14774389.41047 -11502223.50445  21303856.1954                   21303853.3954
 -13490022.78946 -10444885.16044  21760489.6334                   21760488.1094
  -4455282.25446  -3462632.80543  23923075.6804                   23923076.4224
 -15801237.90247 -12297641.99645  20601442.6724                   20601437.7074
 11  8 20  0 26 30.0000000  0  9G17G10G09G30G04G12G05G25G02
   6231472.74246   4878193.23843  23278925.8594                   23278924.5004
 -15110180.44147 -11762726.31645  20877955.1644                   20877953.3164
   3751388.94545   3011981.89542  23810682.0234                   23810684.9964
  -5001460.99645  -3888035.72742  23504574.8444                   23504572.9344
  -5511790.71146  -4261360.98444  21864744.4304                   21864742.7194
 -14805330.20747 -11526333.19545  21297968.1174                   21297965.2894
 -13551481.27346 -10492774.83244  21748794.1334                   21748792.9104
  -4528294.53546  -3519525.37943  23909181.4844                   23909183.4774
 -15773477.64147 -12276010.61345  20606724.6644                   20606720.0164
 11  8 20  0 27  0.0000000  0  9G17G10G09G30G04G12G05G25G02
   6310253.56646   4939580.84843  23293917.3914                   23293915.4144
 -15077406.94147 -11737188.51645  20884191.6334                   20884189.8364
   3855761.57845   3093311.07842  23830545.9144                   23830546.4614
  -5072038.63745  -3943031.23443  23491144.8284                   23491142.9264
  -5408856.97746  -4181152.90644  21884331.6564                   21884330.3834
 -14835788.35247 -11550066.80945  21292171.6804                   21292169.8484
 -13612571.41846 -10540377.47745  21737168.8674                   21737167.7234
  -4601075.89846  -3576238.09443  23895332.2194                   23895332.9844
 -15745411.80947 -12254141.13345  20612065.6024                   20612060.6334
 11  8 20  0 27 30.0000000  0  9G17G10G09G30G04G12G05G25G02
   6389231.30146   5001121.87543  23308946.3134                   23308944.4224
 -15043968.89547 -11711132.89545  20890554.9614                   20890552.9414
   3960293.97745   3174764.77343  23850436.3444                   23850438.3634
  -5142287.66045  -3997770.73843  23477776.8834                   23477774.4064
  -5305777.72346  -4100831.42244  21903947.1024                   21903945.4924
 -14865757.99647 -11573419.77745  21286469.6484                   21286466.1334
 -13673287.15646 -10587688.38745  21725615.5004                   21725613.9804
  -4673620.25446  -3632766.13743  23881526.2974                   23881528.1414
 -15717038.21947 -12232031.82845  20617464.8054                   20617460.1374
 11  8 20  0 28  0.0000000  0  9G17G10G09G30G04G12G05G25G02
   6468402.52046   5062813.68843  23324012.7274                   23324009.8284
 -15009869.63747 -11684562.02745  20897043.8134                   20897041.5204
   4064978.84445   3256337.30542  23870358.3984                   23870358.4804
  -5212208.98445  -4052254.81242  23464471.2734                   23464468.9694
  -5202558.54346  -4020400.89544  21923589.9304                   21923587.8204
 -14895240.60947 -11596393.23045  21280858.7274                   21280856.6564
 -13733629.21147 -10634708.10545  21714132.3284                   21714131.6414
  -4745928.70346  -3689110.32843  23867767.6414                   23867768.3014
 -15688361.73847 -12209686.51645  20622921.4614                   20622916.8014
 11  8 20  0 28 30.0000000  0  9G17G10G09G30G04G12G05G25G02
   6547769.55146   5124658.09443  23339115.5554                   23339112.6844
 -14975107.44147 -11657474.59445  20903659.3204                   20903656.7274
   4169814.85945   3338027.58643  23890306.9304                   23890308.0274
  -5281797.72745  -4106479.75442  23451228.1644                   23451226.8914
  -5099199.08246  -3939861.07844  21943257.3054                   21943256.1884
 -14924231.61346 -11618983.61345  21275342.0704                   21275339.5314
 -13793592.91846 -10681433.01645  21702722.6644                   21702720.4964
  -4817996.37546  -3745266.91043  23854054.1414                   23854054.5744
 -15659381.83247 -12187104.75845  20628436.2114                   20628431.5394
 11  8 20  0 29  0.0000000  0  9G17G10G09G30G04G12G05G25G02
   6627330.65246   5186653.73843  23354255.6094                   23354253.6174
 -14939685.06647 -11629872.72745  20910399.4304                   20910397.7504
   4274796.47745   3419831.34042  23910284.3364                   23910285.4224
  -5351053.53945  -4160445.27742  23438050.6024                   23438048.2504
  -4995703.82446  -3859215.44944  21962952.1334                   21962950.7704
 -14952732.20347 -11641191.86745  21269918.7504                   21269915.7974
 -13853177.80546 -10727862.73445  21691382.8524                   21691382.1524
  -4889823.23046  -3801235.84843  23840384.2894                   23840386.8914
 -15630101.69947 -12164289.06645  20634008.4384                   20634003.8054
 11  8 20  0 29 30.0000000  0  9G17G10G09G30G04G12G05G25G02
   6707088.73446   5248802.81343  23369432.2974                   23369431.0124
 -14903600.64847 -11601755.00845  20917265.9224                   20917263.6804
   4379922.51645   3501747.64842  23930289.5554                   23930289.7344
  -5419971.19545  -4214147.28543  23424934.3444                   23424933.6294
  -4892072.27746  -3778463.60544  21982672.4774                   21982671.7194
 -14980737.38347 -11663014.07845  21264589.2974                   21264586.8284
 -13912378.86746 -10773993.37545  21680117.2504                   21680116.0274
  -4961404.32046  -3857013.27343  23826763.6174                   23826764.4224
 -15600520.17247 -12141238.51245  20639636.8754                   20639632.4534
 11  8 20  0 30  0.0000000  0  9G17G10G09G30G04G12G05G25G02
   6787045.46146   5311106.71943  23384648.2424                   23384646.6884
 -14866853.17647 -11573120.59845  20924258.4844                   20924256.6484
   4485190.82045   3583774.76642  23950322.2584                   23950322.4064
  -5488546.82846  -4267582.81643  23411885.5314                   23411883.0824
  -4788305.25846  -3697606.21144  22002419.1254                   22002417.1564
 -15008243.78547 -11684447.63745  21259355.4304                   21259352.6884
 -13971192.34846 -10819822.00445  21668925.9144                   21668924.1294
  -5032735.83246  -3912596.24643  23813189.3054                   23813190.1844
 -15570637.41447 -12117953.24245  20645324.5944                   20645319.3554
 11  8 20  0 30 30.0000000  0  9G17G10G09G30G04G12G05G25G02
   6867194.16846   5373560.19943  23399899.1884                   23399898.3244
 -14829449.94147 -11543975.20745  20931376.6484                   20931374.4884
   4590590.91445   3665904.63342  23970379.0864                   23970379.6724
  -5556784.71545  -4320755.18043  23398900.5864                   23398898.3914
  -4684411.58246  -3616650.12544  22022189.8984                   22022188.2074
 -15035256.66447 -11705496.62945  21254215.0554                   21254212.0204
 -14029622.71947 -10865352.09845  21657806.5704                   21657805.3794
  -5103822.17246  -3967988.13343  23799662.5164                   23799663.0124
 -15540461.63347 -12094439.64845  20651065.8444                   20651061.3594
 11  8 20  0 31  0.0000000  0  9G17G10G09G30G04G12G05G25G02
   6947538.86746   5436166.39843  23415189.1804                   23415186.9304
 -14791388.01247 -11514316.54745  20938619.3134                   20938617.4264
   4696122.60945   3748137.06343  23990460.7504                   23990461.8674
  -5624678.79345  -4373659.57843  23385980.3524                   23385979.6644
  -4580389.95746  -3535594.34044  22041983.1644                   22041982.6604
 -15061770.73447 -11726156.93745  21249169.2584                   21249166.3484
 -14087664.03946 -10910579.04745  21646762.0164                   21646760.7034
  -5174657.52746  -4023184.48843  23786182.8054                   23786183.5824
 -15509991.17247 -12070696.41845  20656863.7664                   20656859.4924
 11  8 20  0 31 30.0000000  0  9G17G10G09G30G04G12G05G25G02
   7028082.57846   5498927.71943  23430515.9694                   23430513.6914
 -14752664.96947 -11484142.73045  20945987.6804                   20945986.1724
   4801785.42246   3830471.60543  24010567.6954                   24010569.9734
  -5692223.35946  -4426291.64843  23373127.1024                   23373125.8524
  -4476239.14146  -3454437.89544  22061802.9694                   22061802.2384
 -15087780.69147 -11746424.43045  21244219.6804                   21244217.0354
 -14145310.31247 -10955498.15245  21635791.8284                   21635790.7734
  -5245236.24246  -4078180.82843  23772752.2274                   23772752.9804
 -15479224.24647 -12046722.18745  20662719.8914                   20662714.4654
 11  8 20  0 32  0.0000000  0  9G17G10G09G30G04G12G05G25G02
   7108826.12946   5561844.72743  23445880.9384                   23445878.3444
 -14713280.86747 -11453453.81244  20953482.4534                   20953480.5234
   4907576.57845   3912906.17243  24030698.2424                   24030700.8954
  -5759415.14146  -4478648.82843  23360341.4924                   23360338.4804
  -4371960.62946  -3373181.92644  22081647.6954                   22081646.1254
 -15113284.24247 -11766297.31645  21239366.5234                   21239364.0164
 -14202558.73847 -11000107.25445  21624897.8674                   21624896.7814
  -5315555.25846  -4132974.83243  23759370.7424                   23759371.2814
 -15448161.21147 -12022517.21545  20668630.2344                   20668625.8054
 11  8 20  0 32 30.0000000  0  9G17G10G09G30G04G12G05G25G02
   7189768.09446   5624916.33243  23461283.5704                   23461281.9104
 -14673238.25847 -11422251.75044  20961102.1414                   20961099.8834
   5013490.93046   3995436.73042  24050854.2974                   24050856.4734
  -5826253.27046  -4530730.42643  23347621.8914                   23347619.9414
  -4267558.10246  -3291829.32844  22101514.3204                   22101512.9924
 -15138281.31247 -11785775.54745  21234609.6804                   21234607.0164
 -14259408.27746 -11044405.53945  21614079.0164                   21614078.0784
  -5385613.96946  -4187565.99243  23746039.3754                   23746039.9024
 -15416805.93047 -11998084.52045  20674596.4844                   20674592.2894
 11  8 20  0 33  0.0000000  0  9G17G10G09G30G04G12G05G25G02
   7270904.66046   5688139.55943  23476722.4064                   23476721.9224
 -14632542.19547 -11390540.53145  20968846.8834                   20968844.2854
   5119520.40245   4078057.00442  24071030.2814                   24071032.6484
  -5892739.66446  -4582537.96143  23334969.6334                   23334967.6134
  -4163038.03147  -3210385.13744  22121403.6024                   22121402.3954
 -15162774.34847 -11804861.02345  21229949.0394                   21229946.1214
 -14315861.01647 -11088394.63345  21603336.9534                   21603336.1094
  -5455414.28546  -4241955.79343  23732757.2664                   23732757.2384
 -15385163.77047 -11973428.28145  20680618.2424                   20680613.3794
 11  8 20  0 33 30.0000000  0  9G17G10G09G30G04G12G05G25G02
   7352240.05946   5751517.69143  23492201.0004                   23492200.3674
 -14591188.96147 -11358317.20344  20976716.0314                   20976713.6294
   5225665.69545   4160767.51642  24091228.9534                   24091230.8834
  -5958867.47346  -4634066.07043  23322385.8754                   23322384.3444
  -4058398.10946  -3128847.54744  22141316.1414                   22141314.3204
 -15186757.18047 -11823548.93045  21225385.2034                   21225382.5004
 -14371910.32447 -11132069.35945  21592671.2504                   21592670.1334
  -5524949.47746  -4296139.02343  23719524.4224                   23719525.1454
 -15353231.86347 -11948546.25845  20686694.6564                   20686690.0944
 11  8 20  0 34  0.0000000  0  9G17G10G09G30G04G12G05G25G02
   7433773.81346   5815050.43843  23507716.5084                   23507716.0204
 -14549179.78147 -11325582.75844  20984710.3834                   20984707.9614
   5331922.64145   4243565.03142  24111450.1334                   24111451.0124
  -6024634.66046  -4685313.16843  23309870.9144                   23309869.8674
  -3953641.05546  -3047218.69544  22161250.6644                   22161249.1724
 -15210228.74647 -11841838.44545  21220918.6334                   21220915.7704
 -14427554.09847 -11175428.08245  21582082.9774                   21582081.0164
  -5594217.63746  -4350114.13743  23706343.2814                   23706343.8284
 -15321012.27047 -11923440.06645  20692825.8054                   20692821.4924
 11  8 20  0 34 30.0000000  0  9G17G10G09G30G04G12G05G25G02
   7515500.43046   5878733.45343  23523268.7814                   23523267.6294
 -14506521.95347 -11292342.87544  20992826.8914                   20992825.5704
   5438281.37546   4326441.89143  24131690.0164                   24131690.2154
  -6090044.89145  -4736282.10943  23297423.4454                   23297423.0234
  -3848774.88746  -2965504.82044  22181205.7734                   22181204.7664
 -15233193.39847 -11859732.97745  21216548.9534                   21216546.3954
 -14482796.58247 -11218474.12545  21571570.1484                   21571568.6954
  -5663222.64546  -4403884.19943  23693212.1644                   23693212.3244
 -15288512.80147 -11898115.80545  20699010.2274                   20699005.8834
 11  8 20  0 35  0.0000000  0  9G17G10G09G30G04G12G05G25G02
   7597428.85946   5942573.71943  23538858.8594                   23538857.9774
 -14463207.53547 -11258591.35944  21001070.1884                   21001068.1994
   5544746.99646   4409402.02342  24151949.7584                   24151949.7114
  -6155087.10946  -4786964.25043  23285046.7734                   23285044.7584
  -3743793.19546  -2883700.93444  22201182.8984                   22201181.6024
 -15255640.94147 -11877224.55545  21212276.9694                   21212274.4024
 -14537626.69147 -11261198.82845  21561136.2034                   21561135.0274
  -5731953.57046  -4457440.70343  23680133.0084                   23680133.5124
 -15255726.49247 -11872568.02345  20705249.1644                   20705244.6564
 11  8 20  0 35 30.0000000  0  9G17G10G09G30G04G12G05G25G02
   7679556.94946   6006569.56343  23554487.2814                   23554486.1484
 -14419238.62147 -11224329.84044  21009436.7424                   21009435.2034
   5651314.67245   4492441.63342  24172228.5864                   24172229.1214
  -6219760.06646  -4837358.75843  23272739.8674                   23272738.3634
  -3638699.36346  -2801809.66444  22221181.6954                   22221180.6094
 -15277571.10947 -11894312.98445  21208103.6484                   21208101.0944
 -14592042.99247 -11303601.07845  21550781.1334                   21550779.7274
  -5800409.20746  -4510782.69943  23667106.0864                   23667106.5124
 -15222655.96147 -11846798.76245  20711542.5634                   20711537.9614
 11  8 20  0 36  0.0000000  0  9G17G10G09G30G04G12G05G25G02
   7761884.44546   6070720.80943  23570153.7194                   23570153.3134
 -14374617.19947 -11189559.88344  21017928.6094                   21017925.9924
   5757979.98445   4575557.36342  24192525.5944                   24192527.7154
  -6284062.26246  -4887464.30143  23260503.8674                   23260502.6024
  -3533496.21946  -2719833.19544  22241201.2034                   22241200.2934
 -15298983.09047 -11910997.62945  21204029.9064                   21204026.6914
 -14646044.63347 -11345680.23045  21540505.0164                   21540503.9534
  -5868588.25046  -4563909.19943  23654132.8914                   23654132.5084
 -15189303.54347 -11820809.85545  20717889.3134                   20717885.0784
 11  8 20  0 36 30.0000000  0  9G17G10G09G30G04G12G05G25G02
   7844412.55145   6135028.31343  23585858.2814                   23585857.6524
 -14329343.52747 -11154281.68445  21026543.3524                   21026541.5274
   5864739.97745   4658746.88342  24212841.7974                   24212843.7464
  -6347990.58646  -4937278.55543  23248338.1644                   23248336.6764
  -3428185.06246  -2637772.58644  22261240.9224                   22261239.7934
 -15319874.45347 -11927276.60545  21200053.4694                   21200050.7274
 -14699628.26247 -11387433.64545  21530308.6724                   21530307.0744
  -5936487.59046  -4616817.70743  23641211.2814                   23641211.4884
 -15155670.00847 -11794601.89545  20724289.6254                   20724284.9964
 11  8 20  0 37  0.0000000  0  9G17G10G09G30G04G12G05G25G02
   7927135.50445   6199487.66443  23601600.9304                   23601599.3134
 -14283423.85247 -11118500.10544  21035281.2274                   21035279.5984
   5971585.75445   4742003.24642  24233174.2424                   24233176.9614
  -6411547.66046  -4986803.49643  23236243.8524                   23236241.5784
  -3322773.27046  -2555633.55143  22281300.7504                   22281299.7664
 -15340248.71947 -11943152.66045  21196176.7734                   21196173.3794
 -14752797.00847 -11428863.78945  21520190.7974                   21520189.0084
  -6004110.07446  -4669510.50043  23628343.1334                   23628343.2704
 -15121762.54747 -11768180.48845  20730741.8754                   20730737.2464
 11  8 20  0 37 30.0000000  0  9G17G10G09G30G04G12G05G25G02
   8010059.25846   6264103.53143  23617381.4924                   23617379.1884
 -14236853.32047 -11082211.35544  21044143.4774                   21044141.6954
   6078519.57445   4825328.16442  24253522.8914                   24253525.5354
  -6474725.42646  -5036032.89143  23224220.9454                   23224219.7624
  -3217257.30546  -2473413.35544  22301380.0004                   22301378.0204
 -15360098.76247 -11958620.21945  21192399.0234                   21192396.5664
 -14805543.08647 -11469964.57445  21510153.7584                   21510152.3164
  -6071447.70746  -4721981.31643  23615529.3134                   23615529.1454
 -15087576.68447 -11741542.15645  20737247.5004                   20737242.8954
 11  8 20  0 38  0.0000000  0  9G17G10G09G30G04G12G05G25G02
   8093184.39845   6328876.29343  23633198.5704                   23633197.5594
 -14189632.88747 -11045416.19544  21053129.5784                   21053126.9844
   6185537.88345   4908718.97742  24273887.1094                   24273889.8134
  -6537521.19946  -5084964.66443  23212272.4384                   23212269.8834
  -3111638.54746  -2391113.06243  22321478.4144                   22321476.6214
 -15379422.64847 -11973677.78945  21188722.0704                   21188719.2664
 -14857863.73847 -11510733.86345  21500197.1954                   21500195.7934
  -6138497.90246  -4774228.16443  23602769.4304                   23602769.8094
 -15053113.69947 -11714687.87945  20743805.3754                   20743800.5234
 11  8 20  0 38 30.0000000  0  9G17G10G09G30G04G12G05G25G02
   8176516.70746   6393810.45743  23649056.9454                   23649055.1524
 -14141758.33647 -11008111.33645  21062239.5784                   21062237.5664
   6292642.87545   4992177.33242  24294270.3134                   24294270.5234
  -6599926.80546  -5133592.33643  23200396.3284                   23200394.9924
  -3005913.66046  -2308730.07044  22341597.7894                   22341596.0204
 -15398213.32447 -11988319.87145  21185146.6724                   21185143.3984
 -14909750.97747 -11551165.42245  21490323.5164                   21490321.6254
  -6205252.52346  -4826244.73443  23590067.0864                   23590066.5394
 -15018369.44147 -11687614.42245  20750416.3284                   20750411.9534
 11  8 20  0 39  0.0000000  0  9G17G10G09G30G04G12G05G25G02
   8260045.17646   6458897.56343  23664950.7034                   23664950.5944
 -14093241.53147 -10970306.00845  21071472.3054                   21071469.6644
   6399819.91445   5075691.84842  24314664.9304                   24314666.1254
  -6661950.81646  -5181922.73843  23188593.4924                   23188591.7934
  -2900095.53946  -2226274.43444  22361732.9144                   22361732.8484
 -15416480.21947 -12002553.80945  21181669.8984                   21181667.4414
 -14961213.51247 -11591266.03945  21480530.4534                   21480528.7154
  -6271720.38746  -4878037.82443  23577418.1334                   23577418.6954
 -14983356.69947 -11660331.77045  20757079.7504                   20757074.7154
 11  8 20  0 39 30.0000000  0  9G17G10G09G30G04G12G05G25G02
   8343771.54746   6524138.84443  23680884.1414                   23680882.8364
 -14044082.07847 -10931999.93045  21080826.5864                   21080824.3834
   6507066.94945   5159260.82442  24335072.6174                   24335073.8014
  -6723589.38346  -5229952.76643  23176863.9144                   23176862.3204
  -2794184.59846  -2143746.44543  22381887.1334                   22381886.5514
 -15434220.34047 -12016377.28945  21178294.6954                   21178291.3244
 -15012247.49247 -11631032.73045  21470818.6334                   21470817.5634
  -6337897.64146  -4929604.46143  23564824.4454                   23564825.8714
 -14948075.67247 -11632840.05945  20763793.2974                   20763788.8134
 11  8 20  0 40  0.0000000  0  9G17G10G09G30G04G12G05G25G02
   8427703.00446   6589539.89143  23696855.5784                   23696854.4574
 -13994274.05547 -10893188.46945  21090305.0634                   21090302.7544
   6614387.74645   5242887.32442  24355495.6484                   24355496.6684
  -6784832.84846  -5277674.91443  23165210.1024                   23165208.0664
  -2688175.93046  -2061142.31243  22402059.8834                   22402059.6334
 -15451424.85947 -12029783.40245  21175020.1884                   21175017.9804
 -15062844.01647 -11670458.54745  21461190.3984                   21461188.4384
  -6403774.65246  -4980937.19143  23552288.4924                   23552289.4454
 -14912520.59447 -11605134.80145  20770559.0944                   20770554.3054
 11  8 20  0 40 30.0000000  0  9G17G10G09G30G04G12G05G25G02
   8511840.49646   6655101.55143  23712867.2424                   23712866.0664
 -13943817.75047 -10853871.84445  21099905.2504                   21099904.6954
   6721779.42245   5326569.02742  24375931.7034                   24375934.0594
  -6845678.02046  -5325086.68443  23153630.5554                   23153629.7774
  -2582070.40246  -1978462.70743  22422252.1414                   22422250.8134
 -15468091.31647 -12042770.24245  21171849.2344                   21171846.3444
 -15112999.90247 -11709540.98845  21451645.8204                   21451644.5554
  -6469348.35946  -5032033.56243  23539810.8594                   23539811.1884
 -14876691.68747 -11577216.16845  20777377.1724                   20777373.1724
 11  8 20  0 41  0.0000000  0  9G17G10G09G30G04G12G05G25G02
   8596179.48046   6720820.19143  23728915.8524                   23728914.9304
 -13892718.87947 -10814054.53945  21109630.2194                   21109628.5704
   6829233.76245   5410299.55942  24396380.3054                   24396382.0234
  -6906126.69146  -5372189.52743  23142127.6804                   23142126.8134
  -2475874.38346  -1895712.57444  22442460.6334                   22442458.9264
 -15484222.92247 -12055340.32045  21168778.9454                   21168776.3874
 -15162717.26247 -11748281.75045  21442185.1094                   21442183.0434
  -6534620.62946  -5082895.05543  23527389.8674                   23527390.5554
 -14840595.20747 -11549089.04345  20784246.8594                   20784242.0594
 11  8 20  0 41 30.0000000  0  9G17G10G09G30G04G12G05G25G02
   8680713.61746   6786690.86743  23745002.4614                   23745001.0044
 -13840985.11347 -10773742.50845  21119475.1484                   21119472.6764
   6936741.09045   5494071.39842  24416837.6724                   24416840.2344
  -6966183.27046  -5418986.81243  23130700.2734                   23130698.3324
  -2369596.29746  -1812898.48444  22462684.6334                   22462683.1254
 -15499824.54747 -12067497.43745  21165810.6884                   21165807.6254
 -15212000.55547 -11786684.26245  21432806.6484                   21432805.2934
  -6599595.81646  -5133525.00843  23515025.1724                   23515026.3094
 -14804239.25447 -11520759.73045  20791164.4844                   20791160.0554
 11  8 20  0 42  0.0000000  0  9G17G10G09G30G04G12G05G25G02
   8765455.57446   6852723.55943  23761128.5864                   23761126.1844
 -13788605.39847 -10732927.13345  21129442.1414                   21129440.3714
   7044310.41845   5577891.55142  24437306.9614                   24437310.2624
  -7025832.65246  -5465466.80543  23119349.5004                   23119346.8554
  -2263225.58646  -1730012.24644  22482926.1174                   22482924.7894
 -15514882.31647 -12079230.76245  21162945.0784                   21162942.3634
 -15260834.73847 -11824736.81245  21423514.4614                   21423511.8014
  -6664259.01646  -5183911.90243  23502720.0234                   23502720.9574
 -14767613.04747 -11492219.82445  20798134.0704                   20798129.9614
 11  8 20  0 42 30.0000000  0  9G17G10G09G30G04G12G05G25G02
   8850401.50046   6918915.14542  23777292.8594                   23777290.5704
 -13735584.82047 -10691612.39844  21139532.1644                   21139529.8834
   7151934.08645   5661754.03142  24457788.3984                   24457789.8754
  -7085076.34846  -5511630.70343  23108074.5474                   23108073.2464
  -2156768.14846  -1647058.41043  22503184.1484                   22503183.2894
 -15529398.77347 -12090542.28545  21160182.8284                   21160179.9774
 -15309221.96147 -11862441.09445  21414306.3444                   21414304.3244
  -6728611.67246  -5234056.77043  23490475.2034                   23490474.8484
 -14730722.00447 -11463473.55145  20805154.3834                   20805149.5594
 11  8 20  0 43  0.0000000  0  9G17G10G09G30G04G12G05G25G02
   8935560.24645   6985272.56642  23793498.2584                   23793496.2034
 -13681915.54347 -10649792.16845  21149744.5394                   21149742.7854
   7259617.32045   5745662.96942  24478279.2734                   24478280.9304
  -7143902.94546  -5557469.52343  23096881.0864                   23096879.8524
  -2050216.87946  -1564031.48844  22523461.2034                   22523459.5664
 -15543363.41847 -12101423.81245  21157525.6254                   21157522.4844
 -15357150.89147 -11899788.25845  21405185.7114                   21405183.6764
  -6792642.57446  -5283950.95743  23478289.4614                   23478290.1644
 -14693558.77347 -11434515.18745  20812226.1174                   20812221.8164
 11  8 20  0 43 30.0000000  0  9G17G10G09G30G04G12G05G25G02
   9020925.44545   7051790.89843  23809742.0634                   23809739.8244
 -13627605.71147 -10607472.81245  21160079.3754                   21160077.6484
   7367350.50845   5829610.79742  24498780.3134                   24498781.8134
  -7202316.84046  -5602986.84843  23085765.1724                   23085763.1294
  -1943580.38346  -1480938.12544  22543752.9224                   22543750.9494
 -15556781.37947 -12111879.36345  21154971.6174                   21154969.1414
 -15404626.17647 -11936781.94145  21396150.8444                   21396149.6844
  -6856356.00846  -5333597.73843  23466165.0704                   23466165.6294
 -14656130.88347 -11405350.59445  20819348.3834                   20819344.3484
 11  8 20  0 44  0.0000000  0  9G17G10G09G30G04G12G05G25G02
   9106490.34445   7118464.79343  23826025.1804                   23826022.6604
 -13572663.55547 -10564660.73845  21170534.7114                   21170533.0704
   7475123.50845   5913589.64842  24519287.4454                   24519290.3524
  -7260322.36146  -5648185.85743  23074727.1254                   23074725.3754
  -1836867.18446  -1397785.00843  22564060.1804                   22564058.5984
 -15569658.27047 -12121913.30145  21152521.8054                   21152518.3164
 -15451652.42647 -11973425.71145  21387202.1644                   21387200.7194
  -6919756.29346  -5383000.49643  23454100.8204                   23454101.8164
 -14618446.96147 -11375986.48845  20826519.1254                   20826514.9064
 11  8 20  0 44 30.0000000  0  9G17G10G09G30G04G12G05G25G02
   7616836.71945   5957695.66843  23542552.2814                   23542552.6954
 -15092509.42647 -11748956.21945  20881318.0704                   20881315.4924
   6007514.82045   4769998.37142  24240012.4144                   24240013.3324
  -8893340.01246  -6920667.14143  22763974.4694                   22763971.8404
  -3305496.52346  -2542171.53943  22284588.0554                   22284587.2194
 -17157414.35947 -13359125.82845  20850381.7344                   20850379.0864
 -17073650.39147 -13237320.18045  21078546.4144                   21078544.5354
  -8558264.39146  -6659760.03143  23142303.0704                   23142302.9144
 -16155928.52747 -12574024.06245  20533947.2114                   20533942.2114
 11  8 20  0 45  0.0000000  0  9G17G10G09G30G04G12G05G25G02
   7702799.60945   6024679.68843  23558910.6724                   23558910.6214
 -15036308.11747 -11705162.99245  20892012.1334                   20892010.3524
   6115354.67245   4854029.30142  24260534.0314                   24260534.6374
  -8950523.01646  -6965225.29343  22753092.1094                   22753090.1024
  -3198636.96546  -2458904.35944  22304922.9304                   22304921.5824
 -17169206.48447 -13368314.48045  20848137.2814                   20848134.8284
 -17119773.99247 -13273260.60945  21069769.3754                   21069767.8914
  -8621032.94546  -6708670.51243  23130358.4304                   23130359.1564
 -16117738.68047 -12544265.74245  20541213.5084                   20541209.1524
 11  8 20  0 45 30.0000000  0  9G17G10G09G30G04G12G05G25G02
   7788972.41445   6091827.26643  23575309.4454                   23575308.7304
 -14979468.99647 -11660872.76645  20902828.4924                   20902826.4964
   6223233.53145   4938090.64542  24281061.8204                   24281064.1054
  -9007280.59846  -7009451.92643  22742291.7894                   22742289.8874
  -3091696.46546  -2375574.09443  22325273.4844                   22325272.1334
 -17180443.37947 -13377070.49245  20845999.0634                   20845996.3444
 -17165432.35547 -13308838.50445  21061080.5864                   21061079.0824
  -8683471.47346  -6757323.85943  23118476.8134                   23118477.1954
 -16079287.79747 -12514303.99645  20548530.6174                   20548526.2704
 11  8 20  0 46  0.0000000  0  9G17G10G09G30G04G12G05G25G02
   7875343.46545   6159129.29343  23591746.5944                   23591744.8754
 -14922004.87547 -11616095.52345  20913763.4454                   20913761.2304
   6331136.31645   5022170.61342  24301595.3444                   24301598.6524
  -9063621.80946  -7053354.12143  22731570.3984                   22731568.3834
  -2984688.17646  -2292191.03943  22345636.2194                   22345635.2464
 -17191135.53947 -13385402.03945  20843964.6174                   20843961.8014
 -17210634.73047 -13344061.09045  21052478.6884                   21052477.5864
  -8745589.04746  -6805727.12943  23106656.8524                   23106656.6374
 -16040588.75047 -12484148.87945  20555895.3834                   20555890.6564
 11  8 20  0 46 30.0000000  0  9G17G10G09G30G04G12G05G25G02
   7961917.02045   6226589.15643  23608219.4384                   23608218.7384
 -14863913.15647 -11570829.24645  20924817.7814                   20924816.1484
   6439063.93845   5106269.96542  24322133.6414                   24322137.1804
  -9119540.21146  -7096926.85243  22720929.5394                   22720927.5904
  -2877609.91446  -2208753.45343  22366012.6254                   22366011.5664
 -17201277.23847 -13393304.63745  20842035.1024                   20842032.1994
 -17255375.35947 -13378923.86745  21043964.9774                   21043963.5204
  -8807379.26246  -6853875.29743  23094897.8594                   23094898.3284
 -16001639.00447 -12453798.42245  20563306.6564                   20563302.3364
 11  8 20  0 47  0.0000000  0  9G17G10G09G30G04G12G05G25G02
   8048697.32046   6294210.13743  23624733.7274                   23624732.4264
 -14805191.06647 -11525071.76245  20935992.7034                   20935991.0664
   6547016.97745   5190389.09442  24342676.2974                   24342679.9924
  -9175029.28946  -7140165.07043  22710370.6564                   22710367.9844
  -2770459.28146  -2125259.46543  22386403.2584                   22386401.1684
 -17210862.81647 -13400773.90245  20840210.5864                   20840207.8594
 -17299647.59447 -13413421.66445  21035539.8914                   21035538.6294
  -8868835.53146  -6901763.24244  23083202.6024                   23083204.0204
 -15962435.41847 -12423250.15245  20570767.0474                   20570762.9304
 11  8 20  0 47 30.0000000  0  9G17G10G09G30G04G12G05G25G02
   8135682.90645   6361991.07043  23641286.5634                   23641285.7664
 -14745841.57047 -11478825.40645  20947285.9144                   20947284.1134
   6654990.67245   5274524.27342  24363224.4774                   24363226.6134
  -9230088.02346  -7183067.91043  22699892.3054                   22699890.0864
  -2663239.26646  -2041711.42243  22406806.3984                   22406804.6134
 -17219892.69147 -13407810.16445  20838491.8524                   20838489.0594
 -17343450.67247 -13447553.88345  21027204.5554                   21027203.0274
  -8929956.77746  -6949390.14543  23071572.1804                   23071572.5124
 -15922981.30547 -12392506.67645  20578274.7584                   20578270.4534
 11  8 20  0 48  0.0000000  0  9G17G10G09G30G04G12G05G25G02
   8222867.78945   6429927.26643  23657877.6334                   23657876.8054
 -14685872.23047 -11432096.05545  20958698.2344                   20958695.5124
   6762975.348 5                  24383773.344
  -9284720.03946  -7225638.28143  22689496.4694                   22689495.0664
  -2555957.83246  -1958115.50043  22427221.7114                   22427219.9694
 -17228371.67247 -13414417.14545  20836879.0474                   20836876.0594
 -17386788.94547 -13481323.92245  21018958.0554                   21018955.6214
  -8990746.78146  -6996758.93743  23060004.4064                   23060004.3014
 -15883283.81247 -12361573.54745  20585828.7504                   20585824.3834
 11  8 20  0 48 30.0000000  0  9G17G10G09G30G04G12G05G25G02
   8310255.75845   6498021.71543  23674506.6884                   23674506.6374
 -14625281.39846 -11384882.41044  20970228.0944                   20970226.1644
   6870971.613 5                  24404325.031
  -9338919.50846  -7267871.55943  22679182.3524                   22679180.8094
  -2448613.21946  -1874470.35943  22447648.1484                   22447647.3204
 -17236294.84047 -13420591.02345  20835371.3134                   20835367.9844
 -17429657.10947 -13514727.64545  21010800.1334                   21010798.6644
  -9051199.57046  -7043864.95743  23048500.2344                   23048500.4304
 -15843340.86347 -12330449.14845  20593429.8834                   20593425.2584
 11  8 20  0 49  0.0000000  0  9G17G10G09G30G04G12G05G25G02
   8397849.69145   6566276.64143  23691175.8594                   23691175.6454
 -14564067.68047 -11337183.41844  20981875.7734                   20981874.7664
   6978978.78915                  24424878.109
  -9392680.97346  -7309763.57843  22668952.2034                   22668950.2664
  -2341204.04346  -1790774.90244  22468087.0164                   22468086.0904
 -17243657.99247 -13426328.53145  20833969.3284                   20833966.9924
 -17472049.44147 -13547760.57445  21002733.1884                   21002730.9304
  -9111309.84446  -7090704.08643  23037061.7584                   23037061.9614
 -15803151.66447 -12299132.87145  20601077.1174                   20601072.4614
 11  8 20  0 49 30.0000000  0  9G17G10G09G30G04G12G05G25G02
   8485645.45745   6634688.92643  23707883.3054                   23707882.6564
 -14502236.28547 -11289003.11344  20993643.0084                   20993640.9414
   7086989.762 5                  24445431.000
  -9446006.01246  -7351315.51643  22658805.1334                   22658802.8014
  -2233735.89546  -1707033.51243  22488538.8834                   22488536.8594
 -17250463.77747 -13431631.74245  20832674.5784                   20832672.1414
 -17513967.80947 -13580424.19945  20994756.4224                   20994754.4654
  -9171078.95346  -7137277.38743  23025687.6414                   23025687.8874
 -15762721.12547 -12267628.54745  20608771.2894                   20608766.3324
 11  8 20  0 50  0.0000000  0  9G17G10G09G30G04G12G05G25G02
   8573644.55146   6703259.57443  23724627.7734                   23724627.5744
 -14439787.77346 -11240341.93444  21005526.3834                   21005524.5084
   7195002.129 5                  24465986.195
  -9498891.32846  -7392524.79743  22648740.6334                   22648738.9884
  -2126209.51246  -1623246.73843  22508999.1724                   22508998.2544
 -17256710.19147 -13436499.05945  20831485.5474                   20831482.9694
 -17555409.78547 -13612716.60945  20986869.8754                   20986868.3794
  -9230503.68046  -7183582.31243  23014379.1884                   23014379.9024
 -15722049.54347 -12235936.39845  20616510.8364                   20616506.3164
 11  8 20  0 50 30.0000000  0  9G17G10G09G30G04G12G05G25G02
   8661848.56646   6771989.93043  23741413.2114                   23741412.1604
 -14376722.47747 -11191200.15644  21017527.4304                   21017525.1994
   7303014.035 5                  24486539.156
  -9551333.03546  -7433388.41443  22638761.5784                   22638760.3834
  -2018625.04746  -1539414.69144  22529472.3914                   22529471.0394
 -17262394.01247 -13440928.00045  20830404.1024                   20830401.8874
 -17596371.84847 -13644635.04345  20979075.3984                   20979073.3204
  -9289579.96946  -7229615.71943  23003137.4774                   23003138.4104
 -15681136.79747 -12204056.31645  20624295.9384                   20624291.3404
 11  8 20  0 51  0.0000000  0  9G17G10G09G30G04G12G05G25G02
   8750246.75846   6840871.61343  23758234.0314                   23758233.7344
 -14313052.64546 -11141587.30544  21029643.9304                   21029641.6214
   7411011.76245   5863630.71953  24507090.3914                   24507092.2234
  -9603339.35946  -7473912.77343  22628865.3054                   22628863.6484
  -1910994.78946  -1455546.99243  22549954.0554                   22549952.3444
 -17267525.14847 -13444926.27345  20829427.8524                   20829424.9414
 -17636862.42647 -13676186.10245  20971369.5554                   20971368.5084
  -9348316.19946  -7275384.15644  22991960.5784                   22991960.9924
 -15639995.41447 -12171998.09045  20632124.6254                   20632120.6254
 11  8 20  0 51 30.0000000  0  9G17G10G09G30G04G12G05G25G02
   8838848.32046   6909911.74243  23775094.4694                   23775093.5594
 -14248770.78147 -11091497.53944  21041876.3674                   21041873.6994
   7519001.18445   5947778.18043  24527640.5084                   24527643.3134
  -9654898.90246  -7514088.99243  22619054.2114                   22619051.8834
  -1803311.18046  -1371637.71143  22570445.8444                   22570443.7234
 -17272092.95347 -13448485.59445  20828558.1644                   20828555.9224
 -17676870.35547 -13707361.07045  20963756.8754                   20963755.1294
  -9406700.81246  -7320878.60543  22980850.7274                   22980850.8404
 -15598617.48047 -12139755.53545  20639998.9224                   20639994.2974
 11  8 20  0 52  0.0000000  0  9G17G10G09G30G04G12G05G25G02
   8927653.81645   6979110.80943  23791993.8444                   23791992.4964
 -14183878.09447 -11040931.81644  21054224.4694                   21054222.3554
   7626979.38745   6031916.91842  24548187.5784                   24548191.1724
  -9706008.65246  -7553914.73043  22609327.6884                   22609325.9804
  -1695575.25846  -1287687.68043  22590946.7274                   22590945.2074
 -17276095.94547 -13451604.80145  20827797.1644                   20827794.1954
 -17716392.92647 -13738157.83645  20956235.7424                   20956233.8444
  -9464730.69946  -7366096.65243  22969807.7424                   22969807.8484
 -15557003.77047 -12107329.26245  20647917.5634                   20647913.1604
 11  8 20  0 52 30.0000000  0  9G17G10G09G30G04G12G05G25G02
   9016666.87945   7048471.62143  23808932.6644                   23808931.8054
 -14118372.66047 -10989888.61744  21066689.8754                   21066687.6174
   7734946.75845   6116047.22743  24568732.7814                   24568735.6884
  -9756662.86746  -7593385.48043  22599688.4304                   22599686.9884
  -1587785.19946  -1203695.43043  22611458.2344                   22611456.5394
 -17279529.52047 -13454280.30545  20827143.4224                   20827141.1134
 -17755424.79347 -13768572.22745  20948808.2974                   20948806.1804
  -9522400.14546  -7411033.82844  22958833.5704                   22958833.8714
 -15515152.16047 -12074717.60545  20655882.0164                   20655877.4964
 11  8 20  0 53  0.0000000  0  9G17G10G09G30G04G12G05G25G02
   9105887.84846   7117994.43842  23825911.8834                   23825909.9924
 -14052256.01247 -10938369.13744  21079271.0314                   21079269.0784
   7842900.10945   6200166.61743  24589275.2274                   24589279.0594
  -9806858.93046  -7632499.25844  22590136.6954                   22590134.8874
  -1479942.36746  -1119662.07043  22631979.4224                   22631978.2074
 -17282392.15247 -13456510.93445  20826598.7344                   20826595.8874
 -17793963.89847 -13798602.64545  20941474.1724                   20941472.3444
  -9579706.32446  -7455687.95344  22947928.0314                   22947929.0004
 -15473063.85947 -12041921.52045  20663891.0234                   20663886.7194
 11  8 20  0 53 30.0000000  0  9G17G10G09G30G04G12G05G25G02
   9195311.10545   7187674.90243  23842928.0314                   23842926.3674
 -13985534.90647 -10886378.67244  21091967.7814                   21091965.5474
   7950830.88745   6284268.39143  24609814.7894                   24609816.5704
  -9856599.81246  -7671258.34443  22580670.4694                   22580669.4454
  -1372053.43446  -1035592.78943  22652511.0004                   22652509.1644
 -17284687.97747 -13458299.87545  20826161.6174                   20826158.7624
 -17832013.42647 -13828251.57845  20934234.1724                   20934232.2114
  -9636652.26646  -7500061.35244  22937091.4534                   22937092.2154
 -15430745.74247 -12008946.36345  20671943.9144                   20671939.5234
 11  8 20  0 54  0.0000000  0  9G17G10G09G30G04G12G05G25G02
   9284932.03145   7257509.36343  23859981.6804                   23859980.6374
 -13918216.50447 -10833922.77044  21104778.1724                   21104776.0394
   8058730.78945   6368346.14542  24630346.9614                   24630349.8554
  -9905888.34046  -7709664.93443  22571291.8914                   22571290.4144
  -1264125.32046   -951492.98043  22673049.1954                   22673047.8164
 -17286420.95747 -13459650.25045  20825832.3834                   20825829.2934
 -17869576.68047 -13857521.60245  20927085.4924                   20927083.9454
  -9693240.59846  -7544156.12144  22926323.6094                   22926323.9264
 -15388204.04347 -11975796.98445  20680039.3754                   20680035.2424
 11  8 20  0 54 30.0000000  0  9G17G10G09G30G04G12G05G25G02
   9374761.67245   7327506.51642  23877076.4064                   23877075.1914
 -13850291.68447 -10780994.32844  21117703.3674                   21117701.5744
   8166607.87145   6452406.12142  24650876.0634                   24650879.5164
  -9954710.93446  -7747708.47343  22562001.5314                   22561999.6294
  -1156148.29746   -867355.05543  22693596.9304                   22693594.9304
 -17287578.95747 -13460552.58245  20825611.8134                   20825608.9264
 -17906640.55547 -13886402.49245  20920032.5944                   20920031.0744
  -9749457.78946  -7587961.68043  22915626.1094                   22915626.0634
 -15345428.96547 -11942465.75445  20688178.9534                   20688175.3444
 11  8 20  0 55  0.0000000  0  9G17G10G09G30G04G12G05G25G02
   9464792.81345   7397660.56642  23894208.0864                   23894206.6684
 -13781769.34447 -10727600.29345  21130743.5394                   21130740.5354
   8274451.89145   6536440.28142  24671397.6804                   24671401.8634
 -10003072.42246  -7785392.73043  22552798.3594                   22552796.5274
  -1048130.83646   -783185.62543  22714151.9064                   22714150.0164
 -17288167.96147 -13461011.55145  20825499.9614                   20825496.8674
 -17943210.15647 -13914898.23045  20913073.7344                   20913071.6024
  -9805308.52346  -7631481.70744  22904997.8984                   22904998.3554
 -15302429.27347 -11908959.49645  20696361.5394                   20696357.3674
 11  8 20  0 55 30.0000000  0  9G17G10G09G30G04G12G05G25G02
                                  23911379.0864                   23911378.5164
 -13712648.14147 -10673739.59445  21143896.2274                   21143894.0394
   8382262.65245   6620448.54342  24691914.4774                   24691917.9884
 -10050967.30146  -7822713.37143  22543684.0554                   22543682.0824
   -940071.46946   -698983.52343  22734714.6644                   22734713.4654
 -17288183.86347 -13461023.93445  20825496.6954                   20825493.8204
 -17979280.64547 -13943005.06645  20906209.8914                   20906207.9384
  -9860787.23046  -7674711.83644  22894440.1954                   22894440.7424
 -15259203.05947 -11875276.71945  20704587.8204                   20704583.5234
 11  8 20  0 56  0.0000000  0  9G17G10G09G30G04G12G05G25G02
   9645467.89145   7538446.27342  23928590.3134                   23928588.9144
 -13642931.34047 -10619414.79745  21157163.3914                   21157161.0984
   8490035.44945   6704427.19142  24712423.3204                   24712426.4104
 -10098395.16046  -7859670.10943  22534659.1484                   22534656.8634
   -831973.41846   -614751.29343  22755284.6484                   22755283.3754
 -17287627.12147 -13460590.10945  20825603.0704                   20825600.0634
 -18014851.88347 -13970722.86745  20899440.5314                   20899438.8554
  -9915893.23446  -7717651.51644  22883954.1644                   22883954.7504
 -15215753.23447 -11841419.71545  20712855.2274                   20712851.3634
 11  8 20  0 56 30.0000000  0  9G17G10G09G30G04G12G05G25G02
   9736113.35245   7609079.10942  23945838.3914                   23945837.9844
 -13572617.77747 -10564625.01244  21170542.8674                   21170541.4774
   8597770.47345   6788376.37542  24732924.3364                   24732927.3834
 -10145350.39546  -7896258.59043  22525723.9774                   22525721.9694
   -723834.80146   -530487.43743  22775863.0084                   22775861.5944
 -17286493.82847 -13459707.02745  20825818.7114                   20825815.5044
 -18049918.76247 -13998047.67245  20892767.8284                   20892765.9384
  -9970621.00846  -7760296.52744  22873539.0634                   22873540.0824
 -15172078.20747 -11807387.22345  20721167.2194                   20721162.7234
 11  8 20  0 57  0.0000000  0  9G17G10G09G30G04G12G05G25G02
   9826960.63345   7679869.15642  23963126.5474                   23963125.1024
 -13501714.15247 -10509375.41045  21184035.5004                   21184033.8404
   8705459.63745   6872289.92642  24753417.3204                   24753418.3984
 -10191835.57046  -7932480.77743  22516877.5704                   22516875.7704
   -615662.03146   -446196.98443  22796447.5394                   22796446.3874
 -17284787.75447 -13458377.62145  20826142.7504                   20826140.2774
 -18084484.13347 -14024981.68045  20886190.6724                   20886188.2624
 -10024972.86346  -7802648.59844  22863197.1254                   22863197.0314
 -15128184.12947 -11773184.04345  20729519.8834                   20729515.1374
 11  8 20  0 57 30.0000000  0  9G17G10G09G30G04G12G05G25G02
   9918010.01645   7750816.65643  23980451.7504                   23980452.1054
 -13430221.63347 -10453666.92245  21197640.7034                   21197638.4184
   8813099.87945   6956165.09842  24773901.6254                   24773902.1054
 -10237847.91046  -7968334.52743  22508121.3204                   22508119.7814
   -507456.07446   -361880.67243  22817037.6484                   22817036.9654
 -17282507.41847 -13456600.73845  20826576.9614                   20826573.7194
 -18118545.69147 -14051523.11345  20879708.5784                   20879706.6684
 -10078946.00446  -7844705.55944  22852926.2114                   22852926.3284
 -15084071.76247 -11738810.77745  20737914.1564                   20737909.3754
 11  8 20  0 58  0.0000000  0  9G17G10G09G30G04G12G05G25G02
  10009262.23045   7821922.24242  23997817.3674                   23997816.4024
 -13358141.87147 -10397500.86744  21211356.9304                   21211354.7344
   8920689.21145   7040000.89142  24794375.2344                   24794376.8404
 -10283384.41846  -8003817.49244  22499456.5784                   22499454.8324
   -399217.73446   -277539.10243  22837635.6884                   22837634.3404
 -17279651.16047 -13454375.07045  20827120.5164                   20827117.6174
 -18152100.94947 -14077670.02345  20873322.9614                   20873320.6454
 -10132537.24646  -7886464.94544  22842728.1724                   22842728.2584
 -15039741.58647 -11704267.77745  20746349.9144                   20746344.7544
 11  8 20  0 58 30.0000000  0  9G17G10G09G30G04G12G05G25G02
  10100716.60546   7893185.38343  24015221.3914                   24015219.3834
 -13285477.27746 -10340879.09044  21225183.4694                   21225182.5394
   9028223.96515                  24814837.906
 -10328443.52046  -8038928.46944  22490881.9064                   22490880.6094
   -290948.87546   -193173.81243  22858238.2034                   22858237.0044
 -17276218.58247 -13451700.34045  20827773.7274                   20827770.6254
 -18185148.55547 -14103421.37145  20867034.1254                   20867032.4924
 -10185744.84846  -7927925.40244  22832602.4384                   22832603.3364
 -14995195.98047 -11669556.92245  20754826.8134                   20754822.3834
 11  8 20  0 59  0.0000000  0  9G17G10G09G30G04G12G05G25G02
  10192368.58646   7964602.46543  24032662.4774                   24032661.5354
 -13212234.03946 -10283806.42645  21239122.3674                   21239120.3834
   9135696.398 5                  24835290.117
 -10373027.47346  -8073669.17643  22482398.4614                   22482395.8014
   -182655.47346   -108789.37943  22878846.3444                   22878844.7544
 -17272213.25047 -13448579.30145  20828536.4304                   20828533.1524
 -18217691.54747 -14128779.51245  20860841.3054                   20860839.5984
 -10238570.99646  -7969088.60243  22822550.4304                   22822550.5904
 -14950440.62147 -11634682.62145  20763342.7344                   20763338.8244
 11  8 20  0 59 30.0000000  0  9G17G10G09G30G04G12G05G25G02
  10284223.87145   8036177.96543  24050140.2344                   24050141.4964
 -13138408.75046 -10226280.20344  21253170.3444                   21253168.5664
   9243109.199 5                  24855727.922
 -10417128.43746  -8108033.55143  22474005.9774                   22474004.2114
    -74333.43746    -24382.66043  22899459.6094                   22899457.9184
 -17267628.60547 -13445006.85245  20829408.1884                   20829405.4654
 -18249722.54347 -14153738.68745  20854746.1954                   20854743.9454
 -10291007.64146  -8009948.31644  22812572.4064                   22812572.1054
 -14905470.89547 -11599641.27345  20771900.3914                   20771895.7974
 11  8 20  1  0  0.0000000  0  8G17G10G30G04G12G05G25G02
  10376285.99246   8107914.61743  24067660.1884                   24067659.6844
 -13063999.90646 -10168299.26644  21267330.6024                   21267328.3054
 -10460740.90646  -8142017.28143  22465706.9534                   22465704.6604
     34019.30946     60048.00843  22920078.5084                   22920076.8244
 -17262460.64847 -13440979.87145  20830391.8204                   20830388.9884
 -18281236.31247 -14178294.83245  20848749.3984                   20848747.5314
 -10343049.10546  -8050500.07444  22802668.5004                   22802669.7504
 -14860285.21547 -11564431.65645  20780499.5554                   20780494.8954
 11  8 20  1  0 30.0000000  0  8G17G10G30G04G12G05G25G02
  10468552.98446   8179810.92243  24085217.9924                   24085217.6884
 -12989011.76647 -10109866.92644  21281599.7274                   21281597.5554
 -10503864.43046  -8175620.03143  22457499.9064                   22457499.0554
    142399.70746    144500.23043  22940702.1024                   22940701.1724
 -17256710.33247 -13436499.10245  20831485.4454                   20831483.3244
 -18312232.81647 -14202447.91845  20842850.5004                   20842848.6684
 -10394694.82846  -8090743.48444  22792841.1564                   22792841.4144
 -14814886.37147 -11529055.93745  20789138.3284                   20789133.8284
 11  8 20  1  1  0.0000000  0  8G17G10G30G04G12G05G25G02
  10561027.71146   8251869.14843  24102815.4304                   24102814.1524
 -12913442.82446 -10050982.02344  21295979.6414                   21295978.0084
 -10546493.80146  -8208837.71543  22449388.0784                   22449386.7624
    250809.37946    228975.25043  22961331.4614                   22961331.4534
 -17250373.66047 -13431561.43045  20832691.8054                   20832689.0784
 -18342707.64147 -14226194.48845  20837052.2504                   20837049.8954
 -10445939.37946  -8130674.29744  22783090.0394                   22783090.0664
 -14769272.70747 -11493512.82445  20797818.5554                   20797813.2664
 11  8 20  1  1 30.0000000  0  8G17G10G30G04G12G05G25G02
  10653709.86746   8324088.93843  24120452.3444                   24120450.8094
 -12837295.81646  -9991646.69544  21310470.2274                   21310468.2814
 -10588627.30146  -8241668.99643  22441370.4844                   22441368.7274
    359246.16846    313471.42643  22981967.0554                   22981965.8204
 -17243450.17647 -13426166.50045  20834009.4454                   20834006.5744
 -18372659.13347 -14249533.28145  20831351.2424                   20831350.2974
 -10496780.90646  -8170291.05544  22773414.6414                   22773415.0084
 -14723446.55947 -11457804.13345  20806538.5864                   20806534.3204
 11  8 20  1  2  0.0000000  0  8G17G10G30G04G12G05G25G02
  10746598.08246   8396469.34443  24138129.1334                   24138127.8204
 -12760574.47346  -9931863.82044  21325070.4144                   21325067.8164
 -10630264.12546  -8274113.27343  22433447.3054                   22433445.4144
    467707.54746    397986.79343  23002606.3524                   23002605.5164
 -17235940.94147 -13420315.14845  20835438.2504                   20835435.6764
 -18402087.19147 -14272464.19545  20825751.7034                   20825750.1054
 -10547218.44546  -8209593.01644  22763817.0944                   22763817.2154
 -14677410.18047 -11421931.62945  20815299.1024                   20815294.7584
 11  8 20  1  2 30.0000000  0  8G17G10G30G04G12G05G25G02
  10839688.21546   8469007.07843  24155843.6484                   24155842.9064
 -12683284.31246  -9871637.71544  21339778.2194                   21339775.5274
 -10671405.94146  -8306171.82043  22425618.1334                   22425616.8284
    576188.39846    482517.27743  23023249.2424                   23023247.9884
 -17227848.73447 -13414009.53145  20836977.9144                   20836975.1254
 -18430994.31647 -14294989.18445  20820250.9224                   20820249.3874
 -10597253.48446  -8248581.34444  22754295.2424                   22754295.8244
 -14631168.60947 -11385899.23045  20824098.4614                   20824094.2424
 11  8 20  1  3  0.0000000  0  8G17G10G30G04G12G05G25G02
  10932983.13745   8541704.38343  24173596.8284                   24173596.5204
 -12605424.92646  -9810968.06644  21354594.3204                   21354591.9884
 -10712047.93746  -8337840.89543  22417884.2584                   22417883.0044
    684689.98046    567063.93443  23043896.4844                   23043895.2154
 -17219169.82447 -13407246.73445  20838629.5314                   20838626.8634
 -18459375.41047 -14317104.29345  20814850.2734                   20814847.9264
 -10646880.82846  -8287251.97344  22744851.6334                   22744851.9534
 -14584720.38347 -11349705.81245  20832937.0704                   20832932.8554
 11  8 20  1  3 30.0000000  0  8G17G10G30G04G12G05G25G02
  11026474.71545   8614554.90642  24191385.9774                   24191386.3674
 -12527006.56646  -9749862.85544  21369516.4534                   21369514.5744
 -10752195.96946  -8369125.05944  22410244.9774                   22410242.5234
    793203.21946    651619.65243  23064546.0474                   23064544.9654
 -17209911.87147 -13400032.74645  20840391.1724                   20840388.3284
 -18487237.46147 -14338814.94145  20809548.5394                   20809546.2664
 -10696106.39146  -8325609.53944  22735483.7344                   22735484.2584
 -14538074.85947 -11313358.64145  20841813.8524                   20841809.5044
 11  8 20  1  4  0.0000000  0  8G17G10G30G04G12G05G25G02
  11120165.20345   8687560.43442  24209215.4694                   24209214.6454
 -12448028.98046  -9688321.88344  21384545.1884                   21384543.4184
 -10791845.70346  -8400020.94944  22402699.9144                   22402697.9144
    901728.96146    736185.11343  23085197.0394                   23085197.1094
 -17200071.84847 -13392365.19945  20842264.1804                   20842261.5514
 -18514576.59447 -14360118.12945  20804345.9064                   20804343.5824
 -10744925.49646  -8363650.39844  22726194.4384                   22726194.6134
 -14491231.21547 -11276857.10245  20850727.3674                   20850723.3834
 11  8 20  1  4 30.0000000  0  8G17G10G30G04G12G05G25G02
  11214051.76645   8760718.79342  24227081.8834                   24227080.7154
 -12368497.52746  -9626349.32844  21399679.2194                   21399677.5864
 -10830997.87146  -8430529.12944  22395249.5314                   22395246.8794
   1010263.14146    820757.14543  23105851.0474                   23105849.9264
 -17189652.02347 -13384245.84845  20844246.4614                   20844243.7544
 -18541393.81247 -14381014.62945  20799242.2894                   20799240.7504
 -10793338.66046  -8401374.90644  22716981.4534                   22716981.6484
 -14444193.70747 -11240204.49645  20859679.3444                   20859674.1214
 11  8 20  1  5  0.0000000  0  8G17G10G30G04G12G05G25G02
  11308142.59445   8834036.32442  24244987.8834                   24244985.1134
 -12288406.09847  -9563940.42644  21414920.4224                   21414918.8484
 -10869642.26646  -8460641.62143  22387894.6024                   22387893.1914
   1118812.51246    905340.98443  23126508.3364                   23126505.5394
 -17178643.45747 -13375667.75045  20846341.5634                   20846338.6604
 -18567679.57447 -14401497.00445  20794240.9064                   20794238.5824
 -10841335.41846  -8438774.97744  22707847.8364                   22707848.1804
 -14396955.12547 -11203395.19545  20868667.9924                   20868663.4534
 11  8 20  1  5 30.0000000  0  8G17G10G30G04G12G05G25G02
                                  24262929.1174                   24262929.1764
 -12207761.06646  -9501100.14144  21430267.0474                   21430264.5824
 -10907781.12546  -8490360.19144  22380637.5944                   22380636.1914
   1227371.55546    989932.42643  23147165.3984                   23147163.4024
 -17167049.70347 -13366633.66045  20848548.1644                   20848544.8244
 -18593436.69147 -14421567.44145  20789338.9924                   20789337.3054
 -10888917.74246  -8475852.07844  22698793.0554                   22698793.3554
 -14349521.16047 -11166433.65645  20877694.3594                   20877689.6684
 11  8 20  1  6  0.0000000  0  8G17G10G30G04G12G05G25G02
  11496928.55155   8981142.15652  24280911.8984                   24280911.1644
 -12126558.92246  -9437825.74644  21445718.6094                   21445717.0354
 -10945406.56246  -8519678.67243  22373476.8914                   22373475.6644
   1335944.85946   1074534.93843  23167825.5704                   23167824.6604
 -17154864.69547 -13357138.85245  20850866.7584                   20850863.6644
 -18618657.66847 -14441220.12145  20784539.1334                   20784537.4774
 -10936077.67646  -8512600.05544  22689819.3134                   22689819.3954
 -14301887.53947 -11129316.55145  20886758.7274                   20886754.2114
 11  8 20  1  6 30.0000000  0  8G17G10G30G04G12G05G25G02
  11591615.59845   9054924.27342  24298930.4534                   24298929.7854
 -12044815.79746  -9374129.81644  21461274.0234                   21461272.4574
 -10982530.55946  -8548606.42643  22366412.7504                   22366411.3554
   1444517.10545   1159136.61743  23188487.5634                   23188485.6334
 -17142101.76647 -13347193.71145  20853295.3594                   20853292.6094
 -18643355.09847 -14460464.83245  20779840.0704                   20779837.9534
 -10982826.84846  -8549027.95744  22680922.6174                   22680923.1564
 -14254069.24247 -11092055.53945  20895857.5704                   20895853.8594
 11  8 20  1  7  0.0000000  0  8G17G10G30G04G12G05G25G02
  11686492.65245   9128854.43842  24316983.6954                   24316983.8244
 -11962535.32046  -9310015.15244  21476931.1334                   21476929.5824
 -11019152.16446  -8577142.71543  22359443.8364                   22359442.7544
   1553086.15645   1243735.82443  23209146.7734                   23209145.9064
 -17128761.70747 -13336798.86345  20855833.4924                   20855831.2344
 -18667528.62547 -14479301.31245  20775239.7424                   20775237.5124
 -11029164.06646  -8585134.84444  22672104.7504                   22672105.9224
 -14206068.74247 -11054652.54745  20904992.0004                   20904987.6884
 11  8 20  1  7 30.0000000  0  8G17G10G30G04G12G05G25G02
  11781571.27345   9202941.60942  24335076.4304                   24335075.9454
 -11879708.69947  -9245474.93744  21492693.1094                   21492691.4224
 -11055258.43446  -8605277.44143  22352573.3524                   22352571.9264
   1661661.65646   1328340.07043  23229808.4614                   23229807.8674
 -17114832.43447 -13325944.89845  20858484.6724                   20858481.9384
 -18691165.84447 -14497719.89145  20770741.6804                   20770740.0984
 -11075076.12946  -8620910.45744  22663368.7734                   22663368.7734
 -14157876.28947 -11017099.98445  20914163.1954                   20914158.4774
 11  8 20  1  8  0.0000000  0  8G17G10G30G04G12G05G25G02
  11876843.87945   9277180.05542  24353206.5784                   24353206.5664
 -11796344.97747  -9180516.19944  21508557.3524                   21508554.6024
 -11090854.10546  -8633014.27343  22345799.9304                   22345797.8484
   1770235.73045   1412943.23443  23250469.9384                   23250468.1764
 -17100320.43047 -13314636.84845  20861245.6484                   20861243.2704
 -18714271.93447 -14515724.59445  20766345.3444                   20766342.9144
 -11120567.50046  -8656358.24644  22654711.3364                   22654711.8484
 -14109499.94547 -10979404.13345  20923369.2194                   20923364.3284
 11  8 20  1  8 30.0000000  0  8G17G10G30G04G12G05G25G02
  11972312.27345   9351570.90242  24371373.8984                   24371374.0044
 -11712444.43446  -9115139.14544  21524522.8054                   21524520.2934
 -11125935.29746  -8660350.22343  22339124.4844                   22339122.1994
   1878809.01645   1497545.77743  23271129.4924                   23271128.6884
 -17085223.59847 -13302873.09045  20864119.0004                   20864116.0084
 -18736843.69147 -14533312.93745  20762049.5084                   20762047.3714
 -11165634.06246  -8691475.00444  22646135.9454                   22646135.9574
 -14060938.76647 -10941564.25045  20932610.1334                   20932605.3204
 11  8 20  1  9  0.0000000  0  8G17G10G30G04G12G05G25G02
  12067976.05945   9426114.18842  24389578.1644                   24389578.1374
 -11628009.87146  -9049345.98844  21540590.1644                   21540587.3954
 -11160500.46546  -8687284.09443  22332546.4614                   22332545.0234
   1987379.94146   1582146.43443  23291790.5704                   23291789.9774
 -17069541.63747 -13290653.38745  20867103.2664                   20867099.9304
 -18758880.07047 -14550484.10545  20757856.0394                   20757854.4184
 -11210273.91846  -8726259.28144  22637641.2424                   22637641.0514
 -14012194.75047 -10903581.89845  20941885.4224                   20941881.0984
 11  8 20  1  9 30.0000000  0  8G17G10G30G04G12G05G25G02
  12163835.43045   9500809.74642  24407818.4844                   24407819.4844
 -11543043.45747  -8983138.38744  21556758.1094                   21556755.9264
 -11194547.26646  -8713814.02044  22326067.4144                   22326065.6524
   2095947.56345   1666744.54743  23312450.2194                   23312449.8754
 -17053273.57047 -13277976.97745  20870198.6484                   20870196.1024
 -18780379.14547 -14567236.59045  20753764.8754                   20753762.9774
 -11254484.44146  -8760708.98844  22629227.9924                   22629228.3484
 -13963268.51647 -10865457.55945  20951195.4534                   20951191.5124
 11  8 20  1 10  0.0000000  0  8G17G10G30G04G12G05G25G02
  12259885.11745   9575653.66042  24426096.5314                   24426097.0784
 -11457552.65646  -8916522.17644  21573026.4384                   21573024.6914
 -11228079.14146  -8739942.70244  22319686.3134                   22319684.7544
   2204505.69145   1751335.26243  23333108.0474                   23333107.5354
 -17036424.31247 -13264847.69145  20873404.9614                   20873402.2734
 -18801345.24647 -14583573.77345  20749775.4534                   20749773.2774
 -11298268.82046  -8794826.66044  22620896.3914                   22620896.4654
 -13914166.64147 -10827196.35945  20960539.4844                   20960535.2544
 11  8 20  1 10 30.0000000  0  9G17G10G29G30G04G12G05G25G02
  12356133.31345   9650652.20742  24444412.5864                   24444412.6214
 -11371531.74646  -8849492.89544  21589396.5704                   21589394.1054
  -3225584.59415                  24756041.477
 -11261085.68746  -8765662.06644  22313405.6414                   22313403.8244
   2313061.62546   1835924.26643  23353765.7114                   23353764.8984
 -17018985.51247 -13251259.02045  20876723.6174                   20876721.2034
 -18821768.12147 -14599487.65645  20745888.8524                   20745886.7734
 -11341616.46946  -8828603.99644  22612647.8364                   22612647.5634
 -13864882.07047 -10788792.80145  20969917.9064                   20969914.0314
 11  8 20  1 11  0.0000000  0  9G17G10G29G30G04G12G05G25G02
  12452573.91846   9725800.71543  24462765.8204                   24462764.4144
 -11284988.61346  -8782056.68744  21605864.5084                   21605862.1334
  -3278553.305 5                  24745963.750
 -11293571.03546  -8790975.28144  22307223.7424                   22307222.5904
   2421607.99246   1920505.86343  23374421.6804                   23374419.6884
 -17000962.35547 -13237215.00845  20880153.1644                   20880150.4774
 -18841652.42247 -14614981.87945  20742105.0474                   20742102.8404
 -11384530.98846  -8862043.83244  22604481.3754                   22604481.4614
 -13815421.68047 -10750252.23045  20979329.5864                   20979325.1804
 11  8 20  1 11 30.0000000  0  9G17G10G29G30G04G12G05G25G02
  12549196.97745   9801091.36743  24481152.7424                   24481150.8794
 -11197935.64846  -8714223.19544  21622430.3284                   21622428.5904
  -3331606.082 5                  24735866.625
 -11325542.84446  -8815888.32844  22301140.0004                   22301137.8524
   2530134.11746   2005071.64543  23395072.8444                   23395072.4694
 -16982364.37947 -13222723.06245  20883692.1724                   20883689.4104
 -18861006.97747 -14630063.32045  20738421.3754                   20738419.7734
 -11427019.91446  -8895152.05144  22596395.3594                   22596396.2544
 -13765796.74647 -10711583.45345  20988773.3444                   20988768.9924
 11  8 20  1 12  0.0000000  0  9G17G10G29G30G04G12G05G25G02
  12646009.23445   9876529.46142  24499575.0234                   24499573.9494
 -11110368.44546  -8645988.98444  21639094.1884                   21639091.7464
  -3384735.652 5                  24725757.461
 -11356992.75046  -8840394.73044  22295154.2974                   22295152.8984
   2638645.78946   2089626.18043  23415722.5864                   23415722.1914
 -16963184.64547 -13207777.82045  20887342.4924                   20887339.4844
 -18879823.66847 -14644725.65245  20734841.0314                   20734838.9454
 -11469074.44146  -8927921.77744  22588393.8134                   22588393.1524
 -13716001.54347 -10672781.99645  20998249.0554                   20998244.0944
 11  8 20  1 12 30.0000000  0  9G17G10G29G30G04G12G05G25G02
  12743011.78545   9952115.83642  24518033.0704                   24518032.3164
 -11022288.15646  -8577354.98844  21655854.7584                   21655852.5554
                                  24715631.688
 -11387917.47746  -8864491.88744  22289270.6094                   22289268.1414
   2747142.96146   2174169.40243  23436368.8914                   23436368.1024
 -16943421.17647 -13192377.71945  20891102.9924                   20891099.8014
 -18898099.73047 -14658966.70345  20731363.1174                   20731361.4184
 -11510691.02046  -8960350.24244  22580473.6174                   22580473.5864
 -13666036.09447 -10633847.89145  21007757.3984                   21007752.5514
 11  8 20  1 13  0.0000000  0  9G17G10G29G30G04G12G05G25G02
  12840200.28145  10027847.07042  24536526.7114                   24536527.0474
 -10933701.31646  -8508326.25444  21672711.8834                   21672710.3674
  -3491223.78915                  24705493.672
 -11418319.21546  -8888181.53544  22283484.9304                   22283483.2304
   2855620.59046   2258697.39143  23457011.5084                   23457010.9104
 -16923077.96147 -13176525.86345  20894974.2814                   20894970.8714
 -18915838.34847 -14672788.96145  20727988.2274                   20727985.6524
 -11551871.57046  -8992438.93444  22572637.1564                   22572637.3954
 -13615905.53547 -10594785.09845  21017296.3674                   21017291.8444
 11  8 20  1 13 30.0000000  0  9G17G10G29G30G04G12G05G25G02
  12937581.01245  10103728.14542  24555059.7894                   24555057.3134
 -10844603.85246  -8438899.62544  21689666.7504                   21689664.4184
  -3544578.734 5                  24695339.648
 -11448189.81246  -8911457.32044  22277800.2664                   22277798.7544
   2964083.99645   2343214.35543  23477650.9774                   23477650.2624
 -16902148.20747 -13160216.95745  20898956.5554                   20898953.9494
 -18933031.59447 -14686186.26245  20724715.5234                   20724713.8984
 -11592607.42246  -9024181.12944  22564885.2734                   22564886.0514
 -13565604.67647 -10555589.61745  21026868.5234                   21026863.6804
 11  8 20  1 14  0.0000000  0  9G17G10G29G30G04G12G05G25G02
  13035157.20345  10179761.44542  24573626.7504                   24573625.1844
 -10754994.87946  -8369074.43744  21706718.5004                   21706717.5084
  -3598001.754 5                  24685173.398
 -11477524.04746  -8934315.14144  22272218.6954                   22272217.2464
   3072535.51245   2427722.02742  23498288.6094                   23498287.4414
 -16880628.66047 -13143448.48445  20903052.6334                   20903048.9144
 -18949674.80147 -14699154.94545  20721548.9924                   20721546.6564
 -11632893.09446  -9055572.53144  22557219.0164                   22557219.3754
 -13515131.28147 -10516259.69145  21036473.9694                   21036469.5234
 11  8 20  1 14 30.0000000  0  9G17G10G29G30G04G12G05G25G02
  11557510.68055   9028348.59452  24292440.0474                   24292439.2034
 -12240295.29346  -9526451.36744  21424075.3984                   21424074.0234
  -5226915.54345  -4060822.69153  24375200.4694                   24375200.1414
 -13081742.46146 -10184355.44544  21966944.7344                   21966944.6374
   1605556.39845   1284621.40642  23219131.5784                   23219130.9534
 -18433939.15647 -14353820.29345  20607466.5554                   20607464.2304
 -20541188.87547 -15939295.75845  20418693.9224                   20418691.6994
 -13248149.22746 -10314213.63744  22249845.6414                   22249846.4384
 -15039906.05947 -11704395.87145  20746318.3674                   20746313.6484
 11  8 20  1 15  0.0000000  0  9G17G10G29G30G04G12G05G25G02
  11655472.98845   9104682.83242  24311081.9224                   24311081.6884
 -12149675.38746  -9455838.44944  21441319.7734                   21441318.3484
  -5280477.77045  -4102559.47742  24365008.9614                   24365007.5084
 -13110003.16446 -10206376.75844  21961567.8984                   21961566.3524
   1713976.47345   1369104.59442  23239764.3524                   23239762.7854
 -18411243.60547 -14336135.44945  20611785.7424                   20611782.6024
 -20556733.36747 -15951408.32045  20415735.7344                   20415734.0634
 -13287532.77746 -10344902.09444  22242351.8984                   22242351.3834
 -14989095.53147 -11664803.25045  20755987.7034                   20755982.7034
 11  8 20  1 15 30.0000000  0  9G17G10G29G30G04G12G05G25G02
  11753626.58645   9181166.13342  24329761.5944                   24329759.2774
 -12058555.26246  -9384835.74244  21458659.5704                   21458658.1254
  -5334110.03945  -4144350.83643  24354802.0704                   24354801.7704
 -13137725.66846 -10227978.71544  21956292.7344                   21956291.1724
   1822378.29745   1453573.49242  23260391.6174                   23260390.8634
 -18387960.94147 -14317993.10945  20616216.5554                   20616213.3404
 -20571727.66847 -15963092.15245  20412882.5084                   20412879.8954
 -13326463.20747 -10375237.46944  22234943.7274                   22234943.3244
 -14938119.31647 -11625081.50845  20765687.7894                   20765683.1374
 11  8 20  1 16  0.0000000  0  9G17G10G29G30G04G12G05G25G02
  11851970.85945   9257798.02042  24348473.8284                   24348473.9534
 -11966937.71146  -9313445.45344  21476094.3444                   21476092.3244
  -5387812.61346  -4186196.88743  24344583.3444                   24344582.1174
 -13164908.75046 -10249160.32044  21951119.5944                   21951118.0944
   1930760.04346   1538026.77043  23281016.4924                   23281015.2544
 -18364091.72347 -14299393.71545  20620758.3444                   20620755.3404
 -20586171.66047 -15974347.18045  20410134.0704                   20410131.3794
 -13364939.07046 -10405218.65644  22227621.5704                   22227622.2584
 -14886979.28947 -11585232.12545  20775419.4774                   20775414.9804
 11  8 20  1 16 30.0000000  0  9G17G10G29G30G04G12G05G25G02
  11950507.03145   9334579.41842  24367224.4534                   24367224.9224
 -11874823.78946  -9241668.38344  21493622.7664                   21493620.5864
  -5441583.32446  -4228096.10543  24334350.7344                   24334350.0634
 -13191549.39846 -10269919.25844  21946050.4304                   21946048.7114
   2039122.23446   1622464.82843  23301637.6724                   23301635.7774
 -18339634.18747 -14280335.90245  20625412.4384                   20625409.4774
 -20600062.44947 -15985171.14545  20407490.5314                   20407488.4964
 -13402956.73446 -10434842.78944  22220387.5164                   22220387.5634
 -14835675.09847 -11545254.83645  20785181.6174                   20785177.6174
 11  8 20  1 17  0.0000000  0  8G10G29G30G04G12G05G25G02
 -11782217.96146  -9169508.00044  21511245.1334                   21511243.4774
  -5495423.52746  -4270049.43743  24324105.7114                   24324104.4224
 -13217647.56246 -10290255.50844  21941084.6254                   21941082.2194
   2147462.24646   1706885.62143  23322254.2034                   23322251.4264
 -18314590.21547 -14260821.11745  20630177.8914                   20630175.0314
 -20613401.03547 -15995564.80545  20404952.3524                   20404949.8204
 -13440515.91446 -10464109.67644  22213240.1414                   22213240.3094
 -14784209.67247 -11505151.89545  20794976.3284                   20794971.5044
 11  8 20  1 17 30.0000000  0  8G10G29G30G04G12G05G25G02
 -11689119.02046  -9096963.38344  21528960.8914                   21528959.1844
  -5549328.88346  -4312053.54743  24313847.2664                   24313847.4064
 -13243197.94946 -10310164.89144  21936222.1724                   21936219.7114
   2255782.41446   1791290.93443  23342866.7974                   23342864.9804
 -18288956.15647 -14240846.52345  20635056.2344                   20635053.1724
 -20626182.57847 -16005524.41445  20402519.8204                   20402517.5474
 -13477610.97747 -10493014.91044  22206181.3984                   22206181.2464
 -14732580.37147 -11464921.26245  20804800.5634                   20804795.8594
 11  8 20  1 18  0.0000000  0  8G10G29G30G04G12G05G25G02
 -11595532.39146  -9024038.73044  21546769.5864                   21546767.5234
  -5603301.30945  -4354109.99643  24303576.8594                   24303576.3594
 -13268201.34046 -10329648.03144  21931464.3134                   21931462.2934
   2364079.75046   1875678.47743  23363474.6024                   23363473.2344
 -18262734.25447 -14220413.87145  20640045.9454                   20640043.3134
 -20638408.49647 -16015051.07045  20400193.1024                   20400190.9184
 -13514242.16846 -10521558.68744  22199209.9534                   22199210.2584
 -14680790.63747 -11424565.61745  20814655.8284                   20814651.2734
 11  8 20  1 18 30.0000000  0  8G10G29G30G04G12G05G25G02
 -11501452.28946  -8950729.57444  21564673.2274                   21564671.1454
  -5657332.26245  -4396212.01642  24293294.9844                   24293294.4694
 -13292647.99246 -10348697.37544  21926811.4924                   21926810.2774
   2472361.15246   1960053.59843  23384080.0394                   23384078.8984
 -18235916.37947 -14199516.82045  20645149.5474                   20645146.4184
 -20650069.61347 -16024137.62545  20397974.6334                   20397972.0634
 -13550399.37147 -10549733.11744  22192329.6484                   22192329.8754
 -14628833.80147 -11384079.76245  20824543.1724                   20824538.3984
 11  8 20  1 19  0.0000000  0  8G10G29G30G04G12G05G25G02
 -11406890.01246  -8877044.68444  21582667.8054                   21582665.2194
  -5711429.69145  -4438365.79342  24283001.2894                   24283000.0474
 -13316544.99646 -10367318.42644  21922264.4304                   21922262.9844
   2580617.07446   2044408.84042  23404679.6094                   23404680.2114
 -18208511.42247 -14178162.30145  20650364.4924                   20650361.3674
 -20661173.34847 -16032789.84445  20395861.5164                   20395859.0704
 -13586089.34447 -10577543.49644  22185538.0784                   22185538.2344
 -14576719.55147 -11343471.24645  20834459.5394                   20834455.6684
 11  8 20  1 19 30.0000000  0  8G10G29G30G04G12G05G25G02
 -11311847.36346  -8802985.48844  21600754.0314                   21600752.1294
  -5765592.60245  -4480570.69943  24272693.4614                   24272692.5274
 -13339890.01646 -10385509.34844  21917821.8134                   21917820.1524
   2688847.19946   2128744.01642  23425275.4224                   23425274.6914
 -18180518.44947 -14156349.59445  20655691.4774                   20655688.2894
 -20671718.77747 -16041007.03145  20393854.7504                   20393852.0514
 -13621309.24647 -10604987.57044  22178835.9924                   22178836.1914
 -14524448.11347 -11302740.25045  20844406.2504                   20844402.1564
 11  8 20  1 20  0.0000000  0  8G10G29G30G04G12G05G25G02
 -11216320.23446  -8728548.77344  21618931.5944                   21618929.4654
  -5819813.55545  -4522820.68443  24262375.7894                   24262373.8834
 -13362674.75046 -10403263.67644  21913486.0784                   21913484.9184
   2797057.54346   2213063.75443  23445867.5314                   23445865.3284
 -18151930.80947 -14134073.50445  20661131.1174                   20661128.4104
 -20681697.94147 -16048782.95745  20391955.2194                   20391952.9574
 -13656050.36747 -10632058.58244  22172225.4304                   22172225.3284
 -14472013.83647 -11261882.37145  20854384.2504                   20854380.3714
 11  8 20  1 20 30.0000000  0  8G10G29G30G04G12G05G25G02
 -11120319.25446  -8653742.81244  21637200.6884                   21637198.3164
  -5874099.72745  -4565121.53542  24252045.5234                   24252043.5164
 -13384905.64846 -10420586.45744  21909256.0004                   21909253.9574
   2905239.21146   2297361.11742  23466453.2894                   23466451.2734
 -18122757.01247 -14111340.66445  20666681.8204                   20666680.1414
 -20691117.92647 -16056123.16445  20390162.7114                   20390160.7704
 -13690318.65247 -10658761.14144  22165704.2194                   22165704.0004
 -14419425.96947 -11220904.80545  20864391.7194                   20864387.3364
 11  8 20  1 21  0.0000000  0  8G10G29G30G04G12G05G25G02
 -11023845.08246  -8578568.14544  21655558.1414                   21655556.5434
  -5928448.66845  -4607471.28542  24241703.3594                   24241701.2814
 -13406579.10946 -10437474.87144  21905130.7584                   21905129.5274
   3013393.22346   2381637.01643  23487034.6334                   23487033.3594
 -18092994.80147 -14088149.32845  20672346.6334                   20672343.6564
 -20699975.46547 -16063025.10245  20388477.0634                   20388474.7584
 -13724110.07847 -10685092.12944  22159273.4774                   22159273.3874
 -14366683.63347 -11179806.87545  20874428.0394                   20874423.6994
 11  8 20  1 21 30.0000000  0  8G10G29G30G04G12G05G25G02
 -10926905.23846  -8503030.60944  21674005.2664                   21674003.2624
  -5982864.67245  -4649873.32842  24231348.0784                   24231346.1134
 -13427698.45346 -10453931.49644  21901111.8754                   21901110.9104
   3121513.77746   2465886.75443  23507608.9304                   23507609.0084
 -18062649.14147 -14064503.35545  20678120.9064                   20678118.1564
 -20708274.80547 -16069492.09445  20386898.4454                   20386895.5864
 -13757427.66047 -10711053.87144  22152933.5314                   22152933.7274
 -14313792.50847 -11138593.00845  20884493.1484                   20884488.8364
 11  8 20  1 22  0.0000000  0  8G10G29G30G04G12G05G25G02
 -10829499.50446  -8427130.03544  21692541.2974                   21692538.8674
  -6037344.23845  -4692324.82842  24220981.1334                   24220978.7974
 -13448259.46946 -10469953.06244  21897200.1954                   21897198.0784
   3229602.89545   2550112.00442  23528178.5004                   23528177.6374
 -18031717.47347 -14040400.74645  20684007.1254                   20684004.4534
 -20716012.25447 -16075521.23045  20385425.4454                   20385423.7814
 -13790266.55546 -10736642.60944  22146683.9614                   22146684.3094
 -14260750.82447 -11097261.82445  20894586.6414                   20894582.1994
 11  8 20  1 22 30.0000000  0  8G10G29G30G04G12G05G25G02
 -10731631.85546  -8350869.53144  21711164.9534                   21711162.4534
  -6091887.90645  -4734826.37542  24210601.1644                   24210599.2734
 -13468261.87546 -10485539.33244  21893393.7114                   21893391.6524
   3337658.48445   2634311.09843  23548740.6024                   23548739.4614
 -18000201.43747 -14015842.80145  20690003.8834                   20690001.3324
 -20723188.09847 -16081112.76645  20384060.1884                   20384057.7974
 -13822626.02746 -10761857.77044  22140526.7344                   22140526.7464
 -14207561.06647 -11055815.26245  20904708.3754                   20904703.7304
 11  8 20  1 23  0.0000000  0  8G10G29G30G04G12G05G25G02
 -10633308.37546  -8274253.85244  21729875.0474                   21729872.6644
  -6146498.34445  -4777379.75442  24200208.3594                   24200207.4734
 -13487707.43746 -10500691.71144  21889693.2894                   21889691.5634
   3445676.39545   2718480.80542  23569294.2664                   23569294.6954
 -17968104.39147 -13990832.10945  20696112.2114                   20696109.5904
 -20729804.59847 -16086268.44945  20382800.8594                   20382798.7154
 -13854507.50846 -10786700.45344  22134459.9924                   22134459.8364
 -14154227.66447 -11014256.77345  20914857.3594                   20914853.0984
 11  8 20  1 23 30.0000000  0  8G10G29G30G04G12G05G25G02
 -10534525.98846  -8197280.55944  21748673.1024                   21748670.5594
  -6201169.26245  -4819980.41443  24189805.7274                   24189805.1054
 -13506589.23046 -10515404.78944  21886099.7344                   21886098.0634
   3553661.41445   2802624.97742  23589844.6334                   23589844.0044
 -17935420.96947 -13965364.50845  20702331.7664                   20702328.9224
 -20735856.21147 -16090983.94945  20381649.1094                   20381647.2544
 -13885903.47746 -10811164.83444  22128485.5084                   22128485.3014
 -14100745.91847 -10972582.68745  20925034.1954                   20925030.2154
 11  8 20  1 24  0.0000000  0  8G10G29G30G04G12G05G25G02
 -10435288.47746  -8119952.64144  21767556.5944                   21767554.6724
  -6255901.27345  -4862628.65643  24179390.8284                   24179389.9384
 -13524906.45346 -10529677.94144  21882614.2344                   21882613.2384
   3661612.09045   2886742.36742  23610385.9384                   23610386.7194
 -17902152.02747 -13939440.65245  20708662.4614                   20708659.5664
 -20741342.37547 -16095258.84845  20380605.2034                   20380603.1094
 -13916812.69547 -10835249.93044  22122603.8674                   22122603.8364
 -14047117.54747 -10930794.35545  20935239.6884                   20935235.5164
 11  8 20  1 24 30.0000000  0  8G10G29G30G04G12G05G25G02
 -10335601.14146  -8042274.21143  21786526.0944                   21786525.5164
  -6310695.38745  -4905325.33643  24168963.4454                   24168962.1174
 -13542660.62146 -10543512.34844  21879236.2034                   21879234.2274
   3769524.76646   2970830.17243  23630922.0474                   23630921.5314
 -17868300.58647 -13913062.90645  20715105.3204                   20715101.3444
 -20746265.17247 -16099094.75845  20379668.8674                   20379666.4344
 -13947236.07846 -10858956.44144  22116814.2504                   22116814.3324
 -13993346.30147 -10888894.68745  20945472.2894                   20945467.8914
 11  8 20  1 25  0.0000000  0  8G10G29G30G04G12G05G25G02
 -10235463.59846  -7964244.95744  21805581.9304                   21805580.1884
  -6365548.76246  -4948068.19943  24158526.1024                   24158523.8364
 -13559847.43746 -10556904.66844  21875965.4774                   21875963.6844
   3877401.37946   3054889.86343  23651450.3444                   23651449.5984
 -17833864.41047 -13886229.52345  20721657.3204                   20721654.1994
 -20750621.13747 -16102488.98845  20378839.7424                   20378837.0234
 -13977168.99647 -10882280.76244  22111117.8834                   22111117.6914
 -13939430.48847 -10846882.36345  20955731.5474                   20955727.1024
 11  8 20  1 25 30.0000000  0  8G10G29G30G04G12G05G25G02
 -10134880.56646  -7885868.59043  21824723.3364                   21824719.7584
  -6420462.23446  -4990857.85943  24148076.0394                   24148074.1454
 -13576467.27746 -10569855.19144  21872803.0704                   21872801.3524
   3985239.66446   3138919.69143  23671971.1724                   23671970.4924
 -17798845.55147 -13858942.10945  20728321.1884                   20728318.0864
 -20754411.02047 -16105442.10545  20378118.4304                   20378115.9184
 -14006611.20747 -10905222.71944  22105515.6024                   22105515.6094
 -13885372.82047 -10804759.51245  20966018.6564                   20966013.7424
 11  8 20  1 26  0.0000000  0  8G10G29G30G04G12G05G25G02
 -10033859.60546  -7807150.95744  21843946.9064                   21843943.4494
  -6475439.93445  -5033697.58642  24137612.3594                   24137612.7424
 -13592523.66446 -10582366.66044  21869747.6414                   21869745.2734
   4093033.62146   3222914.97742  23692483.2814                   23692482.2234
 -17763249.01647 -13831204.54745  20735095.1414                   20735091.9384
 -20757639.26647 -16107957.59445  20377504.1484                   20377501.9454
 -14035565.78947 -10927784.70744  22100005.5004                   22100005.8404
 -13831179.12147 -10762530.66845  20976331.4144                   20976326.9884
 11  8 20  1 26 30.0000000  0  8G10G29G30G04G12G05G25G02
  -9932400.30546  -7728091.76244  21863253.3914                   21863251.2774
  -6530477.99645  -5076584.34843  24127140.3284                   24127138.1054
 -13608012.24246 -10594435.68744  21866800.1804                   21866797.8874
   4200785.97346   3306877.80542  23712988.5864                   23712985.7234
 -17727071.87547 -13803014.58645  20741978.8364                   20741976.3874
 -20760302.07047 -16110032.46945  20376997.3754                   20376994.8554
 -14064027.83247 -10949962.90644  22094588.7734                   22094589.2544
 -13776847.37147 -10720194.23445  20986670.6414                   20986666.0164
 11  8 20  1 27  0.0000000  0  8G10G29G30G04G12G05G25G02
  -9830499.08246  -7648688.23044  21882644.7894                   21882643.0594
  -6585569.30545  -5119512.59042  24116656.8364                   24116655.7074
 -13622925.13346 -10606056.12944  21863962.6484                   21863960.7504
   4308502.38346   3390812.67242  23733486.9064                   23733483.8094
 -17690308.52747 -13774367.82845  20748975.1414                   20748972.0514
 -20762392.38747 -16111661.26246  20376599.3444                   20376597.2544
 -14091988.97347 -10971750.78944  22089268.3754                   22089268.7424
 -13722371.80147 -10677745.75845  20997036.4064                   20997032.2344
 11  8 20  1 27 30.0000000  0  8G10G29G30G04G12G05G25G02
  -9728166.41446  -7568948.50044  21902118.1024                   21902116.0044
  -6640720.58646  -5162487.60542  24106162.0234                   24106160.7934
 -13637268.73846 -10617232.95744  21861232.5634                   21861231.3484
   4416174.38346   3474712.91042  23753975.5474                   23753972.4414
 -17652967.10947 -13745270.62545  20756081.1804                   20756077.7304
 -20763917.03947 -16112849.27745  20376309.0004                   20376306.9384
 -14119455.03147 -10993152.91045  22084042.2504                   22084041.9614
 -13667761.04747 -10635191.93445  21007428.9774                   21007424.2734
 11  8 20  1 28  0.0000000  0  8G10G29G30G04G12G05G25G02
  -9625401.52046  -7488871.98844  21921674.0634                   21921671.9304
  -6695927.97746  -5205506.30143  24095655.8754                   24095655.8164
 -13651038.51646 -10627962.63744  21858612.7194                   21858611.0824
   4523804.25446   3558580.32442  23774456.8594                   23774454.4534
 -17615044.52347 -13715720.56245  20763297.2504                   20763294.5434
 -20764872.09047 -16113593.44145  20376128.0784                   20376124.8164
 -14146420.97347 -11014165.31644  22078910.6414                   22078910.5984
 -13613013.13747 -10592531.23845  21017847.5164                   21017842.4924
 11  8 20  1 28 30.0000000  0  8G10G29G30G04G12G05G25G02
  -9522206.54746  -7408460.35544  21941311.1644                   21941309.6294
  -6751189.75445  -5248567.40243  24085140.0004                   24085139.0784
 -13664232.48046 -10638243.65244  21856101.8674                   21856099.7934
   4631392.60245   3642415.37542  23794930.0634                   23794928.2034
 -17576540.45747 -13685717.41045  20770624.3444                   20770621.4224
 -20765256.74647 -16113893.14845  20376053.7584                   20376052.0824
 -14172884.26247 -11034786.05144  22073874.7584                   22073874.5904
 -13558127.98847 -10549763.59845  21028291.1804                   21028287.1374
 11  8 20  1 29  0.0000000  0  8G10G29G30G04G12G05G25G02
  -9418587.91446  -7327718.59844  21961029.0704                   21961027.5394
  -6806508.96545  -5291673.25043  24074613.7894                   24074611.7504
 -13676853.02746 -10648077.83244  21853700.0474                   21853698.4144
   4738934.71145   3726214.39842  23815394.4924                   23815393.4804
 -17537459.00447 -13655264.33245  20778061.3674                   20778058.4224
 -20765073.96547 -16113750.70745  20376089.5164                   20376086.5744
 -14198846.75447 -11055016.54744  22068933.8914                   22068934.2854
 -13503110.20347 -10506892.60245  21038761.1804                   21038756.9614
 11  8 20  1 29 30.0000000  0  8G10G29G30G04G12G05G25G02
  -9314542.14146  -7246643.99644  21980828.6094                   21980826.5474
  -6861878.44145  -5334818.26643  24064076.5474                   24064075.4344
 -13688892.92246 -10657459.56644  21851409.1334                   21851407.0514
   4846436.03145   3809981.60942  23835851.2194                   23835850.4844
 -17497794.67647 -13624357.07045  20785609.3524                   20785606.3204
 -20764316.84047 -16113160.71945  20376233.4144                   20376230.8874
 -14224300.63747 -11074850.73445  22064090.8984                   22064090.5514
 -13447954.88347 -10463914.43445  21049256.3834                   21049252.4064
 11  8 20  1 30  0.0000000  0  8G10G29G30G04G12G05G25G02
  -9210073.85946  -7165240.14544  22000707.9454                   22000705.9804
  -6917298.95345  -5378003.03943  24053530.0084                   24053528.5664
 -13700352.60946 -10666389.18744  21849228.5004                   21849226.6334
   4953894.45345   3893715.43442  23856299.9064                   23856299.6884
 -17457549.72747 -13592997.37945  20793267.5634                   20793264.5594
 -20762986.61747 -16112124.16445  20376486.5394                   20376483.8134
 -14249245.77047 -11094288.49245  22059343.0474                   22059343.6174
 -13392663.99647 -10420830.63745  21059777.8134                   21059773.8014
 11  8 20  1 30 30.0000000  0  8G10G29G30G04G12G05G25G02
  -9105185.58646  -7083509.05544  22020667.1644                   22020665.3874
  -6972769.99646  -5421227.18743  24042975.9534                   24042972.8524
 -13711231.10546 -10674865.90644  21847158.6414                   21847156.1214
   5061309.01245   3977415.06242  23876740.7274                   23876741.4384
 -17416725.12147 -13561186.00045  20801036.2194                   20801032.7384
 -20761082.72347 -16110640.59045  20376848.5164                   20376846.1914
 -14273680.55947 -11113328.57845  22054694.1334                   22054693.6804
 -13337239.22347 -10377642.50845  21070324.9844                   21070320.7114
 11  8 20  1 31  0.0000000  0  8G10G29G30G04G12G05G25G02
  -8999884.18446  -7001456.02344  22040705.6414                   22040703.6134
  -7028294.48845  -5464493.00443  24032409.7894                   24032407.4414
 -13721531.07446 -10682891.86344  21845198.4924                   21845196.5474
   5168675.21145   4061077.04742  23897171.1414                   23897171.3324
 -17375325.06247 -13528926.21145  20808914.3524                   20808911.7664
 -20758609.18747 -16108713.13745  20377318.8754                   20377316.9304
 -14297607.25847 -11131972.73845  22050140.8834                   22050140.8634
 -13281685.35547 -10334353.78145  21080896.7584                   21080892.2274
 11  8 20  1 31 30.0000000  0  8G10G29G30G04G12G05G25G02
  -8894177.70346  -6919087.35544  22060821.2424                   22060818.6524
  -7083876.83245  -5507803.83243  24021830.8134                   24021830.2304
 -13731256.70346 -10690470.24244  21843347.6484                   21843345.7584
   5275987.20345   4144696.75442  23917591.2344                   23917591.9024
 -17333354.76647 -13496222.09045  20816901.2424                   20816898.4144
 -20755570.46547 -16106345.28545  20377897.4924                   20377894.9884
 -14321029.28547 -11150223.64845  22045683.4844                   22045683.9964
 -13226007.84847 -10290968.70345  21091491.4384                   21091487.4184
 11  8 20  1 32  0.0000000  0  8G10G29G30G04G12G05G25G02
  -8788066.10246  -6836402.98443  22081013.8914                   22081011.6094
  -7139512.76246  -5551156.43043  24011244.8834                   24011243.5744
 -13740403.72346 -10697597.77744  21841606.7584                   21841605.5744
   5383247.58245   4228276.24643  23938003.6254                   23938003.3834
 -17290812.45347 -13463072.24245  20824996.9924                   20824993.6954
 -20751962.95747 -16103534.21945  20378583.8524                   20378581.7504
 -14343941.90247 -11168077.61745  22041322.8984                   22041323.3014
 -13170204.66847 -10247485.70745  21102110.8754                   21102106.9964
 11  8 20  1 32 30.0000000  0  8G10G29G30G04G12G05G25G02
  -8681546.64846  -6753400.85543  22101283.4384                   22101280.9414
  -7195195.91045  -5594545.88743  24000648.6484                   24000647.8094
 -13748965.58246 -10704269.33244  21839977.6724                   21839975.9024
   5490461.11745   4311819.19143  23958406.2424                   23958405.2544
 -17247693.03947 -13429472.71145  20833202.0234                   20833199.3204
 -20747780.52747 -16100275.16045  20379379.7814                   20379377.3484
 -14366337.91447 -11185529.03145  22037062.1414                   22037061.4964
 -13114271.32047 -10203901.27345  21112754.0634                   21112749.8204
 11  8 20  1 33  0.0000000  0  8G10G29G30G04G12G05G25G02
  -8574627.28146  -6670087.09043  22121629.2034                   22121626.9344
  -7250930.80545  -5637975.64543  23990042.1414                   23990041.2114
 -13756946.67647 -10710488.34044  21838458.7814                   21838457.5274
   5597621.85246   4395321.02742  23978797.3834                   23978796.4024
 -17204002.75847 -13395428.33245  20841516.0314                   20841512.8834
 -20743028.68447 -16096572.40245  20380283.8754                   20380281.5514
 -14388221.15247 -11202580.88745  22032897.5554                   22032897.6454
 -13058214.14547 -10160220.34445  21123421.9774                   21123417.6604
 11  8 20  1 33 30.0000000  0  8G10G29G30G04G12G05G25G02
  -8467310.47746  -6586463.61743  22142050.6334                   22142049.0234
  -7306716.67245  -5681445.09043  23979426.6804                   23979425.7384
 -13764345.71946 -10716253.80944  21837050.3984                   21837049.1214
   5704729.52745   4478781.56643  23999179.8834                   23999178.4184
 -17159741.87147 -13360939.33245  20849938.1644                   20849935.7194
 -20737706.74647 -16092425.41445  20381296.5164                   20381294.0704
 -14409589.69947 -11219231.66844  22028831.0864                   22028830.9574
 -13002033.64547 -10116443.32045  21134112.5314                   21134108.4614
 11  8 20  1 34  0.0000000  0  8G10G29G30G04G12G05G25G02
  -8359598.10546  -6502531.92243  22162547.7344                   22162545.3364
  -7362550.88345  -5724952.23043  23968801.0314                   23968800.0944
 -13771160.74247 -10721564.19144  21835754.3364                   21835751.9024
   5811784.55145   4562201.00043  24019551.6254                   24019549.4534
 -17114910.11747 -13326005.50845  20858469.3914                   20858466.7384
 -20731813.11747 -16087832.95345  20382418.3674                   20382415.7464
 -14430440.92647 -11235479.35245  22024862.8754                   22024863.4224
 -12945729.78547 -10072570.18745  21144826.6334                   21144822.5394
 11  8 20  1 34 30.0000000  0  8G10G29G30G04G12G05G25G02
  -8251485.51646  -6418288.33243  22183120.4774                   22183119.2704
  -7418425.12145  -5768490.56243  23958168.4454                   23958167.9184
 -13777382.87147 -10726412.57844  21834569.9384                   21834567.8094
   5918794.24645   4645585.13742  24039914.5944                   24039913.5704
 -17069500.59847 -13290621.46545  20867110.5944                   20867107.8794
 -20725339.96947 -16082788.91046  20383650.2814                   20383647.8404
 -14450765.40247 -11251316.56244  22020995.1724                   22020995.5434
 -12889295.26647 -10028595.22745  21155566.2114                   21155561.8444
 11  8 20  1 35  0.0000000  0  8G10G29G30G04G12G05G25G02
  -8142983.61746  -6333741.42243  22203768.0474                   22203766.5314
  -7474346.52745  -5812065.69143  23947527.7034                   23947526.5514
 -13783019.50047 -10730804.73444  21833497.1484                   21833495.4494
   6025749.64545   4728926.96542  24060267.0554                   24060266.4024
 -17023522.36347 -13254794.27745  20875859.9224                   20875857.9104
 -20718295.22747 -16077299.46946  20384990.7344                   20384988.2464
 -14470569.87547 -11266748.58245  22017226.3984                   22017226.9104
 -12832739.57847  -9984525.86745  21166328.8204                   21166324.0124
 11  8 20  1 35 30.0000000  0  8G10G29G30G04G12G05G25G02
  -8034093.10546  -6248891.68744  22224489.8134                   22224488.0594
  -7530312.15645  -5855675.27043  23936877.7034                   23936875.9884
 -13788067.42646 -10734738.14844  21832536.1414                   21832535.0514
   6132652.50446   4812227.83643  24080610.1724                   24080608.9494
 -16976973.80947 -13218522.68445  20884718.3674                   20884715.5984
 -20710676.31247 -16071362.62546  20386440.6564                   20386438.2464
 -14489850.53147 -11281772.43444  22013557.7344                   22013557.7034
 -12776061.16447  -9940360.86745  21177113.6254                   21177109.4304
 11  8 20  1 36  0.0000000  0  8G10G29G30G04G12G05G25G02
  -7924815.06646  -6163739.98444  22245284.2894                   22245283.6054
  -7586319.48046  -5899317.32843  23926220.1724                   23926217.8674
 -13792524.09446 -10738210.84444  21831688.5394                   21831686.9144
   6239504.07846   4895488.75042  24100944.4924                   24100942.7584
 -16929854.29747 -13181806.18045  20893684.3834                   20893681.8554
 -20702481.37947 -16064976.92645  20387999.7274                   20387997.4654
 -14508604.11347 -11296385.57844  22009988.6804                   22009989.0784
 -12719259.13347  -9896099.53945  21187922.7344                   21187918.4144
 11  8 20  1 36 30.0000000  0  8G10G29G30G04G12G05G25G02
  -7815156.30546  -6078291.60544  22266151.6724                   22266150.4924
  -7642371.14845  -5942993.93043  23915553.1484                   23915552.3324
 -13796392.80146 -10741225.38744  21830952.2274                   21830950.8404
   6346299.51645   4978705.93842  24121267.1484                   24121266.4384
 -16882168.29347 -13144648.25445  20902759.1174                   20902756.5314
 -20693714.40647 -16058145.48846  20389667.8054                   20389665.4964
 -14526833.34847 -11310590.15644  22006519.2584                   22006520.0554
 -12662338.46947  -9851745.77745  21198754.1564                   21198750.2814
 11  8 20  1 37  0.0000000  0  8G10G29G30G04G12G05G25G02
  -7705112.87546  -5992543.50044  22287092.6954                   22287090.9184
  -7698459.43046  -5986699.03143  23904879.7584                   23904879.3324
 -13799665.87946 -10743775.82044  21830329.2734                   21830327.8014
   6453045.22745   5061884.37942  24141581.0474                   24141579.9734
 -16833910.67647 -13107044.92245  20911941.3594                   20911939.4774
 -20684368.41047 -16050862.85945  20391446.8524                   20391444.3834
 -14544529.82447 -11324379.59444  22003152.3364                   22003152.7504
 -12605292.88347  -9807294.66445  21209609.5704                   21209605.3874
 11  8 20  1 37 30.0000000  0  8G10G29G30G04G12G05G25G02
  -7594692.50846  -5906501.69144  22308104.9844                   22308103.1884
  -7754588.15246  -6030435.68043  23894199.4774                   23894198.5164
 -13802347.19546 -10745865.14144  21829819.5314                   21829817.4384
   6559735.97345   5145019.97342  24161883.2734                   24161882.5204
 -16785086.60247 -13069000.19945  20921232.9304                   20921230.5904
 -20674448.10547 -16043132.71946  20393334.3834                   20393331.6764
 -14561696.95747 -11337756.55544  21999885.9304                   21999885.6914
 -12548128.33647  -9762750.85945  21220487.1804                   21220483.5124
 11  8 20  1 38  0.0000000  0  8G10G29G30G04G12G05G25G02
  -7483900.44146  -5820170.23844  22329188.0634                   22329186.1564
  -7810758.53546  -6074204.77743  23883509.9384                   23883509.6214
 -13804438.31646 -10747494.57044  21829420.9304                   21829419.1994
   6666369.13345   5228110.71542  24182175.0474                   24182173.7774
 -16735699.41847 -13030516.68745  20930631.0474                   20930628.5664
 -20663955.38747 -16034956.53945  20395331.0474                   20395328.7234
 -14578335.43747 -11350721.58644  21996719.1954                   21996719.2734
 -12490847.74647  -9718116.63745  21231388.1644                   21231383.4614
 11  8 20  1 38 30.0000000  0  8G10G29G30G04G12G05G25G02
  -7372737.91046  -5733550.10243  22350341.4384                   22350339.6294
  -7866968.14546  -6118004.43743  23872813.7894                   23872812.7384
 -13805936.96546 -10748662.32444  21829136.3674                   21829134.5944
   6772945.24245   5311157.01242  24202453.0084                   24202454.3284
 -16685748.69547 -12991594.04745  20940135.9694                   20940133.7114
 -20652888.90247 -16026333.28145  20397436.4224                   20397434.2234
 -14594442.41847 -11363272.46144  21993654.3054                   21993654.1334
 -12433450.26247  -9673391.31245  21242310.0634                   21242305.6214
 11  8 20  1 39  0.0000000  0  8G10G29G30G04G12G05G25G02
  -7261205.44946  -5646641.71943  22371565.1884                   22371563.3754
  -7923213.56645  -6161831.98843  23862110.9924                   23862109.5234
 -13806840.06646 -10749366.03144  21828963.7504                   21828962.5434
   6879466.36745   5394160.48042  24222724.0234                   24222724.4804
 -16635232.78547 -12952231.01245  20949749.3364                   20949746.5274
 -20641246.25047 -16017261.05545  20399652.5234                   20399649.9884
 -14610014.23847 -11375406.32844  21990691.2344                   21990690.9774
 -12375934.33647  -9628573.69945  21253254.6334                   21253251.0474
 11  8 20  1 39 30.0000000  0  8G10G29G30G04G12G05G25G02
  -7149307.04346  -5559448.16843  22392858.7664                   22392857.0274
  -7979494.75446  -6205687.39543  23851401.3204                   23851399.8134
 -13807148.02347 -10749605.96944  21828906.0704                   21828903.8094
   6985931.15645   5477120.08242  24242984.5784                   24242983.0664
 -16584153.95347 -12912429.32845  20959469.2114                   20959466.8404
 -20629028.34047 -16007740.57846  20401977.2194                   20401974.8874
 -14625050.42647 -11387122.83245  21987829.3984                   21987830.2464
 -12318302.02347  -9583665.41445  21264222.9454                   21264218.2274
 11  8 20  1 40  0.0000000  0  8G10G29G30G04G12G05G25G02
  -7037045.44546  -5471971.60943  22414222.2274                   22414219.3794
  -8035810.54346  -6249569.80943  23840684.4304                   23840682.9184
 -13806859.96547 -10749381.48844  21828960.9224                   21828958.7814
   7092339.11755   5560035.27752  24263233.9924                   24263231.5274
 -16532512.87547 -12872189.52345  20969296.0554                   20969293.4304
 -20616235.21547 -15997771.88745  20404411.7974                   20404409.1604
 -14639549.56647 -11398420.84044  21985070.5704                   21985070.7814
 -12260553.86347  -9538666.84045  21275211.8284                   21275207.1994
 11  8 20  1 40 30.0000000  0  8G10G29G30G04G12G05G25G02
  -6924420.25446  -5384211.73443  22435653.6254                   22435651.6524
  -8092156.53546  -6293475.73443  23829961.8284                   23829961.3284
 -13805972.00847 -10748689.56644  21829129.2274                   21829127.1604
   7198693.27745   5642908.64542  24283470.5784                   24283469.6484
 -16480307.53947 -12831510.05545  20979230.8364                   20979227.7734
 -20602863.30547 -15987352.19945  20406956.3204                   20406953.9344
 -14653507.02047 -11409296.78944  21982414.9064                   21982414.8834
 -12202687.01647  -9493575.78545  21286223.1954                   21286218.9614
 11  8 20  1 41  0.0000000  0  8G10G29G30G04G12G05G25G02
  -6811443.68046  -5296178.04343  22457152.8984                   22457150.6684
  -8148541.18845  -6337411.76243  23819232.6174                   23819230.9924
 -13804492.71146 -10747536.85944  21829410.8444                   21829408.9964
   7304983.56245   5725732.21942  24303697.4064                   24303696.5164
 -16427548.28547 -12790398.94145  20989270.0554                   20989267.9304
 -20588922.06647 -15976488.87945  20409609.4534                   20409606.8634
 -14666930.73847 -11419756.81645  21979860.7114                   21979860.4384
 -12144712.04747  -9448400.48445  21297255.6094                   21297251.0944
 11  8 20  1 41 30.0000000  0  8G10G29G30G04G12G05G25G02
  -6698107.32446  -5207864.01643  22478720.3204                   22478717.0004
  -8204951.35946  -6381367.68043  23808497.1644                   23808496.6454
 -13802410.13746 -10745914.05944  21829807.3984                   21829805.3554
   7411221.24645   5808514.78142  24323913.7504                   24323912.2384
 -16374224.50047 -12748847.94145  20999417.0554                   20999414.9694
 -20574400.09447 -15965173.03545  20412372.5704                   20412370.2114
 -14679807.93447 -11429791.00444  21977410.1564                   21977409.7934
 -12086617.89147  -9403132.29745  21308310.4384                   21308306.2274
 11  8 20  1 42  0.0000000  0  8G10G29G30G04G12G05G25G02
  -6584422.19946  -5119278.16043  22500353.6174                   22500350.7624
  -8261394.75445  -6425349.47743  23797757.0554                   23797755.5124
 -13799732.00846 -10743827.21544  21830316.6884                   21830315.0824
   7517397.44545   5891249.48842  24344118.8914                   24344117.4144
 -16320346.20747 -12706864.85945  21009669.6254                   21009667.6414
 -20559306.27047 -15953411.59845  20415244.6414                   20415242.6764
 -14692145.80547 -11439404.91845  21975061.4384                   21975062.0004
 -12028413.59447  -9357778.29345  21319386.3984                   21319381.8204
 11  8 20  1 42 30.0000000  0  8G10G29G30G04G12G05G25G02
  -6470391.32046  -5030422.94943  22522052.0634                   22522050.4964
  -8317870.34846  -6469356.35943  23787009.7114                   23787008.8874
 -13796457.90647 -10741275.95744  21830939.0634                   21830937.3674
   7623511.63345   5973935.90642  24364312.8364                   24364310.5594
 -16265914.55947 -12664450.59045  21020028.0864                   21020025.4694
 -20543640.27047 -15941204.30145  20418226.5394                   20418223.7154
 -14703943.10947 -11448597.62945  21972816.7814                   21972817.4184
 -11970100.12547  -9312339.21945  21330482.8364                   21330478.8014
 11  8 20  1 43  0.0000000  0  8G10G29G30G04G12G05G25G02
  -6356016.33246  -4941299.57443  22543818.0394                   22543815.6844
  -8374375.77746  -6513386.52043  23776257.5164                   23776256.4884
 -13792585.87947 -10738258.79344  21831676.8674                   21831674.3794
   7729564.80146   6056574.72342  24384494.1254                   24384491.3554
 -16210929.07447 -12621604.75845  21030491.5474                   21030489.3524
 -20527401.19947 -15928550.46545  20421316.2584                   20421313.5904
 -14715197.23047 -11457367.06645  21970675.6724                   21970675.6764
 -11911677.21147  -9266814.86745  21341600.8134                   21341595.8484
 11  8 20  1 43 30.0000000  0  8G10G29G30G04G12G05G25G02
  -6241296.27746  -4851907.33643  22565647.8364                   22565645.6724
  -8430905.90246  -6557435.93443  23765500.0784                   23765498.7584
 -13788111.77047 -10734772.47744  21832527.7344                   21832525.7114
   7835560.18746   6139168.50442  24404664.9774                   24404663.2704
 -16155387.12547 -12578325.32045  21041060.8284                   21041058.3594
 -20510585.16447 -15915447.04345  20424515.9924                   20424513.6374
 -14725903.22747 -11465709.39545  21968637.6094                   21968638.1024
 -11853141.08647  -9221202.29345  21352739.3754                   21352735.2304
 11  8 20  1 44  0.0000000  0  8G10G29G30G04G12G05G25G02
  -6126242.45746  -4762255.01243  22587541.7734                   22587540.1604
  -8487467.91446  -6601510.17243  23754736.6334                   23754735.6844
 -13783043.42647 -10730823.10944  21833493.2274                   21833490.5434
   7941489.11746   6221710.55542  24424821.3284                   24424820.6804
 -16099298.43447 -12534619.85245  21051733.9614                   21051731.7934
 -20493200.68447 -15901900.67645  20427824.2504                   20427822.1884
 -14736068.26647 -11473630.19945  21966703.5314                   21966704.0434
 -11794501.10247  -9175508.78945  21363898.2344                   21363894.2114
 11  8 20  1 44 30.0000000  0  9G26G10G29G30G04G12G05G25G02
  -6461559.94515                  24652128.180
  -7586263.18046  -5899933.50043  22309709.4694                   22309706.8524
 -10119471.85546  -7873201.50843  23444176.2194                   23444175.0084
 -15352789.57046 -11954001.93044  21534779.7344                   21534777.7934
   6471945.51245   5076611.65643  24145176.3834                   24145176.3714
 -17618071.89847 -13718079.69545  20762721.8204                   20762718.5594
 -22050656.98847 -17115502.96945  20131450.4304                   20131447.8284
 -16321100.84047 -12708720.51245  21665082.2034                   21665082.8914
 -13311165.39847 -10357325.12145  21075286.2814                   21075282.4454
 11  8 20  1 45  0.0000000  0  9G26G10G29G30G04G12G05G25G02
  -6527141.809 5                  24639647.563
  -7470542.71946  -5809761.70743  22331730.5864                   22331727.4384
 -10176086.37946  -7917316.65643  23433402.7974                   23433401.6994
 -15346523.65247 -11949119.38344  21535971.5164                   21535970.3134
   6577748.38345   5159055.42642  24165309.7814                   24165310.0864
 -17560885.87547 -13673519.16045  20773602.9694                   20773600.5554
 -22032128.98447 -17101065.54345  20134976.2584                   20134973.5434
 -16330172.66047 -12715789.44945  21663356.1094                   21663355.8164
 -13252312.05547 -10311465.35545  21086486.5704                   21086481.1644
 11  8 20  1 45 30.0000000  0  9G26G10G29G30G04G12G05G25G02
  -6592858.04315                  24627142.125
  -7354492.23446  -5719332.77043  22353813.9924                   22353811.2344
 -10232724.25846  -7961450.05143  23422625.4534                   23422623.5314
 -15339657.07446 -11943768.81644  21537278.1724                   21537277.0594
   6683488.87945   5241450.68042  24185431.0084                   24185432.4224
 -17503151.80947 -13628531.58245  20784589.9454                   20784587.2074
 -22013028.24647 -17086181.82445  20138610.7894                   20138608.2584
 -16338694.89147 -12722430.14545  21661733.8834                   21661734.4414
 -13193351.71947 -10265522.23845  21097706.2504                   21097701.8364
 11  8 20  1 46  0.0000000  0  9G26G10G29G30G04G12G05G25G02
  -6658711.086 5                  24614610.430
  -7238120.06246  -5628653.16843  22375958.4844                   22375956.4534
 -10289389.64146  -8005604.84843  23411841.9384                   23411840.5554
 -15332194.90246 -11937954.13744  21538698.7974                   21538696.7894
   6789161.18445   5323792.70742  24205540.3284                   24205540.9064
 -17444876.64847 -13583122.37145  20795680.0704                   20795676.9414
 -21993360.47347 -17070856.24245  20142353.6644                   20142350.8204
 -16346671.87947 -12728645.96145  21660216.1884                   21660216.3134
 -13134290.66047 -10219500.62545  21108944.8444                   21108940.6214
 11  8 20  1 46 30.0000000  0  9G26G10G29G30G04G12G05G25G02
                                  24602053.477
  -7121427.39846  -5537723.81643  22398164.4384                   22398162.6684
 -10346079.62946  -8049778.82043  23401054.5474                   23401052.8054
 -15324135.02346 -11931673.71544  21540231.8674                   21540230.5634
   6894766.59445   5406082.72342  24225637.3284                   24225636.2194
 -17386059.77047 -13537291.03145  20806871.9534                   20806869.0824
 -21973124.28147 -17055087.75445  20146204.2114                   20146201.5474
 -16354100.71947 -12734434.66045  21658802.4694                   21658802.5944
 -13075127.67247 -10173399.58645  21120203.3674                   21120199.0904
 11  8 20  1 47  0.0000000  0  9G26G10G29G30G04G12G05G25G02
  -6790806.55915                  24589473.344
  -7004412.27746  -5446543.21143  22420431.1484                   22420429.9104
 -10402788.28146  -8093967.34443  23390262.4384                   23390261.5124
 -15315472.46147 -11924923.67644  21541880.4774                   21541879.0704
   7000309.69155   5488324.07452  24245720.0164                   24245720.1294
 -17326697.78947 -13491034.94945  20818167.9304                   20818165.1174
 -21952315.30547 -17038872.93445  20150163.5944                   20150161.3054
 -16360975.71147 -12739791.78145  21657494.6804                   21657494.2704
 -13015858.62147 -10127215.91845  21131481.6644                   21131477.3794
 11  8 20  1 47 30.0000000  0  9G26G10G29G30G04G12G05G25G02
                                  24576869.578
  -6887076.82046  -5355113.00443  22442759.8754                   22442758.2154
 -10459513.43446  -8138168.70343  23379469.3364                   23379467.3404
 -15306206.19147 -11917703.21544  21543643.9144                   21543642.0314
   7105790.89145   5570517.25442  24265792.8984                   24265792.1564
 -17266791.28147 -13444354.54345  20829567.2734                   20829565.5824
 -21930933.19547 -17022211.50845  20154233.1884                   20154230.1374
 -16367295.04747 -12744715.93045  21656292.1334                   21656292.3874
 -12956483.48447 -10080949.57445  21142780.2894                   21142775.7704
 11  8 20  1 48  0.0000000  0  9G26G10G29G30G04G12G05G25G02
  -6923389.89115                  24564244.070
  -6769426.30546  -5263437.27043  22465148.2734                   22465146.5204
 -10516256.44546  -8182383.96943  23368670.8834                   23368669.3134
 -15296338.30946 -11910013.93744  21545522.0704                   21545519.7854
   7211207.48045   5652660.00042  24285853.2114                   24285852.0314
 -17206344.31247 -13397253.01645  20841071.0634                   20841067.7854
 -21908980.48847 -17005105.46546  20158410.2584                   20158408.1994
 -16373060.10547 -12749208.18445  21655194.7974                   21655194.9224
 -12897005.15647 -10034602.81645  21154098.9614                   21154094.3444
 11  8 20  1 48 30.0000000  0  9G26G10G29G30G04G12G05G25G02
  -6989856.60215                  24551595.516
  -6651460.83246  -5171516.14143  22487595.9384                   22487594.4184
 -10573012.89546  -8226609.71543  23357869.8914                   23357868.3324
 -15285865.57847 -11901853.36344  21547515.0554                   21547512.8874
   7316562.043 5                  24305901.969
 -17145354.85547 -13349728.76645  20852676.2034                   20852673.3754
 -21886454.49247 -16987552.69945  20162696.5394                   20162694.1804
 -16378266.85247 -12753265.39545  21654204.0314                   21654203.9884
 -12837421.42647  -9988173.93745  21165436.5234                   21165432.8054
 11  8 20  1 49  0.0000000  0  9G26G10G29G30G04G12G05G25G02
  -7056433.621 5                  24538926.039
  -6533181.50046  -5079350.43443  22510104.6564                   22510102.3874
 -10629780.17646  -8270843.92243  23347067.7274                   23347066.4654
 -15274786.40247 -11893220.23444  21549623.0234                   21549621.4884
   7421855.863 5                  24325938.492
 -17083823.40647 -13301782.18445  20864384.9454                   20864382.9574
 -21863354.59047 -16969552.73845  20167092.2034                   20167089.9024
 -16382912.93047 -12756885.69945  21653319.6884                   21653320.0514
 -12777731.40247  -9941662.23445  21176795.3204                   21176790.8714
 11  8 20  1 49 30.0000000  0  9G26G10G29G30G04G12G05G25G02
  -7123120.922 5                  24526235.742
  -6414594.19546  -4986944.75043  22532670.4694                   22532668.8754
 -10686559.70346  -8315087.65243  23336262.4774                   23336261.2854
 -15263103.16046 -11884116.41444  21551846.2814                   21551844.5594
   7527085.750 5                  24345962.422
 -17021753.94947 -13253416.37945  20876197.1334                   20876194.2234
 -21839683.66047 -16951107.82445  20171596.3054                   20171594.3164
 -16386999.92647 -12760070.37945  21652542.0314                   21652541.9964
 -12717938.29747  -9895070.19545  21188173.4694                   21188169.6294
 11  8 20  1 50  0.0000000  0  9G26G10G29G30G04G12G05G25G02
  -7189912.180 5                  24513525.000
  -6295698.60946  -4894298.80943  22555293.4224                   22555293.5164
 -10743346.79746  -8359337.30143  23325457.5784                   23325455.0004
 -15250812.48847 -11874539.25444  21554185.3754                   21554183.8164
   7632255.15615                  24365974.539
 -16959144.55947 -13204629.82845  20888111.1644                   20888107.7854
 -21815438.90247 -16932215.76645  20176210.8594                   20176208.3714
 -16390523.72747 -12762816.18745  21651871.2344                   21651871.5234
 -12658039.39847  -9848395.73445  21199572.6094                   21199567.8914
 11  8 20  1 50 30.0000000  0  9G26G10G29G30G04G12G05G25G02
  -7256807.809 5                  24500794.727
  -6176500.41846  -4801417.10243  22577978.7274                   22577976.3324
 -10800143.48846  -8403594.43743  23314648.3054                   23314647.7034
 -15237917.60547 -11864491.28144  21556639.0164                   21556637.7234
   7737359.855 5                  24385977.000
 -16896000.08247 -13155426.34445  20900126.8914                   20900124.0984
 -21790624.21547 -16912879.60545  20180932.5394                   20180930.1524
 -16393486.69547 -12765124.98445  21651307.7974                   21651307.5474
 -12598038.82847  -9801642.04745  21210990.1724                   21210985.2384
 11  8 20  1 51  0.0000000  0  9G26G10G29G30G04G12G05G25G02
  -7323802.375 5                  24488046.211
  -6057000.66446  -4708300.38343  22600717.2034                   22600715.9454
 -10856946.41046  -8447856.37943  23303839.4924                   23303837.7304
 -15224416.00047 -11853970.53544  21559208.2034                   21559206.4454
   7842402.438 5                  24405965.781
 -16832320.14147 -13105805.60945  20912244.4304                   20912241.7624
 -21765237.70347 -16893097.87146  20185763.4064                   20185760.7624
 -16395885.59447 -12766994.24645  21650850.7274                   21650850.5554
 -12537934.57847  -9754807.56245  21222427.3204                   21222422.8874
 11  8 20  1 51 30.0000000  0  9G26G10G29G30G04G12G05G25G02
  -7390893.809 5                  24475279.352
  -5937202.92246  -4614951.46543  22623513.7114                   22623513.0084
 -10913754.44946  -8492122.34443  23293029.1024                   23293027.3984
 -15210308.37146 -11842977.57844  21561893.0234                   21561891.3484
   7947383.53115                  24425942.484
 -16768106.64847 -13055769.12945  20924464.0234                   20924461.4924
 -21739280.63347 -16872871.54746  20190703.3284                   20190700.5634
 -16397720.41047 -12768423.96945  21650502.1414                   21650501.9734
 -12477727.92246  -9707893.28144  21233884.5864                   21233880.3284
 11  8 20  1 52  0.0000000  0  9G26G10G29G30G04G12G05G25G02
  -7458086.125 5                  24462492.680
  -5817116.93446  -4521377.98443  22646366.5474                   22646363.3954
 -10970573.46546  -8536396.85243  23282216.0554                   23282215.2734
 -15195601.54347 -11831517.70744  21564691.2894                   21564689.8874
   8052292.430 5                  24445906.156
 -16703368.01247 -13005323.42645  20936783.1804                   20936780.9454
 -21712760.52747 -16852206.50445  20195749.2974                   20195746.6024
 -16398997.03947 -12769418.73045  21650259.1644                   21650258.8874
 -12417426.50447  -9660905.15645  21245359.4844                   21245355.2194
 11  8 20  1 52 30.0000000  0  9G26G10G29G30G04G12G05G25G02
  -7525371.141 5                  24449689.586
  -5696740.65646  -4427578.26243  22669273.6644                   22669270.9534
 -11027397.00046  -8580674.87143  23271403.6484                   23271401.5634
 -15180290.52047 -11819587.03544  21567605.6174                   21567603.7814
   8157135.754 5                  24465856.688
 -16638100.94147 -12954465.97745  20949203.5394                   20949200.6914
 -21685672.88747 -16831099.21545  20200903.8284                   20200901.2464
 -16399709.68447 -12769974.03145  21650123.5234                   21650123.5474
 -12357025.72747  -9613839.60545  21256853.8134                   21256849.1724
 11  8 20  1 53  0.0000000  0  9G26G10G29G30G04G12G05G25G02
  -7592743.605 5                  24436867.234
  -5576074.59446  -4333552.76643  22692233.5474                   22692233.2274
 -11084221.36346  -8624953.55543  23260590.1484                   23260588.7894
 -15164372.89847 -11807183.69544  21570634.1414                   21570632.7974
   8261915.398 5                  24485795.438
 -16572304.53947 -12903196.06245  20961724.3364                   20961721.5354
 -21658016.20347 -16809548.51645  20206166.5004                   20206164.3164
 -16399855.25047 -12770087.45745  21650095.3134                   21650095.6914
 -12296523.82447  -9566695.26245  21268366.6804                   21268361.8054
 11  8 20  1 53 30.0000000  0  9G26G10G29G30G04G12G05G25G02
  -7660203.043 5                  24424030.703
  -5455124.46946  -4239305.92643  22715252.5474                   22715249.4734
 -11141047.84446  -8669233.89843  23249776.1644                   23249775.1024
 -15147851.49647 -11794309.88344  21573777.9534                   21573776.1334
   8366628.805 5                  24505722.789
 -16505982.99247 -12851516.93445  20974344.9774                   20974342.2464
 -21629793.46947 -16787556.74645  20211537.1644                   20211535.0944
 -16399435.65247 -12769760.48445  21650174.9224                   21650175.7114
 -12235923.98447  -9519474.60545  21279898.7114                   21279893.7114
 11  8 20  1 54  0.0000000  0  9G26G10G29G30G04G12G05G25G02
  -7727746.86315                  24411176.938
  -5333893.32846  -4144840.09443  22738320.4534                   22738319.3204
 -11197875.40646  -8713515.07843  23238962.3364                   23238960.6604
 -15130726.61747 -11780965.82044  21577036.7504                   21577035.1254
   8471275.47345   6634531.82452  24525635.4304                   24525634.8014
 -16439138.52347 -12799430.34045  20987065.0634                   20987062.1174
 -21601005.82447 -16765124.79346  20217015.8524                   20217012.6914
 -16398450.37947 -12768992.71945  21650362.8914                   21650362.4924
 -12175227.05547  -9472178.28545  21291447.8524                   21291443.6484
 11  8 20  1 54 30.0000000  0  9G26G10G29G30G04G12G05G25G02
  -7795371.414 5                  24398308.805
  -5212383.53546  -4050157.13343  22761443.2114                   22761441.6994
 -11254701.89846  -8757795.42643  23228148.7584                   23228147.4264
 -15112997.62147 -11767151.02344  21580410.6804                   21580408.9264
   8575855.74645   6716022.94942  24545536.3524                   24545536.6214
 -16371772.21947 -12746937.12545  20999884.3284                   20999881.0474
 -21571653.18047 -16742252.57446  20222601.4694                   20222598.3984
 -16396898.01647 -12767783.05945  21650658.1954                   21650658.6174
 -12114432.75446  -9424806.07845  21303016.2034                   21303012.8794
 11  8 20  1 55  0.0000000  0  9G26G10G29G30G04G12G05G25G02
  -7863075.336 5                  24385424.117
  -5090599.76646  -3955260.73043  22784618.1804                   22784616.7194
 -11311527.95746  -8802075.42643  23217334.8284                   23217333.2934
 -15094666.60547 -11752867.12944  21583898.9224                   21583896.5944
   8680367.36745   6797460.57842  24565425.3524                   24565424.4224
 -16303888.03147 -12694040.36345  21012802.5634                   21012799.2114
 -21541738.06247 -16718942.07846  20228294.1804                   20228291.5904
 -16394779.84047 -12766132.50845  21651061.6484                   21651061.0824
 -12053543.73846  -9377360.07845  21314604.2664                   21314599.1884
 11  8 20  1 55 30.0000000  0  9G26G10G29G30G04G12G05G25G02
  -7930853.340 5                  24372527.969
  -4968542.76646  -3860151.37943  22807844.6174                   22807842.7034
 -11368350.06246  -8846352.34443  23206521.0944                   23206520.3954
 -15075731.37147 -11738112.40644  21587502.3134                   21587499.9384
   8784812.69945   6878846.49642  24585300.3834                   24585299.5044
 -16235484.97347 -12640739.27345  21025818.8674                   21025815.9924
 -21511259.15647 -16695192.25446  20234093.8444                   20234091.0314
 -16392092.89547 -12764038.77345  21651572.3204                   21651572.4574
 -11992558.17647  -9329838.82845  21326209.3054                   21326204.6604
 11  8 20  1 56  0.0000000  0  9G26G10G29G30G04G12G05G25G02
  -7998701.195 5                  24359616.320
  -4846213.85246  -3764830.16043  22831123.4144                   22831121.2894
 -11425164.94946  -8890623.65643  23195709.9694                   23195708.8164
 -15056190.66447 -11722885.87944  21591220.6174                   21591218.6094
   8889192.98045   6960181.71942  24605163.1724                   24605163.4454
 -16166563.07047 -12587033.91045  21038934.1884                   21038931.9694
 -21480215.57047 -16671002.42646  20240001.1884                   20239998.5554
 -16388835.01647 -12761500.14145  21652192.7194                   21652192.5784
 -11931474.85947  -9282241.42245  21337832.5554                   21337828.9774
 11  8 20  1 56 30.0000000  0  9G26G10G29G30G04G12G05G25G02
  -8066623.328 5                  24346690.266
  -4723623.67246  -3669305.37143  22854450.7734                   22854448.8324
 -11481979.28146  -8934894.53143  23184898.8204                   23184898.1134
 -15036052.56247 -11707193.84444  21595053.1094                   21595050.8834
   8993500.05145   7041460.02342  24625011.0084                   24625012.0474
 -16097132.21147 -12532931.94545  21052146.9454                   21052144.1994
 -21448616.10547 -16646379.44946  20246014.1334                   20246011.3834
 -16385013.50047 -12758522.30945  21652919.7584                   21652920.6954
 -11870302.37547  -9234574.53545  21349473.8914                   21349469.2854
 11  8 20  1 57  0.0000000  0  9G26G10G29G30G04G12G05G25G02
  -8134610.605 5                  24333753.250
  -4600769.08246  -3573574.56243  22877830.0864                   22877827.6564
 -11538785.23846  -8979158.89843  23174088.9844                   23174086.6914
 -15015311.12147 -11691031.67244  21598999.4144                   21598997.9774
   9097740.04345   7122685.87942  24644848.2974                   24644847.3524
 -16027188.32847 -12478430.21945  21065456.1954                   21065453.9184
 -21416455.30547 -16621319.06646  20252133.8834                   20252131.2154
 -16380621.55147 -12755099.98445  21653755.8364                   21653756.2504
 -11809035.09847  -9186833.80145  21361132.3914                   21361128.4494
 11  8 20  1 57 30.0000000  0  8G26G10G29G30G12G05G25G02
  -8202662.187 5                  24320803.781
  -4477655.11746  -3477641.66443  22901258.0084                   22901254.7664
 -11595583.67246  -9023417.41443  23163280.9224                   23163278.9184
 -14993968.85947 -11674401.33244  21603060.9924                   21603059.8674
 -15956735.18047 -12423531.67245  21078863.2664                   21078860.8364
 -21383736.23447 -16595823.68046  20258360.1804                   20258357.8834
 -16375660.91447 -12751234.53145  21654699.4304                   21654699.8954
 -11747675.73047  -9139021.27745  21372808.2424                   21372804.4774
 11  8 20  1 58  0.0000000  0  8G26G10G29G30G12G05G25G02
  -8270775.121 5                  24307843.055
  -4354284.83646  -3381508.96543  22924733.2114                   22924731.3834
 -11652373.19946  -9067668.96143  23152474.6564                   23152472.4574
 -14972026.14847 -11657303.10244  21607236.1094                   21607234.9264
 -15885774.36747 -12368237.53145  21092366.7194                   21092364.4024
 -21350459.84047 -16569894.00045  20264692.8134                   20264690.3204
 -16370131.07047 -12746925.52745  21655751.9924                   21655752.0044
 -11686224.50847  -9091137.19145  21384502.4694                   21384498.1604
 11  8 20  1 58 30.0000000  0  8G26G10G29G30G12G05G25G02
  -8338940.348 5                  24294871.133
  -4230655.14146  -3285174.18443  22948261.0234                   22948259.1724
 -11709146.46946  -9111907.85943  23141670.9614                   23141668.6454
 -14949477.28546 -11639732.54344  21611527.7504                   21611525.7384
 -15814302.18747 -12312544.93745  21105966.3984                   21105964.3484
 -21316620.54347 -16543525.70346  20271131.8754                   20271129.6374
 -16364025.41847 -12742167.84445  21656913.7664                   21656913.6524
 -11624676.03547  -9043177.31645  21396214.4224                   21396210.2854
 11  8 20  1 59  0.0000000  0  8G26G10G29G30G12G05G25G02
  -8407149.977 5                  24281890.852
  -4106764.34845  -3188635.93743  22971836.0164                   22971834.6094
 -11765897.48446  -9156129.41043  23130871.8284                   23130869.3914
 -14926318.08246 -11621686.38344  21615934.6254                   21615933.2304
 -15742315.94147 -12256451.75445  21119665.6334                   21119663.6804
 -21282215.44547 -16516716.51246  20277679.3284                   20277676.8094
 -16357339.00447 -12736957.62145  21658186.1564                   21658185.3834
 -11563026.17247  -8995138.43745  21407945.8754                   21407941.6604
 11  8 20  1 59 30.0000000  0  8G26G10G29G30G12G05G25G02
  -8475406.160 5                  24268901.461
  -3982620.84445  -3091900.77343  22995458.3984                   22995457.6294
 -11822630.14146  -9200336.65643  23120075.4844                   23120073.2074
 -14902554.37947 -11603169.19944  21620456.5234                   21620454.5204
 -15669822.77747 -12199963.57445  21133460.4844                   21133458.4344
 -21247250.62947 -16489471.18746  20284333.0004                   20284330.3054
 -16350076.91047 -12731298.82045  21659567.9844                   21659568.1254
 -11501281.14847  -8947025.42645  21419696.3364                   21419691.2934
 11  8 20  2  0  0.0000000  0  8G26G10G29G30G12G05G25G02
  -8543703.656 5                  24255905.211
  -3858224.91045  -2994968.85943  23019131.7424                   23019129.6684
 -11879340.29346  -9244526.35243  23109283.3444                   23109281.6564
 -14878184.03147 -11584179.28944  21625094.3444                   21625092.3834
 -15596822.37547 -12143080.14545  21147352.2504                   21147349.6684
 -21211724.39547 -16461788.38746  20291092.9384                   20291090.6804
 -16342236.02347 -12725189.01245  21661060.0704                   21661059.8594
 -11439438.69147  -8898836.50045  21431463.9224                   21431459.5634
 11  8 20  2  0 30.0000000  0  8G26G10G29G30G12G05G25G02
  -8612045.379 5                  24242899.063
  -3733585.47345  -2897847.24243  23042848.7194                   23042848.0704
 -11936032.48846  -9288702.03543  23098495.7424                   23098493.8754
 -14853213.63346 -11564721.82044  21629846.0554                   21629843.9184
 -15523322.70747 -12085807.67245  21161338.0944                   21161336.3874
 -21175643.91847 -16433673.70746  20297959.1724                   20297956.2344
 -16333822.10247 -12718632.69145  21662660.9844                   21662661.0984
 -11377505.28147  -8850576.69544  21443249.8204                   21443245.2384
 11  8 20  2  1  0.0000000  0  8G26G10G29G30G12G05G25G02
  -8680428.172 5                  24229887.125
  -3608705.74646  -2800538.37543  23066614.1724                   23066611.9304
 -11992705.67246  -9332862.88743  23087710.4844                   23087709.4924
 -14827643.77347 -11544797.23844  21634711.4534                   21634709.9104
 -15449325.85547 -12028147.78945  21175419.7274                   21175417.5274
 -21139010.26247 -16405127.98046  20304929.8524                   20304927.7074
 -16324834.93047 -12711629.67645  21664370.8054                   21664371.2034
 -11315481.55547  -8802246.50845  21455052.3054                   21455048.1804
 11  8 20  2  1 30.0000000  0  8G26G10G29G30G12G05G25G02
  -8748849.875 5                  24216866.625
  -3483589.63746  -2703045.32843  23090422.5474                   23090421.1764
 -12049358.97346  -9377008.27343  23076930.2504                   23076928.2114
 -14801476.09047 -11524406.80544  21639691.1484                   21639688.9574
 -15374834.73447 -11970102.75445  21189595.2894                   21189592.2544
 -21101825.62147 -16376152.91045  20312006.5234                   20312003.3284
 -16315275.26647 -12704180.57045  21666189.9924                   21666190.2664
 -11253368.94947  -8753847.07445  21466872.4144                   21466868.2234
 11  8 20  2  2  0.0000000  0  8G26G10G29G30G12G05G25G02
  -8817308.043 5                  24203838.836
  -3358240.40646  -2605370.65243  23114275.9454                   23114274.5744
 -12105991.96146  -9421137.78943  23066152.9454                   23066151.2194
 -14774711.71547 -11503551.42644  21644784.2734                   21644782.3094
 -15299852.03947 -11911674.66445  21203863.6724                   21203860.8524
 -21064091.65647 -16346749.78546  20319186.1564                   20319184.1564
 -16305143.32847 -12696285.53545  21668118.4844                   21668118.6604
 -11191168.40647  -8705379.10544  21478708.3284                   21478704.3674
 11  8 20  2  2 30.0000000  0  8G26G10G29G30G12G05G25G02
  -8885799.937 5                  24190805.664
  -3232661.43046  -2507516.96943  23138172.9774                   23138170.7194
 -12162603.06246  -9465250.27043  23055379.2424                   23055378.6994
 -14747351.55147 -11482231.81244  21649990.7814                   21649988.4694
 -15224380.28147 -11852865.50445  21218225.7584                   21218222.9734
 -21025809.76647 -16316919.70745  20326471.3364                   20326468.3984
 -16294439.24247 -12687944.66045  21670155.4144                   21670155.1454
 -11128881.00047  -8656843.46144  21490561.9534                   21490557.0514
 11  8 20  2  3  0.0000000  0  8G26G10G29G30G12G05G25G02
  -8954318.973 5                  24177766.797
  -3106852.79746  -2409484.30943  23162111.9064                   23162111.3404
 -12219187.82046  -9509342.18743  23044611.9694                   23044610.3794
 -14719392.97347 -11460445.88744  21655310.8984                   21655308.9414
 -15148418.26647 -11793674.33245  21232681.1414                   21232678.4574
 -20986977.71947 -16286660.93746  20333860.5234                   20333858.2974
 -16283159.55147 -12679155.27345  21672301.5554                   21672301.7624
 -11066503.89547  -8608237.91844  21502431.3054                   21502426.6564
 11  8 20  2  3 30.0000000  0  8G26G10G29G30G12G05G25G02
  -9022864.711 5                  24164723.266
  -2980819.40646  -2311276.53943  23186096.8364                   23186094.0784
 -12275746.99246  -9553414.18043  23033849.4304                   23033848.4064
 -14690839.24247 -11438196.21544  21660744.6334                   21660741.8674
 -15071970.66047 -11734104.75845  21247228.2344                   21247225.8054
 -20947599.23847 -16255976.37546  20341354.4694                   20341351.8794
 -16271306.55547 -12669919.15645  21674557.6174                   21674557.3914
 -11004039.72747  -8559564.53544  21514318.4064                   21514313.3554
 11  8 20  2  4  0.0000000  0  8G26G10G29G30G12G05G25G02
  -9091432.492 5                  24151674.766
  -2854562.77345  -2212894.83243  23210122.6644                   23210120.5434
 -12332277.71946  -9597463.95343  23023091.9534                   23023090.5984
 -14661689.41447 -11415482.04744  21666291.6024                   21666288.7304
 -14995038.21947 -11674157.40245  21261868.5084                   21261865.4534
 -20907674.09847 -16224865.84446  20348951.9064                   20348949.0314
 -16258878.59847 -12660235.02745  21676922.1254                   21676922.0314
 -10941487.73847  -8510822.72344  21526220.5394                   21526216.3634
 11  8 20  2  4 30.0000000  0  8G26G10G29G30G12G05G25G02
  -9160018.176 6                  24138623.094
  -2728085.18746  -2114340.91042  23234189.3054                   23234188.0124
 -12388777.70346  -9641489.82443  23012340.0864                   23012338.9924
 -14631943.56247 -11392303.45344  21671951.5704                   21671949.6564
 -14917622.02747 -11613833.10245  21276599.8444                   21276597.4344
 -20867202.99247 -16193329.88346  20356653.5314                   20356650.1454
 -16245874.73047 -12650102.12145  21679396.3674                   21679396.7034
 -10878847.58247  -8462012.19145  21538141.4454                   21538136.5784
 11  8 20  2  5  0.0000000  0  8G26G10G29G30G12G05G25G02
  -9228623.781 5                  24125568.727
  -2601394.55145  -2015620.94942  23258298.8674                   23258296.1334
 -12445250.50846  -9685494.53944  23001594.9064                   23001592.3134
 -14601607.34447 -11368664.82444  21677724.5234                   21677722.3634
 -14839729.25047 -11553137.44545  21291422.4224                   21291419.7464
 -20826191.78147 -16161373.06646  20364457.1254                   20364454.4224
 -16232299.75047 -12639524.19145  21681980.2664                   21681980.3524
 -10816124.44547  -8413137.00444  21550077.2274                   21550072.1684
 11  8 20  2  5 30.0000000  0  8G26G10G29G30G12G05G25G02
  -9297245.180 6                  24112509.789
  -2474493.01646  -1916736.68042  23282446.6954                   23282444.9534
 -12501693.43446  -9729475.94543  22990853.7974                   22990851.8914
 -14570680.76246 -11344566.16444  21683609.9064                   21683607.4694
 -14761361.56647 -11492071.71545  21306335.0314                   21306332.8794
 -20784640.87547 -16128995.70346  20372363.6334                   20372361.4924
 -16218152.94147 -12628500.69145  21684672.7664                   21684672.1994
 -10753318.20347  -8364197.05545  21562028.8444                   21562023.8324
 11  8 20  2  6  0.0000000  0  8G26G10G29G30G12G05G25G02
  -9365876.039 5                  24099449.398
  -2347380.29346  -1817687.77042  23306635.5944                   23306633.9264
 -12558102.27346  -9773430.80143  22980119.4304                   22980117.2814
 -14539161.54747 -11320005.72344  21689608.0474                   21689605.1454
 -14682517.74647 -11430634.97745  21321338.8524                   21321336.4224
 -20742548.66447 -16096196.54346  20380373.7814                   20380371.3714
 -16203431.01247 -12617029.03945  21687473.2504                   21687473.8674
 -10690426.03947  -8315190.14845  21573996.3594                   21573991.9964
 11  8 20  2  6 30.0000000  0  8G26G10G29G30G12G05G25G02
  -9434510.539 6                  24086389.133
  -2220056.53146  -1718474.44943  23330863.8524                   23330862.6454
 -12614472.44146  -9817355.50843  22969391.3444                   22969390.0004
 -14507047.85946 -11294982.04344  21695718.7814                   21695716.9454
 -14603197.76647 -11368827.19945  21336433.0474                   21336430.1054
 -20699913.72747 -16062974.49646  20388486.6804                   20388484.5634
 -16188131.32447 -12605107.18045  21690384.9774                   21690385.1844
 -10627445.53947  -8266114.41445  21585981.1724                   21585976.9614
 11  8 20  2  7  0.0000000  0  8G26G10G29G30G12G05G25G02
  -9503146.320 5                  24073326.469
  -2092525.69546  -1619099.77343  23355132.3834                   23355131.4654
 -12670803.30146  -9861249.60243  22958672.3364                   22958670.5434
 -14474341.47347 -11269496.51244  21701942.7664                   21701940.1374
 -14523404.69947 -11306650.78145  21351616.8594                   21351614.3364
 -20656738.28947 -16029331.27346  20396702.7504                   20396701.0554
 -16172254.74647 -12592735.79745  21693405.9694                   21693406.0634
 -10564378.47347  -8216971.22345  21597982.5864                   21597978.0634
 11  8 20  2  7 30.0000000  0  8G26G10G29G30G12G05G25G02
  -9571781.187 5                  24060266.688
  -1964791.35246  -1519566.50043  23379440.7584                   23379439.0314
 -12727094.06246  -9905112.44543  22947960.9224                   22947959.1024
 -14441044.03147 -11243550.43444  21708279.2974                   21708276.7384
 -14443141.46547 -11244108.00045  21366890.5004                   21366887.9734
 -20613024.32447 -15995268.42645  20405021.6094                   20405019.0234
 -16155802.11347 -12579915.55145  21696537.0784                   21696537.0824
 -10501225.62947  -8167761.20345  21610000.2274                   21609996.2274
 11  8 20  2  8  0.0000000  0  8G26G10G29G30G12G05G25G02
  -9640414.414 6                  24047206.992
  -1836859.23846  -1419879.18043  23403785.8134                   23403783.5824
 -12783346.16046  -9948945.17643  22937256.2664                   22937254.2464
 -14407159.47347 -11217146.86344  21714726.9064                   21714724.6294
 -14362413.28547 -11181202.92245  21382252.1644                   21382250.0084
 -20568776.30147 -15960789.42245  20413441.6174                   20413439.3594
 -16138776.41847 -12566648.75445  21699776.9454                   21699776.8324
 -10437990.41047  -8118486.98845  21622032.8834                   21622029.0164
 11  8 20  2  8 30.0000000  0  8G26G10G29G30G12G05G25G02
  -9709036.461 5                  24034148.602
  -1708725.60946  -1320034.81643  23428168.6724                   23428166.2194
 -12839551.26646  -9992741.31244  22926559.6024                   22926558.9614
 -14372681.89846 -11190281.21144  21721287.6334                   21721286.0004
 -14281215.62947 -11117932.02745  21397703.7814                   21397701.5634
 -20523988.68047 -15925889.95746  20421965.0554                   20421961.9414
 -16121170.92647 -12552930.17245  21703127.2194                   21703126.9534
 -10374666.43747  -8069143.62545  21634083.6254                   21634079.2194
 11  8 20  2  9  0.0000000  0  8G26G10G29G30G12G05G25G02
  -9777646.664 5                  24021091.938
  -1580396.12946  -1220037.82443  23452587.9454                   23452586.6884
 -12895710.60946 -10036501.78544  22915873.7894                   22915871.6954
 -14337615.21546 -11162956.51244  21727960.4534                   21727958.6374
 -14199553.84847 -11054299.47745  21413243.1954                   21413241.1604
 -20478665.83647 -15890573.42646  20430589.3834                   20430586.6174
 -16102988.64847 -12538762.14545  21706587.0164                   21706586.7424
 -10311256.79347  -8019733.50045  21646149.7034                   21646145.4654
 11  8 20  2  9 30.0000000  0  8G26G10G29G30G12G05G25G02
  -9846245.219 5                  24008037.320
  -1451877.09445  -1119893.19543  23477044.3834                   23477042.8754
 -12951825.89546 -10080227.93044  22905195.1804                   22905193.9964
 -14301963.71947 -11135176.11744  21734744.8754                   21734743.2424
 -14117433.81647 -10990309.84045  21428870.1644                   21428868.1214
 -20432812.47747 -15854843.51646  20439315.3914                   20439312.0084
 -16084233.05547 -12524147.37545  21710156.0554                   21710155.3554
 -10247765.49646  -7970259.74245  21658231.0554                   21658227.3484
 11  8 20  2 10  0.0000000  0  8G26G10G29G30G12G05G25G02
  -9914828.082 5                  23994987.211
  -1323170.64846  -1019602.49242  23501537.4844                   23501535.2034
 -13007894.72346 -10123917.87944  22894525.7584                   22894524.0354
 -14265727.77747 -11106940.29344  21741640.2274                   21741638.5044
 -14034856.56247 -10925963.92645  21444584.3524                   21444581.9144
 -20386429.21147 -15818700.68446  20448141.3594                   20448138.9264
 -16064903.50047 -12509085.37145  21713834.4064                   21713833.9964
 -10184192.16047  -7920722.06644  21670329.2894                   21670324.6914
 11  8 20  2 10 30.0000000  0  8G26G10G29G30G12G05G25G02
  -9983389.707 5                  23981940.102
  -1194277.57046   -919166.33643  23526064.2814                   23526061.9694
 -13063913.37146 -10167568.73844  22883865.8594                   22883863.6484
 -14228906.12547 -11078248.08644  21748646.7734                   21748645.5234
 -13951822.85247 -10861262.34045  21460385.1564                   21460382.7274
 -20339515.61747 -15782144.61746  20457068.3364                   20457065.8634
 -16044998.04747 -12493574.62545  21717622.2974                   21717621.9304
 -10120534.68747  -7871118.84044  21682443.2424                   21682438.1454
 11  8 20  2 11  0.0000000  0  8G26G10G29G30G12G05G25G02
 -10051925.109 5                  23968898.734
  -1065198.94546   -818585.60242  23550627.6644                   23550624.9844
 -13119878.26246 -10211177.69144  22873215.9064                   22873213.8714
 -14191498.10547 -11049098.97344  21755765.8444                   21755763.7544
 -13868332.84447 -10796205.19145  21476272.8834                   21476270.4804
 -20292071.17247 -15745174.89845  20466097.3674                   20466094.5664
 -16024514.99247 -12477613.80545  21721520.3134                   21721519.8054
 -10056791.65247  -7821448.93444  21694572.8914                   21694568.0824
 11  8 20  2 11 30.0000000  0  8G26G10G29G30G12G05G25G02
 -10120427.691 5                  23955862.109
   -935934.35546   -717859.95742  23575225.6254                   23575224.4184
 -13175784.59846 -10254741.02044  22862577.9454                   22862575.1214
 -14153501.83247 -11019491.46944  21762996.3524                   21762994.2344
 -13784386.07047 -10730792.12945  21492246.9304                   21492244.6214
 -20244094.19947 -15707790.23045  20475226.3984                   20475223.8594
 -16003451.55947 -12461200.74645  21725528.5314                   21725527.5664
  -9992960.41846  -7771710.29344  21706718.8364                   21706714.9344
 11  8 20  2 12  0.0000000  0  8G26G10G29G30G12G05G25G02
 -10188900.47746  -7923122.45353  23942832.9774                   23942830.2344
   -806492.92646   -616996.46942  23599857.5234                   23599855.2704
 -13231637.16446 -10298262.45744  22851948.8284                   22851946.9884
 -14114924.58647 -10989431.28544  21770337.6094                   21770335.5704
 -13699991.30547 -10665029.98045  21508307.8984                   21508304.4534
 -20195592.37947 -15669996.57845  20484456.0084                   20484453.5554
 -15981814.24647 -12444340.50045  21729645.3444                   21729645.4024
  -9929047.39847  -7721907.91444  21718881.7664                   21718877.2894
 11  8 20  2 12 30.0000000  0  8G26G10G29G30G12G05G25G02
 -10257342.59845  -7976453.89843  23929808.4694                   23929806.5594
   -676879.92645   -515999.32842  23624522.0554                   23624519.7584
 -13287436.38346 -10341742.33644  22841330.1564                   22841328.6094
 -14075769.80947 -10958921.06644  21777788.4224                   21777786.2934
 -13615153.00047 -10598922.21145  21524451.0084                   21524449.1214
 -20146569.94547 -15631797.27046  20493784.5784                   20493782.0944
 -15959605.62947 -12427035.08245  21733872.1254                   21733871.6884
  -9865055.25447  -7672043.89144  21731059.3204                   21731054.8134
 11  8 20  2 13  0.0000000  0  8G26G10G29G30G12G05G25G02
 -10325745.60946  -8029754.84043  23916791.3284                   23916789.8094
   -547093.22746   -414866.71142  23649218.9614                   23649215.7584
 -13343175.51646 -10385175.37944  22830724.0474                   22830721.8954
 -14036033.78146 -10927957.93444  21785349.5004                   21785347.7704
 -13529868.84047 -10532467.02745  21540680.7344                   21540678.1524
 -20097023.29347 -15593189.46546  20503213.0864                   20503210.4614
 -15936821.01647 -12409280.82845  21738207.5164                   21738207.6254
  -9800979.43047  -7622114.66844  21743252.3364                   21743247.7344
 11  8 20  2 13 30.0000000  0  8G26G10G29G30G12G05G25G02
 -10394102.78545  -8083020.06642  23903784.4224                   23903782.3674
   -417131.64145   -313597.94942  23673949.4844                   23673946.9694
 -13398849.34846 -10428557.54744  22820129.0474                   22820127.6684
 -13995714.12147 -10896540.01244  21793022.3594                   21793020.4614
 -13444137.69947 -10465663.55145  21556994.4844                   21556992.1604
 -20046950.38347 -15554171.59445  20512741.5634                   20512738.9024
 -15913457.19547 -12391075.24645  21742653.5394                   21742653.6804
  -9736817.05947  -7572117.99244  21755461.8364                   21755457.7974
 11  8 20  2 14  0.0000000  0  8G26G10G29G30G12G05G25G02
 -12037834.89846  -9363850.19543  23590992.0784                   23590990.4184
  -1862415.73845  -1439793.37942  23398920.5864                   23398919.4344
 -15029880.16846 -11699490.59044  22509754.3914                   22509752.8404
 -15530232.53947 -12092268.64844  21501012.9774                   21501011.5164
 -14933381.21147 -11626113.04345  21273600.7424                   21273598.1914
 -21571773.01647 -16742345.05546  20222577.8054                   20222575.0354
 -17464935.65647 -13600019.48845  21447417.5164                   21447417.2774
 -11247987.41047  -8749653.31645  21467896.4614                   21467891.2894
 11  8 20  2 14 30.0000000  0  8G26G10G29G30G12G05G25G02
 -12106097.52746  -9417041.78943  23578002.4304                   23578000.1334
  -1732121.03545  -1338265.07442  23423715.3284                   23423713.3554
 -15085426.18446 -11742773.13344  22499184.4384                   22499182.4024
 -15488756.82847 -12059949.92644  21508905.6484                   21508904.3284
 -14846771.00047 -11558624.56645  21290081.8984                   21290079.7034
 -21520659.64147 -16702516.43045  20232304.2424                   20232301.3484
 -17440422.07447 -13580917.98845  21452081.8054                   21452081.5744
 -11183659.21147  -8699527.41845  21480137.5394                   21480132.7274
 11  8 20  2 15  0.0000000  0  8G26G10G29G30G12G05G25G02
 -12174309.59845  -9470193.93442  23565021.4844                   23565019.7464
  -1601665.62546  -1236611.52742  23448541.9694                   23448537.7114
 -15140906.89546 -11786004.81244  22488626.3834                   22488624.4614
 -15446706.55547 -12027183.48844  21516907.4614                   21516905.6374
 -14759726.70347 -11490797.85245  21306645.9304                   21306643.6134
 -21469030.21147 -16662285.69545  20242129.2504                   20242125.8164
 -17415335.77347 -13561370.21945  21456855.9534                   21456855.6644
 -11119249.96147  -8649338.38345  21492393.0864                   21492389.3444
 11  8 20  2 15 30.0000000  0  8G26G10G29G30G12G05G25G02
 -12242470.71945  -9523306.39843  23552050.9924                   23552049.3404
  -1471055.43446  -1134837.34842  23473394.8444                   23473392.8874
 -15196324.14146 -11829187.01244  22478080.7194                   22478078.9144
 -15404086.34447 -11993972.94544  21525017.8444                   21525016.0984
 -14672253.91447 -11422637.24645  21323292.2894                   21323289.4654
 -21416889.67647 -16621656.68445  20252050.4694                   20252048.0984
 -17389680.37147 -13541378.97345  21461737.5234                   21461737.6564
 -11054763.26647  -8599088.99244  21504665.5084                   21504660.8444
 11  8 20  2 16  0.0000000  0  9G26G10G29G30G15G12G05G25G02
 -12310575.04345  -9576374.56643  23539090.9224                   23539089.0164
  -1340290.36346  -1032942.51643  23498279.9614                   23498277.7194
 -15251673.26646 -11872316.11744  22467548.7274                   22467546.3134
 -15360894.84847 -11960317.24244  21533236.9774                   21533234.9224
  -8102072.02715                  24444935.492
 -14584352.57846 -11354142.68745  21340019.6484                   21340016.4104
 -21364237.01247 -16580628.60945  20262070.2584                   20262067.5904
 -17363453.70747 -13520942.59845  21466728.6644                   21466729.0434
 -10990196.97747  -8548777.57444  21516951.9774                   21516947.0234
 11  8 20  2 16 30.0000000  0  9G26G10G29G30G15G12G05G25G02
 -12378624.82045  -9629400.27042  23526139.8914                   23526139.5084
  -1209379.13345   -930933.78542  23523190.5474                   23523189.5664
 -15306958.19146 -11915395.20744  22457028.5394                   22457025.8134
 -15317139.16047 -11926221.90645  21541563.3834                   21541561.6804
  -8169061.758 5                  24432188.898
 -14496030.98047 -11285320.67645  21356826.2344                   21356823.4384
 -21311079.52747 -16539207.17245  20272185.8284                   20272183.4304
 -17336661.98447 -13500065.90645  21471826.4924                   21471826.9574
 -10925556.83647  -8498408.60544  21529251.8914                   21529247.8164
 11  8 20  2 17  0.0000000  0  9G26G10G29G30G15G12G05G25G02
 -12446619.65245  -9682383.12143  23513201.8984                   23513201.2424
  -1078327.50846   -828815.60242  23548128.6094                   23548127.3834
 -15362180.38346 -11958425.41044  22446519.0394                   22446517.9924
 -15272823.51647 -11891690.24244  21549996.8134                   21549994.6804
  -8236189.652 5                  24419413.508
 -14407294.56646 -11216175.41045  21373711.8834                   21373709.4144
 -21257421.66047 -16497395.83245  20282396.3834                   20282393.8674
 -17309308.68046 -13478751.60545  21477031.2814                   21477031.6374
 -10860846.14547  -8447984.66044  21541566.8524                   21541561.7034
 11  8 20  2 17 30.0000000  0  9G26G10G29G30G15G12G05G25G02
 -12514541.17246  -9735308.91043  23500277.7034                   23500275.6134
   -947123.21145   -726578.52042  23573095.4384                   23573093.3094
 -15417322.90646 -12001393.53944  22436026.3444                   22436024.1484
 -15227934.44147 -11856711.73444  21558538.7114                   21558536.9454
  -8303438.602 5                  24406616.539
 -14318131.01246 -11146697.32445  21390679.5234                   21390677.1604
 -21203250.35947 -16455184.39845  20292705.6024                   20292702.3244
 -17281379.35247 -13456988.46545  21482346.5944                   21482346.8364
 -10796050.31647  -8397494.39545  21553896.5944                   21553891.8244
 11  8 20  2 18  0.0000000  0  9G26G10G29G30G15G12G05G25G02
 -12582392.49245  -9788179.94943  23487364.9774                   23487364.4024
   -815775.67645   -624229.73042  23598091.5164                   23598089.0864
 -15472390.65646 -12044303.40244  22425546.6724                   22425545.3164
 -15182479.94547 -11821292.64544  21567188.5234                   21567185.9454
  -8370812.398 5                  24393794.859
 -14228549.41447 -11076893.48845  21407725.6884                   21407723.4694
 -21148573.89147 -16412579.33245  20303109.3054                   20303107.5004
 -17252881.10547 -13434782.01245  21487769.6254                   21487769.3014
 -10731175.85947  -8346942.85544  21566241.8284                   21566237.1604
 11  8 20  2 18 30.0000000  0  9G26G10G29G30G15G12G05G25G02
 -12650166.28546  -9840990.58243  23474468.5704                   23474467.4304
   -684283.83246   -521768.56243  23623113.5084                   23623111.7734
 -15527377.85546 -12087150.49644  22415083.2114                   22415081.0664
 -15136457.66846 -11785431.10944  21575945.9614                   21575944.1994
  -8438304.887 5                  24380951.070
 -14138548.68047 -11006763.03945  21424852.7584                   21424850.4264
 -21093390.25847 -16369579.07845  20313610.6484                   20313608.1134
 -17223810.73447 -13412129.73445  21493301.2274                   21493301.1684
 -10666219.53547  -8296327.52344  21578602.8754                   21578597.3204
 11  8 20  2 19  0.0000000  0  9G26G10G29G30G15G12G05G25G02
 -12717862.31646  -9893740.64143  23461586.0004                   23461585.2814
   -552653.20346   -419199.22742  23648161.8134                   23648159.4774
 -15582285.63746 -12129935.71144  22404634.7274                   22404632.9494
 -15089871.95746 -11749130.52344  21584810.3524                   21584809.0474
  -8505916.36746  -6542172.55553  24368084.6644                   24368082.9304
 -14048134.16847 -10936310.18045  21442057.8984                   21442055.2664
 -21037703.99647 -16326187.15645  20324207.5084                   20324204.4614
 -17194171.75047 -13389034.40645  21498941.6254                   21498941.5904
 -10601184.10247  -8245650.56244  21590978.0944                   21590973.7194
 11  8 20  2 19 30.0000000  0  9G26G10G29G30G15G12G05G25G02
 -12785471.02046  -9946422.68043  23448720.5164                   23448719.3404
   -420880.85245   -316519.53542  23673237.0164                   23673233.9304
 -15637106.28146 -12172653.02744  22394202.4304                   22394200.2734
 -15042718.54746 -11712387.59844  21593783.9694                   21593782.2384
  -8573638.62546  -6594942.93443  24355197.4924                   24355196.9574
 -13957302.53947 -10865532.27745  21459342.5864                   21459339.9804
 -20981510.93747 -16282400.33246  20334900.8364                   20334897.5634
 -17163958.94147 -13365491.95345  21504690.7974                   21504690.6844
 -10536063.86747  -8194907.52344  21603369.7974                   21603365.6994
 11  8 20  2 20  0.0000000  0  9G26G10G29G30G15G12G05G25G02
 -12852993.17246  -9999037.23043  23435871.6334                   23435870.7894
   -288973.80945   -213734.84042  23698337.6334                   23698335.2814
 -15691842.13346 -12215304.28144  22383787.2504                   22383784.9024
 -14995003.05147 -11675206.67644  21602863.6174                   21602861.5044
  -8641473.27346  -6647800.88343  24342289.8134                   24342287.9734
 -13866060.99247 -10794434.96945  21476705.4144                   21476702.8444
 -20924817.15247 -16238223.32845  20345689.5864                   20345686.2344
 -17133177.11347 -13341506.08645  21510548.5164                   21510548.0514
 -10470863.21947  -8144101.80944  21615777.9924                   21615773.4184
 11  8 20  2 20 30.0000000  0  9G26G10G29G30G15G12G05G25G02
 -12920423.28946 -10051580.07443  23423040.5634                   23423038.8324
   -156932.51645   -110845.52042  23723464.8594                   23723462.9574
 -15746489.37946 -12257886.49644  22373387.6254                   22373385.6374
 -14946725.02747 -11637587.41044  21612050.4454                   21612048.6564
  -8709415.89146  -6700742.94942  24329359.6174                   24329358.2734
 -13774409.85247 -10723018.50845  21494145.7734                   21494143.1374
 -20867622.41047 -16193655.97745  20356572.6954                   20356570.1094
 -17101824.97747 -13317075.82445  21516514.0704                   21516514.1844
 -10405580.37546  -8093232.04744  21628199.7584                   21628195.6764
 11  8 20  2 21  0.0000000  0  9G26G10G29G30G15G12G05G25G02
 -12987760.67646 -10104050.69943  23410225.5704                   23410224.7464
    -24762.188 5                  23748615.383
 -15801048.88746 -12300400.34844  22363004.8594                   22363003.3674
 -14897888.82047 -11599533.19144  21621344.1414                   21621342.1724
  -8777466.65645  -6753769.36342  24316409.3364                   24316408.8054
 -13682354.71947 -10651287.23045  21511663.4694                   21511660.8324
 -20809931.55947 -16148702.04345  20367550.5004                   20367547.8244
 -17069905.93747 -13292203.82445  21522588.1334                   21522588.0864
 -10340218.50046  -8042300.68744  21640638.1094                   21640634.2504
 11  8 20  2 21 30.0000000  0  9G26G10G29G30G15G12G05G25G02
 -13054998.66846 -10156443.84043  23397431.0704                   23397429.9024
    107537.609 5                  23773790.125
 -15855515.66846 -12342841.93744  22352641.1414                   22352638.6024
 -14848492.82847 -11561042.78544  21630743.7504                   21630741.9414
  -8845620.06245  -6806875.75442  24303440.6094                   24303439.7114
 -13589894.89147 -10579240.62145  21529257.7114                   21529255.5234
 -20751742.98447 -16103360.27745  20378623.5634                   20378621.0434
 -17037417.56647 -13266888.19945  21528770.5784                   21528770.9224
 -10274774.13746  -7991305.06244  21653091.8284                   21653087.3524
 11  8 20  2 22  0.0000000  0  9G26G10G29G30G15G12G05G25G02
 -13122140.60546 -10208762.12143  23384654.9304                   23384652.6684
    239957.145 5                  23798989.570
 -15909894.75446 -12385215.20744  22342292.3284                   22342290.3244
 -14798545.60947 -11522122.85244  21640248.6484                   21640246.3914
  -8913880.36745  -6860065.44943  24290451.3914                   24290450.4144
 -13497040.06647 -10506886.21545  21546927.6024                   21546925.3984
 -20693065.34047 -16057637.40645  20389789.6254                   20389786.9494
 -17004367.55147 -13241134.91845  21535059.5944                   21535059.4104
 -10209254.54746  -7940250.84444  21665559.3444                   21665555.2814
 11  8 20  2 22 30.0000000  0  9G26G10G29G30G15G12G05G25G02
 -13189176.68746 -10260998.01243  23371897.2974                   23371895.8094
    372500.02746    301699.41053  23824212.2504                   23824207.8834
 -15964177.58646 -12427513.46944  22331962.5634                   22331960.7974
 -14748042.45347 -11482769.71944  21649858.8284                   21649856.8714
  -8982238.54345  -6913331.44142  24277442.3524                   24277442.1054
 -13403786.46547 -10434221.08244  21564673.2974                   21564670.7274
 -20633894.16447 -16011529.97745  20401049.9844                   20401046.2814
 -16970750.33247 -13214939.66845  21541457.3674                   21541456.9224
 -10143653.52046  -7889133.15644  21678044.1564                   21678039.1094
 11  8 20  2 23  0.0000000  0  9G26G10G29G30G15G12G05G25G02
 -13256104.18746 -10313149.24243  23359161.5164                   23359160.1994
    505162.79346    405072.93442  23849457.5004                   23849454.0704
 -16018363.00046 -12469735.83244  22321651.0634                   22321649.8524
 -14696985.68447 -11442985.19544  21659574.1954                   21659572.7194
  -9050692.72345  -6966672.21542  24264415.7344                   24264415.2814
 -13310137.52047 -10361247.87545  21582493.8364                   21582491.4304
 -20574232.12147 -15965040.04745  20412402.9774                   20412399.9734
 -16936567.38347 -13188303.60245  21547961.7814                   21547961.5124
 -10077971.89846  -7837952.66444  21690541.9694                   21690537.3984
 11  8 20  2 23 30.0000000  0  9G26G10G29G30G15G12G05G25G02
 -13322924.10946 -10365216.62943  23346445.8984                   23346444.2274
    637938.32846    508534.37543  23874723.9614                   23874721.2814
 -16072454.02346 -12511884.64844  22311358.0784                   22311356.8404
 -14645381.76646 -11402774.32444  21669394.4694                   21669392.6484
  -9119245.24245  -7020089.62142  24251371.2034                   24251369.8444
 -13216100.93047 -10287972.61745  21600388.6024                   21600385.9964
 -20514085.85547 -15918172.81245  20423848.5634                   20423846.1054
 -16901824.16447 -13161230.94545  21554572.7194                   21554572.9774
 -10012214.33246  -7786712.98044  21703055.2664                   21703050.3164
 11  8 20  2 24  0.0000000  0  9G26G10G29G30G15G12G05G25G02
 -13389624.91046 -10417191.15643  23333752.6724                   23333750.8244
    770832.41846    612088.20342  23900012.9614                   23900010.1994
 -16126440.43446 -12553951.95344  22301085.0084                   22301083.0204
 -14593224.06246 -11362131.95344  21679320.1484                   21679318.1484
  -9187885.02345  -7073574.97742  24238309.0784                   24238307.6214
 -13121670.57846 -10214390.52745  21618357.7894                   21618355.2624
 -20453448.89847 -15870923.21945  20435387.0084                   20435384.3984
 -16866513.34847 -13133716.02045  21561292.7344                   21561292.3714
  -9946372.98847  -7735408.03944  21715584.8444                   21715580.0664
 11  8 20  2 24 30.0000000  0  9G26G10G29G30G15G12G05G25G02
 -13456206.85946 -10469073.15243  23321083.1564                   23321081.1564
    903838.09445    715728.96543  23925322.2664                   23925320.0314
 -16180324.44546 -12595939.46544  22290830.8364                   22290829.5784
 -14540518.25446 -11321062.46944  21689349.2274                   21689347.4844
  -9256613.47345  -7127129.46542  24225230.7114                   24225228.1334
 -13026853.68046 -10140507.23444  21636401.0234                   21636398.0474
 -20392326.86747 -15823295.64145  20447018.8594                   20447015.5904
 -16830639.77347 -13105762.57445  21568119.1804                   21568119.4494
  -9880451.88346  -7684040.93444  21728129.3524                   21728124.1334
 11  8 20  2 25  0.0000000  0  9G26G10G29G30G15G12G05G25G02
 -13522663.23446 -10520857.27743  23308436.6804                   23308434.9774
   1036956.12145    819457.27342  23950654.0634                   23950651.7504
 -16234100.57846 -12637842.91044  22280597.8444                   22280596.0124
 -14487262.92246 -11279564.80544  21699483.2814                   21699481.4384
  -9325425.03945  -7180748.81642  24212136.4844                   24212134.0944
 -12931649.73046 -10066322.34845  21654517.6414                   21654515.3554
 -20330718.79347 -15775289.33245  20458742.0234                   20458739.1564
 -16794201.04747 -13077368.76245  21575053.3984                   21575052.8834
  -9814447.51646  -7632608.96544  21740688.8754                   21740684.3524
 11  8 20  2 25 30.0000000  0  9G26G10G29G30G15G12G05G25G02
 -13588994.15246 -10572543.63343  23295814.5314                   23295812.2814
   1170180.07845    923268.07842  23976003.8444                   23976003.7424
 -16287770.44146 -12679663.55944  22270384.7584                   22270382.9494
 -14433463.41046 -11237643.08644  21709721.0704                   21709719.5004
  -9394320.32045  -7234433.32042  24199026.3364                   24199024.5514
 -12836064.79747  -9991840.59045  21672707.4534                   21672705.0554
 -20268630.16047 -15726908.57045  20470556.9304                   20470554.0904
 -16757201.69147 -13048538.09045  21582094.1254                   21582093.8404
  -9748363.87946  -7581115.21544  21753264.7894                   21753260.0664
 11  8 20  2 26  0.0000000  0  9G26G10G29G30G15G12G05G25G02
 -13655191.92246 -10624126.20743  23283215.6644                   23283215.0824
   1303511.59445   1027162.85242  24001376.6094                   24001376.6764
 -16341328.34846 -12721396.95744  22260192.8674                   22260191.3524
 -14379117.45346 -11195295.58644  21720062.1024                   21720060.8404
  -9463292.52745  -7288177.80542  24185900.5784                   24185899.0904
 -12740097.63746  -9917060.99244  21690969.0634                   21690966.9024
 -20206058.72347 -15678151.59045  20482464.2584                   20482461.2814
 -16719638.58647 -13019268.14145  21589241.8364                   21589241.8054
  -9682196.81246  -7529556.44544  21765856.4384                   21765850.8954
 11  8 20  2 26 30.0000000  0  9G26G10G29G30G15G12G05G25G02
 -13721256.23446 -10675604.82443  23270645.6484                   23270644.2704
                                  24026768.3284                   24026767.9774
 -16394775.19946 -12763043.80944  22250021.9144                   22250020.5204
 -14324230.13346 -11152526.24644  21730507.6884                   21730505.2974
  -9532342.54745  -7341982.86342  24172760.2194                   24172759.7074
 -12643754.19546  -9841988.18044  21709302.4534                   21709300.1644
 -20143009.94547 -15629022.66045  20494461.7274                   20494459.2854
 -16681516.03147 -12989562.24645  21596496.4924                   21596496.5944
  -9615949.74646  -7477935.36344  21778462.1334                   21778457.3284
 11  8 20  2 27  0.0000000  0  9G26G10G29G30G15G12G05G25G02
 -13787185.23446 -10726977.99243  23258099.6724                   23258097.8984
   1570475.75445   1235186.80542  24052179.0784                   24052179.0594
 -16448110.67646 -12804603.88344  22239872.8054                   22239871.0784
 -14268804.99646 -11109337.82044  21741054.3134                   21741052.5704
  -9601469.36746  -7395847.82443  24159605.5474                   24159605.0394
 -12547039.16047  -9766625.82044  21727707.2734                   21727704.4494
 -20079487.33247 -15579524.50445  20506550.0164                   20506547.3094
 -16642836.63747 -12959422.46145  21603856.9774                   21603857.2114
  -9549624.43046  -7426253.28944  21791083.2034                   21791078.7774
 11  8 20  2 27 30.0000000  0  9G26G10G29G30G15G12G05G25G02
 -13852976.06646 -10778243.50843  23245579.8054                   23245578.9304
   1704100.74245   1339310.25042  24077606.2344                   24077606.8164
 -16501333.61346 -12846076.24244  22229745.2814                   22229742.9804
 -14212844.57447 -11065732.28944  21751702.9454                   21751701.3634
  -9670671.14146  -7449771.16843  24146437.7194                   24146436.1884
 -12449955.84447  -9690976.49645  21746181.2274                   21746178.3714
 -20015493.52047 -15529659.18045  20518727.1334                   20518724.9064
 -16603602.21947 -12928850.18745  21611323.2584                   21611322.9264
  -9483221.77347  -7374510.95744  21803719.4534                   21803714.8714
 11  8 20  2 28  0.0000000  0  9G26G10G29G30G15G12G05G25G02
 -13918624.35946 -10829397.92243  23233087.0004                   23233086.6524
   1837818.12145   1443505.68442  24103052.6094                   24103051.8014
 -16554441.31646 -12887458.82444  22219638.5704                   22219637.0634
 -14156350.12947 -11021710.65644  21762453.8594                   21762451.8404
  -9739944.68746  -7503750.42643  24133256.5864                   24133254.0634
 -12352506.33247  -9615041.82844  21764725.1484                   21764722.4774
 -19951030.07047 -15479427.89845  20530994.6254                   20530991.3714
 -16563813.05147 -12897845.64145  21618894.6564                   21618894.2974
  -9416740.99246  -7322707.75044  21816370.0944                   21816365.6454
 11  8 20  2 28 30.0000000  0  9G26G10G29G30G15G12G05G25G02
 -13984128.33646 -10880439.91043  23220622.4064                   23220621.5354
   1971623.54345   1547769.59842  24128516.2814                   24128514.1174
 -16607433.59846 -12928751.44944  22209554.3594                   22209552.1414
 -14099325.11746 -10977275.59444  21773305.8054                   21773303.7304
  -9809288.36346  -7557784.35543  24120060.0944                   24120058.7774
 -12254695.08647  -9538825.28545  21783338.3134                   21783335.5634
 -19886100.37547 -15428833.32045  20543349.6564                   20543347.2384
 -16523471.86747 -12866410.94945  21626571.2114                   21626571.3984
  -9350183.68046  -7270844.92244  21829035.8674                   21829031.3484
 11  8 20  2 29  0.0000000  0  9G26G10G29G30G15G12G05G25G02
 -14049482.94146 -10931365.48043  23208186.5084                   23208185.0784
   2105515.82845   1652101.21942  24153994.6954                   24153992.3954
 -16660306.68046 -12969951.18744  22199493.4064                   22199491.4384
 -14041770.08247 -10932427.50444  21784257.1254                   21784255.9024
  -9878698.57446  -7611870.10243  24106851.3444                   24106850.4494
 -12156523.66847  -9462328.09845  21802019.3594                   21802017.4964
 -19820704.92647 -15377875.80545  20555794.1724                   20555791.6174
 -16482578.28947 -12834545.82045  21634352.9454                   21634353.0594
  -9283548.34047  -7218921.28945  21841716.3754                   21841711.4104
 11  8 20  2 29 30.0000000  0  9G26G10G29G30G15G12G05G25G02
 -14114682.78146 -10982170.44943  23195778.9454                   23195777.6214
   2239493.76246   1756499.64142  24179488.9454                   24179486.0394
 -16713056.98846 -13011055.25044  22189455.2034                   22189452.9304
 -13983685.36346 -10887166.69544  21795311.0164                   21795308.6174
  -9948170.93445  -7666004.29343  24093630.4144                   24093629.2424
 -12057993.13347  -9385551.07844  21820770.1414                   21820766.9494
 -19754844.12947 -15326555.68745  20568327.7504                   20568324.0314
 -16441131.81247 -12802249.86345  21642240.4614                   21642239.8954
  -9216833.54347  -7166935.72744  21854411.7424                   21854406.3954
 11  8 20  2 30  0.0000000  0  9G26G10G29G30G15G12G05G25G02
 -14179725.10546 -11032852.71943  23183401.7034                   23183399.9924
   2373554.76246   1860962.82042  24204999.9384                   24204997.3404
 -16765683.09446 -13052062.52044  22179441.4844                   22179438.6994
 -13925073.42646 -10841495.06644  21806465.2974                   21806462.8404
 -10017703.20745  -7720185.19543  24080398.1954                   24080398.1334
 -11959106.96147  -9308496.93745  21839586.9144                   21839584.7424
 -19688521.13347 -15274875.40645  20580948.2584                   20580945.3954
 -16399134.23447 -12769524.48045  21650231.5084                   21650231.9734
  -9150039.89847  -7114888.73044  21867122.3364                   21867116.8094
 11  8 20  2 30 30.0000000  0  9G26G10G29G30G15G12G05G25G02
 -14244604.39845 -11083407.94943  23171056.0634                   23171053.9844
   2507698.32446   1965490.23842  24230527.4384                   24230523.6484
 -16818181.18046 -13092970.05144  22169450.1174                   22169448.3054
 -13865934.45746 -10795412.75444  21817717.8284                   21817716.0434
 -10087290.71145  -7774409.07442  24067156.7664                   24067155.6724
 -11859865.95747  -9231166.28945  21858471.8594                   21858469.4534
 -19621735.47747 -15222834.61745  20593656.8204                   20593654.2504
 -16356584.76647 -12736369.03945  21658328.8674                   21658328.8134
  -9083165.56647  -7062778.85544  21879847.6484                   21879842.1564
 11  8 20  2 31  0.0000000  0  9G26G10G29G30G15G12G05G25G02
 -14309320.26646 -11133835.80543  23158740.2034                   23158739.0314
   2641918.30946   2070077.19542  24256068.7584                   24256064.9574
 -16870552.59446 -13133778.88744  22159484.5004                   22159482.5044
 -13806273.82846 -10748923.95744  21829071.2424                   21829069.9734
 -10156934.31245  -7828676.69943  24053903.6094                   24053903.1764
 -11760276.46146  -9153564.10944  21877423.4534                   21877420.4384
 -19554493.15647 -15170437.98845  20606453.0004                   20606449.5474
 -16313487.97747 -12702787.13745  21666530.3054                   21666529.7074
  -9016213.73846  -7010608.59044  21892588.3984                   21892582.9024
 11  8 20  2 31 30.0000000  0  9G26G10G29G30G15G12G05G25G02
 -14373866.43046 -11184131.42643  23146457.3284                   23146455.8444
   2776214.70345   2174723.68042  24281624.3594                   24281621.1214
 -16922792.29346 -13174485.07044  22149543.5234                   22149541.3714
 -13746090.75446 -10702028.05144  21840524.0864                   21840521.5204
 -10226628.57445  -7882983.81642  24040641.2424                   24040640.5314
 -11660338.59447  -9075690.45344  21896440.3364                   21896437.5474
 -19486793.10247 -15117684.68745  20619335.5704                   20619332.6134
 -16269842.27747 -12668777.50445  21674835.4534                   21674835.1254
  -8949181.79746  -6958375.89544  21905343.9224                   21905338.5744
 11  8 20  2 32  0.0000000  0  9G26G10G29G30G15G12G05G25G02
 -14438237.41446 -11234290.58643  23134208.3914                   23134206.9884
   2910587.38345   2279429.68842  24307194.3914                   24307192.0394
 -16974896.36346 -13215085.58244  22139628.9614                   22139626.4024
 -13685385.43046 -10654725.21544  21852075.5634                   21852073.2034
 -10296368.54745  -7937326.51242  24027371.9844                   24027369.7584
 -11560053.30546  -8997546.09444  21915524.2114                   21915521.4574
 -19418635.80147 -15064575.09045  20632305.3834                   20632302.3914
 -16225647.00847 -12634339.64145  21683245.6024                   21683245.0234
  -8882067.82046  -6906079.29744  21918115.2974                   21918110.3444
 11  8 20  2 32 30.0000000  0  9G26G10G29G30G15G12G05G25G02
 -14502431.18046 -11284311.59843  23121992.4844                   23121991.0634
   3045032.05945   2384191.73842  24332777.9144                   24332775.9804
 -17026864.57046 -13255580.23444  22129739.3444                   22129736.9104
 -13624161.72346 -10607018.41844  21863725.3674                   21863723.8204
 -10366153.42245  -7991704.26643  24014091.2274                   24014089.3014
 -11459424.91846  -8919134.36744  21934672.7974                   21934670.5594
 -19350025.02747 -15011112.14545  20645361.5474                   20645358.4344
 -16180905.27747 -12599475.95745  21691760.2274                   21691759.5944
  -8814873.35246  -6853719.93444  21930901.5944                   21930897.2234
 11  8 20  2 33  0.0000000  0  9G26G10G29G30G15G12G05G25G02
 -14566445.71946 -11334192.98043  23109810.4144                   23109809.1214
   3179544.71555   2489006.85252  24358374.3984                   24358372.8794
 -17078696.19146 -13295968.44944  22119875.8834                   22119874.1254
 -13562423.04746 -10558910.36344  21875473.8444                   21875472.6054
 -10435981.65645  -8046115.73043  24000802.5474                   24000801.4774
 -11358458.03546  -8840458.89544  21953886.4534                   21953883.8014
 -19280964.03947 -14957298.37945  20658503.4144                   20658500.3524
 -16135619.68047 -12564188.48845  21700377.1884                   21700376.9494
  -8747599.99246  -6801299.13744  21943702.9144                   21943699.2464
 11  8 20  2 33 30.0000000  0  9G26G10G29G30G15G12G05G25G02
 -14630278.23446 -11383932.53543  23097663.2504                   23097662.3284
   3314121.81614                  24383982.922
 -17130389.99646 -13336249.28144  22110039.4924                   22110036.9924
 -13500172.53546 -10510403.47744  21887320.4774                   21887318.5824
 -10505851.72745  -8100559.84443  23987506.6174                   23987505.9454
 -11257156.62946  -8761522.74244  21973163.0864                   21973161.1024
 -19211456.05947 -14903136.30945  20671730.2974                   20671727.3284
 -16089792.53147 -12528479.02745  21709097.4224                   21709097.7384
  -8680248.53546  -6748817.46544  21956519.6174                   21956515.5704
 11  8 20  2 34  0.0000000  0  9G26G10G29G30G15G12G05G25G02
 -14693924.24646 -11433526.76643  23085552.8984                   23085550.3524
   3448762.00015                  24409604.438
 -17181943.22746 -13376420.57044  22100228.4304                   22100226.4024
 -13437411.50846 -10461498.79344  21899263.3674                   21899261.3444
 -10575760.00445  -8155033.69543  23974204.4064                   23974202.5164
 -11155522.25846  -8682327.12944  21992504.3594                   21992501.9184
 -19141502.77047 -14848627.24245  20685042.1174                   20685039.4024
 -16043424.34047 -12492347.96945  21717921.2974                   21717921.1844
  -8612818.09846  -6696274.24644  21969352.0084                   21969346.9494
 11  8 20  2 34 30.0000000  0  9G26G10G29G30G15G12G05G25G02
 -14757374.03146 -11482968.10243  23073478.9614                   23073476.2854
   3583468.594 5                  24435239.289
 -17233347.62146 -13416475.89544  22090446.2344                   22090444.2114
 -13374136.08647 -10412193.25444  21911305.0784                   21911302.2704
 -10645697.52046  -8209530.38743  23960895.1094                   23960893.6604
 -11053552.37546  -8602870.09444  22011907.9774                   22011906.2074
 -19071099.92647 -14793767.87545  20698439.5394                   20698436.6454
 -15996510.43047 -12455791.68045  21726848.8364                   21726848.9534
  -8545302.65646  -6643664.78144  21982199.2034                   21982194.9694
 11  8 20  2 35  0.0000000  0  9G26G10G29G30G15G12G05G25G02
 -14820627.34446 -11532256.32443  23061441.3754                   23061439.8404
   3718236.066 5                  24460885.461
 -17284604.37146 -13456416.18444  22080692.7584                   22080690.1174
 -13310351.64847 -10362491.09844  21923442.0474                   21923440.2344
 -10715664.94146  -8264050.34443  23947581.2424                   23947578.5664
 -10951252.86746  -8523156.20744  22031375.3754                   22031372.9304
 -19000252.92247 -14738562.41045  20711920.4384                   20711918.5664
 -15949055.43747 -12418813.76645  21735879.5394                   21735879.1414
  -8477705.38346  -6590991.55544  21995063.0234                   21995058.1254
 11  8 20  2 35 30.0000000  0  9G26G10G29G30G15G12G05G25G02
 -14883677.96546 -11581386.56643  23049442.4614                   23049441.5704
   3853064.437 5                  24486541.711
 -17335708.53546 -13496237.56644  22070967.9844                   22070966.3364
 -13246057.70346 -10312391.91444  21935677.0084                   21935674.8794
 -10785656.77046  -8318589.34843  23934262.9614                   23934259.7584
 -10848624.05146  -8443185.71544  22050904.5944                   22050902.1214
 -18928961.31247 -14683010.50445  20725487.2584                   20725484.9494
 -15901058.02047 -12381413.18445  21745013.0084                   21745012.3984
  -8410023.74647  -6538252.58644  22007942.3594                   22007937.7854
 11  8 20  2 36  0.0000000  0  9G26G10G29G30G15G12G05G25G02
 -14946528.82846 -11630361.21543  23037482.6564                   23037481.1374
   3987944.781 5                  24512209.273
 -17386664.89546 -13535943.77744  22061271.7034                   22061269.0784
 -13181263.41047 -10261902.84844  21948006.7274                   21948004.8914
 -10855676.79346  -8373150.28543  23920937.9614                   23920934.9694
 -10745675.79746  -8362966.30544  22070495.1724                   22070492.1454
 -18857234.29747 -14627119.30545  20739136.4064                   20739133.7704
 -15852526.50047 -12343596.40245  21754248.5314                   21754248.2894
  -8342264.28147  -6485452.97744  22020836.6024                   22020831.5514
 11  8 20  2 36 30.0000000  0  9G26G10G29G30G15G12G05G25G02
 -15009175.64546 -11679176.84843  23025562.3134                   23025559.6844
   4122875.594 5                  24537884.789
 -17437470.32446 -13575532.38344  22051602.7814                   22051600.9614
 -13115969.88347 -10211024.76644  21960432.1804                   21960429.3484
 -10925721.55546  -8427730.51643  23907608.4384                   23907606.4804
 -10642409.87146  -8282499.35245  22090145.5474                   22090143.6564
 -18785072.89547 -14570889.62545  20752868.4454                   20752865.5004
 -15803461.34047 -12305363.81245  21763584.9144                   21763584.4924
  -8274425.83247  -6432591.80144  22033745.1024                   22033740.9654
 11  8 20  2 37  0.0000000  0  9G26G10G29G30G15G12G05G25G02
 -15071614.69546 -11727830.60543  23013679.1414                   23013677.8674
   4257854.148 5                  24563570.742
 -17488123.16846 -13615002.09044  22041964.2114                   22041962.2424
 -13050179.97346 -10159759.89144  21972951.2584                   21972948.8524
 -10995788.45746  -8482328.00843  23894275.2034                   23894272.3834
 -10538829.65647  -8201787.50445  22109857.2504                   22109854.5634
 -18712479.75447 -14514323.53145  20766681.7584                   20766679.3524
 -15753864.47747 -12266716.90245  21773022.4694                   21773022.5234
  -8206508.87546  -6379669.46544  22046669.8054                   22046664.9534
 11  8 20  2 37 30.0000000  0  9G26G10G29G30G15G12G05G25G02
 -15133845.06646 -11776321.73843  23001837.4144                   23001836.1724
   4392875.648 5                  24589263.656
 -17538623.53146 -13654352.97344  22032354.2114                   22032351.6484
 -12983898.03547 -10108111.63744  21985564.3204                   21985562.1914
 -11065876.90646  -8536942.25443  23880937.7974                   23880934.0634
 -10434940.25846  -8120834.72344  22129626.6094                   22129623.9774
 -18639459.48047 -14457424.59845  20780577.9384                   20780574.6214
 -15703739.59047 -12227658.53545  21782560.6884                   21782561.3244
  -8138515.66046  -6326687.69944  22059608.2734                   22059603.9144
 11  8 20  2 38  0.0000000  0  9G26G10G29G30G15G12G05G25G02
 -15195859.73846 -11824644.78943  22990037.2424                   22990035.9064
   4527941.004 5                  24614966.516
 -17588966.14546 -13693580.94544  22022774.3364                   22022771.9144
 -12917123.31647 -10056079.37144  21998271.0474                   21998269.2544
 -11135980.82445  -8591568.59043  23867597.2114                   23867593.7344
 -10330741.55546  -8039640.92244  22149455.0084                   22149452.3714
 -18566010.93447 -14400191.95345  20794554.4844                   20794551.6214
 -15653085.07447 -12188187.47345  21792200.6564                   21792200.3754
  -8070442.91046  -6273643.97344  22072562.4844                   22072557.1954
 11  8 20  2 38 30.0000000  0 10G26G10G29G30G15G12G05G25G02G21
 -15257655.62146 -11872797.35943  22978276.9534                   22978275.9494
   4663047.176 5                  24640676.484
 -17639149.30946 -13732684.67244  22013224.5234                   22013222.7504
 -12849858.76647 -10003665.44144  22011071.2194                   22011068.7424
 -11206098.25445  -8646205.39842  23854253.6954                   23854251.2774
 -10226237.32446  -7958209.05545  22169340.4534                   22169338.9774
 -18492137.16847 -14342627.96145  20808612.1644                   20808609.4804
 -15601903.16847 -12148305.46545  21801940.1254                   21801939.7304
  -8002291.12146  -6220538.65644  22085530.6174                   22085526.3594
  -7920340.76615                  25267372.781
 11  8 20  2 39  0.0000000  0 10G26G10G29G30G15G12G05G25G02G21
 -15319232.64846 -11920779.37543  22966559.2974                   22966558.6254
   4798188.422 5                  24666393.531
 -17689174.41046 -13771665.21944  22003704.9224                   22003703.1134
 -12782110.01247  -9950874.18744  22023963.5784                   22023960.9694
 -11276229.58245  -8700853.07043  23840907.9064                   23840905.3674
 -10121433.64146  -7876543.84844  22189284.4844                   22189282.1254
 -18417843.80547 -14284737.02045  20822749.7034                   20822747.1294
 -15550198.70347 -12108016.25845  21811779.0234                   21811779.3834
  -7934063.24646  -6167374.06644  22098513.9774                   22098509.2544
  -7950238.820 5                  25261682.633
 11  8 20  2 39 30.0000000  0 10G26G10G29G30G15G12G05G25G02G21
 -15380588.76646 -11968589.31243  22954884.0864                   22954882.2074
   4933360.465 5                  24692116.273
 -17739041.09046 -13810522.33644  21994216.7424                   21994213.8484
 -12713881.39846  -9897709.04344  22036946.2894                   22036944.5394
 -11346373.96945  -8755510.90242  23827559.2034                   23827557.2034
 -10016335.54347  -7794649.23044  22209284.5004                   22209281.3834
 -18343135.22747 -14226522.53945  20836966.4774                   20836963.5124
 -15497975.25047 -12067322.66845  21821717.0944                   21821716.5824
  -7865761.62546  -6114152.00044  22111510.8134                   22111506.8444
  -7980138.121 5                  25255994.172
 11  8 20  2 40  0.0000000  0  9G26G29G30G15G12G05G25G02G21
 -15441719.00846 -12016223.18443  22943250.2274                   22943249.3324
 -17788745.29346 -13849252.83244  21984757.8754                   21984755.3484
 -12645173.45346  -9844170.39144  22050020.9064                   22050019.6414
 -11416526.99245  -8810175.46143  23814209.7584                   23814207.9384
  -9910944.29747  -7712526.18045  22229339.7274                   22229337.2234
 -18268011.31247 -14167984.41445  20851262.2424                   20851259.3054
 -15445232.67247 -12026224.53945  21831753.6334                   21831753.3134
  -7797384.14546  -6060870.82444  22124522.4224                   22124518.6564
  -8010037.73815                  25250303.820
 11  8 20  2 40 30.0000000  0  9G26G29G30G15G12G05G25G02G21
 -15502614.19546 -12063673.91443  22931662.5784                   22931661.1564
 -17838279.66446 -13887851.00444  21975331.4384                   21975329.3244
 -12575983.38346  -9790256.05544  22063187.7664                   22063185.8554
 -11486680.17245  -8864840.13743  23800860.0784                   23800858.2344
  -9805257.41446  -7630172.76645  22249450.7734                   22249448.7974
 -18192469.31247 -14109120.50445  20865637.2194                   20865634.1644
 -15391967.28947 -11984719.03545  21841889.7814                   21841889.8014
  -7728925.34846  -6007526.28944  22137550.8204                   22137545.9534
  -8039932.961 5                  25244615.703
 11  8 20  2 41  0.0000000  0  9G26G29G30G15G12G05G25G02G21
 -15563270.72746 -12110938.69143  22920119.8284                   22920117.7934
 -17887642.00846 -13926315.12944  21965938.5234                   21965936.2424
 -12506313.68746  -9735967.98844  22076445.3834                   22076443.2934
 -11556830.84045  -8919502.86743  23787510.2894                   23787508.7504
  -9699278.00046  -7547591.40644  22269618.0474                   22269615.7274
 -18116511.88347 -14049932.89145  20880091.1414                   20880088.0354
 -15338180.88747 -11942807.54345  21852124.2814                   21852124.6254
  -7660385.31647  -5954118.46144  22150593.4844                   22150588.5514
  -8069824.133 5                  25238927.977
 11  8 20  2 41 30.0000000  0  9G26G29G30G15G12G05G25G02G21
 -15623677.78146 -12158009.03943  22908624.6954                   22908623.1954
 -17936823.26646 -13964638.13344  21956579.8674                   21956577.1644
 -12436159.84446  -9681302.66444  22089795.0784                   22089793.3244
 -11626969.23845  -8974156.00842  23774163.5314                   23774161.7854
  -9593002.44946  -7464779.28144  22289840.9064                   22289839.4574
 -18040134.11347 -13990417.74245  20894625.9774                   20894622.9694
 -15283868.19947 -11900485.96945  21862459.4224                   21862459.9384
  -7591756.98846  -5900641.83244  22163652.9384                   22163647.9064
                                  25233240.203
 11  8 20  2 42  0.0000000  0  9G26G29G30G15G12G05G25G02G21
 -15683830.66446 -12204881.35243  22897177.9924                   22897176.1884
 -17985819.86347 -14002817.26644  21947256.2114                   21947253.4414
 -12365522.79746  -9626260.80544  22103236.5944                   22103235.4734
 -11697090.87546  -9028796.16843  23760820.2114                   23760818.3634
  -9486432.18746  -7381737.51644  22310120.9774                   22310118.8794
 -17963337.09047 -13930575.89845  20909239.5474                   20909236.6454
 -15229029.51647 -11857754.52045  21872895.1024                   21872895.5514
  -7523038.88747  -5847095.26644  22176729.8284                   22176724.6054
  -8129575.973 5                  25227554.016
 11  8 20  2 42 30.0000000  0  9G26G29G30G15G12G05G25G02G21
 -15743733.42646 -12251558.75043  22885780.6804                   22885776.9184
 -18034637.32047 -14040856.79344  21937965.6884                   21937963.3554
 -12294413.04346  -9570850.60944  22116768.3914                   22116766.5044
 -11767200.95346  -9083427.30943  23747478.7814                   23747476.8204
  -9379578.14846  -7298474.64844  22330454.7274                   22330452.0904
 -17886130.91447 -13870415.23445  20923931.0394                   20923928.4774
 -15173674.50447 -11814620.74245  21883429.3204                   21883429.0784
  -7454238.59447  -5793484.65644  22189822.2034                   22189816.5904
  -8159444.359 4                  25221871.992
 11  8 20  2 43  0.0000000  0  9G26G29G30G15G12G05G25G02G21
 -15803380.83646 -12298037.21543  22874428.4384                   22874426.7974
 -18083271.76246 -14078753.71944  21928711.1484                   21928708.3484
 -12222831.14146  -9515072.50844  22130390.0394                   22130388.5664
 -11837294.83646  -9138045.82843  23734140.1724                   23734137.0314
  -9272441.28946  -7214991.37944  22350842.6724                   22350839.7584
 -17808516.22347 -13809936.25045  20938700.4454                   20938697.9574
 -15117803.05147 -11771084.53945  21894060.6644                   21894061.3914
  -7385354.17247  -5739808.47744  22202930.2274                   22202924.5744
  -8189309.05115                  25216186.289
 11  8 20  2 43 30.0000000  0  9G26G29G30G15G12G05G25G02G21
 -15862773.76646 -12344317.34443  22863125.9534                   22863124.4224
 -18131725.83246 -14116510.10544  21919490.6174                   21919488.4024
 -12150784.48447  -9458932.25444  22144100.2584                   22144099.0274
 -11907374.25446  -9192653.09843  23720804.3594                   23720802.2234
  -9165029.62946  -7131293.99644  22371282.0004                   22371279.7274
 -17730500.09847 -13749144.45345  20953546.8284                   20953544.1414
 -15061421.81647 -11727151.10945  21904790.2584                   21904790.4844
  -7316390.18047  -5686070.29744  22216053.7584                   22216048.3094
  -8219175.53515                  25210506.680
 11  8 20  2 44  0.0000000  0  9G26G29G30G15G12G05G25G02G21
 -17497324.08946 -13617992.87443  22552081.6094                   22552079.9804
 -19755411.94546 -15381720.01244  21610512.9924                   21610511.0824
 -13653686.59046 -10630024.80544  21858107.6644                   21858106.5474
 -13552851.96946 -10474843.45743  23407680.8524                   23407678.3594
 -10632756.21946  -8274977.06344  22091982.4224                   22091980.5514
 -19227495.60547 -14915634.45745  20668677.5004                   20668675.4064
 -16579944.06647 -12910415.19145  21615825.1484                   21615824.8404
  -8822757.70746  -6859863.16844  21929401.0704                   21929396.1644
  -9824459.301 5                  24905030.102
 11  8 20  2 44 30.0000000  0  9G26G29G30G15G12G05G25G02G21
 -17556180.17246 -13663854.71143  22540882.0234                   22540879.3484
 -19803481.15247 -15419176.49644  21601365.5314                   21601363.4924
 -13580700.60246 -10573152.61744  21871996.7584                   21871994.8204
 -13622876.75446 -10529408.14843  23394355.2974                   23394353.1724
 -10524787.03946  -8190845.24644  22112529.0704                   22112526.5824
 -19148666.15647 -14854208.89845  20683678.8914                   20683676.1724
 -16522531.27747 -12865677.94545  21626749.8524                   21626750.0204
  -8753617.12146  -6805987.38344  21942557.8364                   21942552.9414
  -9854314.258 5                  24899349.609
 11  8 20  2 45  0.0000000  0  9G26G29G30G15G12G05G25G02G21
 -17614769.94946 -13709509.01643  22529733.4844                   22529730.0824
 -19851362.32046 -15456486.45344  21592254.5784                   21592252.0904
 -13507256.47746 -10515923.41444  21885972.6884                   21885970.7584
 -13692877.23846 -10583953.89843  23381034.3834                   23381032.8484
 -10416551.18046  -8106505.64544  22133125.5084                   22133122.6374
 -19069441.33247 -14792475.25845  20698754.8834                   20698752.3094
 -16464613.14147 -12820546.93745  21637771.9384                   21637771.4844
  -8684395.79746  -6752048.66844  21955730.6094                   21955724.9804
  -9884171.809 5                  24893667.539
 11  8 20  2 45 30.0000000  0  9G26G29G30G15G12G05G25G02G21
 -17673093.64146 -13754956.02743  22518634.6024                   22518632.0474
 -19899057.01247 -15493651.12144  21583178.4144                   21583175.9454
 -13433360.63346 -10458342.23044  21900033.9144                   21900032.6214
 -13762854.69946 -10638481.73443  23367718.2814                   23367715.7234
 -10308055.44146  -8021963.52744  22153771.3674                   22153768.2584
 -18989827.28547 -14730438.32845  20713904.6884                   20713901.9654
 -16406195.39847 -12775026.62945  21648888.3204                   21648888.1334
  -8615097.33646  -6698049.89144  21968917.6564                   21968912.4734
  -9914036.781 5                  24887982.781
 11  8 20  2 46  0.0000000  0  9G26G29G30G15G12G05G25G02G21
 -17731140.45746 -13800187.24643  22507587.3364                   22507586.3444
 -19946555.62546 -15530662.98444  21574139.9694                   21574137.2584
 -13359008.41446 -10400405.42644  21914183.1804                   21914181.6994
 -13832798.85946 -10692983.62943  23354408.7584                   23354405.6174
 -10199295.91446  -7937215.85944  22174467.7734                   22174464.7114
 -18909819.32447 -14668094.44945  20729129.8594                   20729126.9064
 -16347272.72347 -12729112.84045  21660100.7274                   21660100.2424
  -8545713.99646  -6643984.94144  21982120.1724                   21982115.5984
  -9943902.363 5                  24882299.508
 11  8 20  2 46 30.0000000  0  9G26G29G30G15G12G05G25G02G21
 -17788903.89846 -13845197.70343  22496596.3204                   22496593.9144
 -19993853.38346 -15567518.35945  21565139.6334                   21565136.8244
 -13284199.64146 -10342112.86344  21928419.4304                   21928416.9064
 -13902703.86746 -10747454.97743  23341106.1884                   23341102.9844
 -10090272.70746  -7852262.70744  22195214.0944                   22195211.9534
 -18829417.20747 -14605443.44145  20744429.8444                   20744427.1054
 -16287844.19947 -12682804.89845  21671409.7664                   21671409.8244
  -8476243.09046  -6589851.78944  21995340.0004                   21995335.5664
  -9973766.422 5                  24876614.875
 11  8 20  2 47  0.0000000  0  9G26G29G30G15G12G05G25G02G21
 -17846384.72746 -13889987.92243  22485657.3134                   22485655.8874
 -20040952.29347 -15604218.77345  21556176.3594                   21556174.6454
 -13208941.36746 -10283470.03944  21942739.8364                   21942737.5204
 -13972571.32046 -10801897.09843  23327810.8284                   23327807.5784
  -9980993.35946  -7767109.98444  22216009.4224                   22216006.8204
 -18748627.02747 -14542490.03945  20759803.7664                   20759800.9304
 -16227916.16047 -12636107.72345  21682813.5164                   21682813.4494
  -8406688.87146  -6535653.69944  22008576.8134                   22008571.9804
 -10003634.02345  -7791452.11752  24870932.4844                   24870931.3244
 11  8 20  2 47 30.0000000  0  9G26G29G30G15G12G05G25G02G21
 -17903577.47346 -13934553.66843  22474774.5554                   22474772.2544
 -20087848.30947 -15640761.08644  21547252.7974                   21547249.8914
 -13133234.48447 -10224477.65644  21957146.0004                   21957144.4654
 -14042396.66046 -10856306.37143  23314522.8204                   23314520.8754
  -9871459.03546  -7681758.59844  22236852.8834                   22236851.1134
 -18667449.73047 -14479234.98445  20775251.3204                   20775248.4534
 -16167488.78947 -12589021.44545  21694312.0554                   21694311.9574
  -8337049.25046  -6481389.07044  22021827.9144                   22021823.9144
 -10033503.81645  -7814727.10242  24865249.5394                   24865245.5124
 11  8 20  2 48  0.0000000  0  9G26G29G30G15G12G05G25G02G21
 -17960480.16446 -13978893.36743  22463945.3204                   22463943.6954
 -20134540.42647 -15677144.52044  21538367.2734                   21538364.6954
 -13057082.96546 -10165138.80144  21971637.2664                   21971635.2344
 -14112178.15246 -10910681.49243  23301243.2274                   23301241.9384
  -9761674.26646  -7596212.03144  22257744.4224                   22257742.7234
 -18585889.08647 -14415681.22345  20790771.5084                   20790768.7234
 -16106565.52347 -12541548.77345  21705906.0864                   21705905.7464
  -8267325.29346  -6427058.72744  22035096.6254                   22035092.2814
 -10063377.95345  -7838005.58242  24859564.4384                   24859560.7424
 11  8 20  2 48 30.0000000  0  9G26G29G30G15G12G05G25G02G21
 -18017095.19146 -14023008.94543  22453172.8914                   22453171.2974
 -20181032.89547 -15713372.37445  21529520.3134                   21529517.4144
 -12980495.86746 -10105460.54344  21986211.1334                   21986209.4144
 -14181919.27546 -10965025.10243  23287971.9924                   23287970.1684
  -9651648.57446  -7510477.74244  22278681.8054                   22278679.4574
 -18503954.21547 -14351835.85945  20806363.6954                   20806360.5474
 -16045154.60247 -12493696.10545  21717592.3444                   21717591.7734
  -8197523.62946  -6372667.82444  22048379.1954                   22048375.1054
 -10093263.42245  -7861292.83642  24853875.3134                   24853872.7854
 11  8 20  2 49  0.0000000  0  9G26G29G30G15G12G05G25G02G21
 -18073409.38746 -14066890.07443  22442455.5704                   22442453.4844
 -20227313.95347 -15749435.49245  21520713.8134                   21520710.7624
 -12903466.34046 -10045437.52044  22000869.7734                   22000867.4924
 -14251607.22346 -11019327.32043  23274711.7734                   23274709.2814
  -9541375.29346  -7424550.52044  22299665.9924                   22299663.0394
 -18421637.97347 -14287693.34045  20822027.8914                   20822024.3364
 -15983248.52347 -12445457.59445  21729371.9614                   21729372.0704
  -8127634.15646  -6318208.51644  22061679.0784                   22061674.3794
 -10123151.23845  -7884581.97342  24848190.8674                   24848185.6724
 11  8 20  2 49 30.0000000  0  9G26G29G30G15G12G05G25G02G21
 -18129429.24246 -14110541.86343  22431796.2894                   22431794.1214
 -20273391.12547 -15785339.75045  21511944.2584                   21511942.2774
 -12826007.12146  -9985079.68444  22015609.7664                   22015607.3484
 -14321249.16446 -11073593.66443  23261459.1094                   23261456.1094
  -9430867.62146  -7338440.64144  22320695.4694                   22320692.7584
 -18338952.28547 -14223262.92245  20837761.8984                   20837759.1254
 -15920859.33247 -12396842.63745  21741244.7734                   21741244.3954
  -8057666.87547  -6263688.56344  22074993.1254                   22074988.4844
 -10153052.00845  -7907881.18842  24842501.6804                   24842495.7584
 11  8 20  2 50  0.0000000  0  9G26G29G30G15G12G05G25G02G21
 -18185147.60246 -14153958.70343  22421192.6484                   22421191.6054
 -20319258.68747 -15821080.67245  21503216.7424                   21503214.0084
 -12748117.14546  -9924386.19944  22030432.2424                   22030429.5124
 -14390838.87946 -11127819.32843  23248216.1254                   23248214.3364
  -9320124.96946  -7252147.65244  22341768.2194                   22341766.3324
 -18255896.07447 -14158543.78545  20853567.2734                   20853564.0514
 -15857985.52747 -12347850.06645  21753209.2194                   21753209.2464
  -7987617.75446  -6209104.85244  22088323.6484                   22088318.6414
 -10182962.79345  -7931188.22742  24836807.8914                   24836805.3484
 11  8 20  2 50 30.0000000  0  9G26G29G30G15G12G05G25G02G21
 -18240556.74646 -14197134.60543  22410648.9694                   22410647.8134
 -20364910.59847 -15856653.55944  21494528.8754                   21494526.6334
 -12669795.34846  -9863356.20744  22045335.3594                   22045333.7034
 -14460369.18046 -11181998.66443  23234984.0084                   23234982.5554
  -9209146.64546  -7165671.05144  22362887.7814                   22362885.0784
 -18172468.09847 -14093534.97345  20869442.7424                   20869439.3984
 -15794625.12947 -12298478.32445  21765266.1094                   21765266.0904
  -7917482.59446  -6154454.08644  22101669.4224                   22101664.6604
 -10212880.12145  -7954500.32042  24831116.6954                   24831110.9694
 11  8 20  2 51  0.0000000  0  9G26G29G30G15G12G05G25G02G21
 -18295645.65246 -14240060.94943  22400165.3134                   22400163.7854
 -20410337.03946 -15892050.75444  21485883.8524                   21485882.3204
 -12591037.14846  -9801986.18744  22060321.9304                   22060320.9694
 -14529829.69146 -11236123.64543  23221767.3054                   23221764.1484
  -9097928.18446  -7079007.32844  22384051.2114                   22384049.3164
 -18088663.38747 -14028232.59045  20885390.4534                   20885387.4454
 -15730772.96547 -12248723.40245  21777416.5084                   21777416.5864
  -7847253.95347  -6099730.47344  22115033.8834                   22115028.7034
 -10242797.32445  -7977812.31642  24825421.2664                   24825417.9144
 11  8 20  2 51 30.0000000  0  9G26G29G30G15G12G05G25G02G21
 -18350415.07446 -14282738.36743  22389744.0944                   22389741.8134
 -20455539.64547 -15927273.50844  21477282.7734                   21477280.4694
 -12511849.20746  -9740281.30944  22075392.1414                   22075389.9104
 -14599221.51646 -11290195.13343  23208562.1024                   23208559.9144
  -8986476.93046  -6992162.18844  22405259.5314                   22405257.8874
 -18004488.28547 -13962641.60545  20901408.1334                   20901405.7504
 -15666435.05147 -12198589.96545  21789660.2114                   21789659.9384
  -7776935.31346  -6044936.72344  22128414.8364                   22128410.0664
 -10272718.88345  -8001127.75042  24819728.3284                   24819724.1214
 11  8 20  2 52  0.0000000  0  9G26G29G30G15G12G05G25G02G21
 -18404864.94146 -14325166.78544  22379382.5234                   22379379.7344
 -20500520.20747 -15962323.26644  21468723.3134                   21468721.1454
 -12432238.31646  -9678246.84844  22090541.3594                   22090539.7974
 -14668545.60946 -11344213.78543  23195370.2344                   23195368.0904
  -8874799.73846  -6905140.98444  22426510.8444                   22426508.8444
 -17919949.17647 -13896766.96945  20917496.1644                   20917493.4494
 -15601617.64147 -12148082.89145  21801994.1804                   21801994.3364
  -7706530.96946  -5990076.18044  22141812.4534                   22141807.7154
 -10302649.34845  -8024450.12542  24814033.7814                   24814027.8594
 11  8 20  2 52 30.0000000  0  9G26G29G30G15G12G05G25G02G21
 -18458995.40246 -14367346.33244  22369081.6174                   22369079.1884
 -20545279.79746 -15997200.83644  21460205.7194                   21460203.4654
 -12352210.66046  -9615887.62944  22105770.0084                   22105768.1214
 -14737802.50446 -11398180.11743  23182189.8594                   23182188.7544
  -8762903.05946  -6817948.76644  22447804.0634                   22447802.4024
 -17835051.89147 -13830613.24645  20933651.3984                   20933648.4104
 -15536326.16847 -12097206.43045  21814419.1564                   21814419.1884
  -7636043.85546  -5935151.16444  22155225.4064                   22155221.1374
 -10332592.60545  -8047782.33642  24808332.7894                   24808330.2154
 11  8 20  2 53  0.0000000  0  9G26G29G30G15G12G05G25G02G21
 -18512805.79746 -14409276.44944  22358841.4224                   22358839.5554
 -20589819.00446 -16031906.67645  21451730.5474                   21451727.7584
 -12271772.23846  -9553208.34444  22121077.2114                   22121075.0554
 -14806992.30146 -11452094.17643  23169023.5704                   23169021.8984
  -8650793.30546  -6730590.52044  22469138.0864                   22469135.9774
 -17749802.18747 -13764184.89845  20949873.6484                   20949870.7774
 -15470565.98847 -12045964.74245  21826932.6884                   21826933.0354
  -7565476.64846  -5880163.73444  22168653.6024                   22168649.4964
 -10362552.65245  -8071127.84042  24802631.0084                   24802629.1294
 11  8 20  2 53 30.0000000  0  9G26G29G30G15G12G05G25G02G21
 -18566287.97346 -14450950.80943  22348664.9844                   22348662.3914
 -20634131.24647 -16066435.67645  21443298.0554                   21443295.4414
 -12190921.07846  -9490207.44944  22136462.3134                   22136460.9494
 -14876107.49246 -11505950.07843  23155872.2194                   23155868.9184
  -8538469.04746  -6643065.11744  22490513.0394                   22490510.6024
 -17664197.83247 -13697480.19545  20966163.8524                   20966160.6884
 -15404334.71947 -11994355.97345  21839535.9454                   21839536.0124
  -7494824.71146  -5825110.27044  22182098.5554                   22182094.0514
 -10392525.35945  -8094483.07442  24796927.4694                   24796925.5944
 11  8 20  2 54  0.0000000  0  9G26G29G30G15G12G05G25G02G21
 -18619434.71146 -14492363.78544  22338551.0554                   22338548.5744
 -20678210.91447 -16100783.44145  21434910.2974                   21434906.9144
 -12109656.70746  -9426884.57044  22151926.4454                   22151924.9734
 -14945141.27746 -11559742.58243  23142734.9774                   23142732.3634
  -8425929.79746  -6555372.20744  22511928.2114                   22511926.4224
 -17578237.80547 -13630498.35945  20982521.4384                   20982518.3554
 -15337631.05547 -11942379.10545  21852228.5784                   21852229.5824
  -7424084.28146  -5769987.83644  22195559.7504                   22195555.6174
 -10422507.92645  -8117846.01642  24791221.9924                   24791220.7114
 11  8 20  2 54 30.0000000  0  9G26G29G30G15G12G05G25G02G21
 -18672237.18746 -14533508.52344  22328502.8134                   22328501.0164
 -20722049.85547 -16134943.62544  21426567.5554                   21426564.9654
 -12027976.39546  -9363237.57444  22167469.8284                   22167468.5704
 -15014085.36346 -11613465.15643  23129615.9534                   23129612.8444
  -8313172.92246  -6467509.72344  22533384.7194                   22533382.9264
 -17491919.16847 -13563237.09045  20998946.8054                   20998944.1844
 -15270451.69147 -11890031.56645  21865013.3914                   21865013.1454
  -7353249.48046  -5714791.89844  22209038.8134                   22209034.7734
 -10452495.21145  -8141212.53142  24785516.6174                   24785512.9264
 11  8 20  2 55  0.0000000  0  9G26G29G30G15G12G05G25G02G21
 -18724702.60246 -14574390.60944  22318519.0004                   22318516.9304
 -20765656.66447 -16168922.92245  21418269.2584                   21418266.8284
 -11945894.03546  -9299277.30544  22183090.0234                   22183087.6914
 -15082947.79346 -11667124.10243  23116511.6094                   23116508.5164
  -8200212.62146  -6379488.71144  22554880.6804                   22554878.2734
 -17405255.44547 -13495706.91445  21015439.1804                   21015436.2934
 -15202809.91447 -11837323.70345  21877885.1804                   21877884.5864
  -7282331.29346  -5659530.96944  22222533.8984                   22222529.8714
 -10482499.07445  -8164592.05942  24779805.8834                   24779803.8484
 11  8 20  2 55 30.0000000  0  9G26G29G30G15G12G05G25G02G21
 -18776820.91846 -14615002.22743  22308601.2734                   22308598.8014
 -20809022.70747 -16202714.60945  21410017.3524                   21410014.6454
 -11863405.85946  -9235000.81644  22198786.6804                   22198785.2464
 -15151718.90246 -11720711.90643  23103424.6884                   23103423.0044
  -8087045.74646  -6291306.71944  22576415.0314                   22576413.0204
 -17318242.44547 -13427904.57845  21031997.2274                   21031994.1254
 -15134701.43447 -11784252.17245  21890845.7194                   21890845.2504
  -7211322.69946  -5604199.60944  22236046.9534                   22236042.2304
 -10512513.27745  -8187979.53942  24774095.1174                   24774091.9774
 11  8 20  2 56  0.0000000  0  9G26G29G30G15G12G05G25G02G21
 -18828595.92246 -14655346.32843  22298748.3914                   22298745.9774
 -20852153.21547 -16236322.78145  21401809.7274                   21401807.4304
 -11780522.23446  -9170416.17644  22214558.7034                   22214557.1374
 -15220402.91046 -11774231.85943  23090354.1724                   23090352.2384
  -7973682.38346  -6202971.62144  22597987.3284                   22597985.5084
 -17230889.90247 -13359837.65645  21048619.5394                   21048616.7934
 -15066135.94947 -11730824.53945  21903892.8134                   21903893.1684
  -7140230.84846  -5548803.36343  22249575.4534                   22249570.5274
 -10542546.03145  -8211381.57842  24768381.7034                   24768376.3204
 11  8 20  2 56 30.0000000  0  9G26G29G30G15G12G05G25G02G21
 -18880017.05146 -14695414.68943  22288963.1414                   22288961.3444
 -20895038.66847 -16269739.98445  21393648.7584                   21393646.5984
 -11697238.89146  -9105520.08244  22230407.5554                   22230405.2504
 -15288989.93846 -11827676.21943  23077302.7974                   23077300.2424
  -7860119.05946  -6114480.71144  22619598.2194                   22619596.3594
 -17143193.48447 -13291502.78145  21065307.2584                   21065304.6214
 -14997108.60547 -11677037.03545  21917028.9454                   21917028.6724
  -7069048.39146  -5493336.50844  22263120.7894                   22263115.9344
 -10572590.84445  -8234792.86342  24762660.7814                   24762659.5354
 11  8 20  2 57  0.0000000  0  9G26G29G30G15G12G05G25G02G21
 -18931083.80546 -14735206.90644  22279245.9844                   22279243.6024
 -20937679.96947 -16302966.94945  21385534.7814                   21385531.4534
 -11613561.92246  -9040317.27044  22246330.1564                   22246328.6374
 -15357480.09446 -11881045.12543  23064269.5004                   23064267.2464
  -7746361.79746  -6025838.69644  22641245.1884                   22641243.1334
 -17055158.45347 -13222904.04745  21082060.1804                   21082057.0474
 -14927624.93047 -11622893.92245  21930251.5234                   21930250.9774
  -6997778.37546  -5437801.42244  22276683.5004                   22276678.4774
 -10602651.21545  -8258216.34042  24756940.7584                   24756938.4304
 11  8 20  2 57 30.0000000  0  9G26G29G30G15G12G05G25G02G21
 -18981793.94546 -14774721.26244  22269595.7344                   22269593.8594
 -20980075.93447 -16336002.73445  21377466.9694                   21377464.3524
 -11529495.52746  -8974811.01644  22262327.7734                   22262325.4734
 -15425871.71946 -11934337.22743  23051254.4304                   23051252.4654
  -7632414.97346  -5937048.94944  22662928.5474                   22662926.3954
 -16966788.97347 -13154044.70345  21098876.1644                   21098872.8754
 -14857688.60947 -11568398.10545  21943559.6334                   21943559.6054
  -6926421.72346  -5382198.86744  22290261.6564                   22290257.4264
 -10632729.22346  -8281653.60542  24751218.7734                   24751214.5084
 11  8 20  2 58  0.0000000  0  9G26G29G30G15G12G05G25G02G21
 -19032140.35546 -14813952.16044  22260015.6564                   22260013.2384
 -21022220.24247 -16368842.43445  21369446.3364                   21369444.6024
 -11445038.98446  -8909000.73844  22278399.5554                   22278397.7814
 -15494157.84446 -11987547.13343  23038260.5554                   23038257.8094
  -7518278.06346  -5848111.09044  22684648.4534                   22684645.7624
 -16878083.54747 -13084923.58645  21115756.2734                   21115753.5164
 -14787298.16447 -11513548.41844  21956954.6254                   21956954.5274
  -6854974.53146  -5326525.72743  22303858.0784                   22303852.3244
 -10662821.52045  -8305101.92642  24745493.0164                   24745488.4884
 11  8 20  2 58 30.0000000  0  9G26G29G30G15G12G05G25G02G21
 -19082122.30546 -14852899.08244  22250503.8204                   22250501.5784
 -21064114.00847 -16401486.89545  21361474.9144                   21361472.0634
 -11360198.13746  -8842891.01244  22294544.0164                   22294542.3634
 -15562338.69546 -12040674.99243  23025286.4534                   23025283.7584
  -7403957.19146  -5759029.89844  22706403.4384                   22706400.9184
 -16789047.81647 -13015545.07445  21132698.6254                   21132696.4064
 -14716458.99647 -11458349.08244  21970434.4844                   21970434.1024
  -6783439.19546  -5270783.92243  22317470.4844                   22317465.3634
 -10692931.94546  -8328564.42642  24739762.7974                   24739759.4414
 11  8 20  2 59  0.0000000  0  9G26G29G30G15G12G05G25G02G21
 -19131734.84846 -14891558.15243  22241063.0554                   22241060.3204
 -21105753.52047 -16433933.24245  21353551.1484                   21353548.2464
 -11274974.49246  -8776482.99644  22310761.6564                   22310760.2304
 -15630409.63346 -12093717.22743  23012333.0394                   23012330.3014
  -7289453.83246  -5669806.52044  22728193.1804                   22728189.7304
 -16699683.00847 -12945910.16445  21149704.7274                   21149701.9144
 -14645172.14147 -11402800.89844  21983999.3524                   21983999.7464
  -6711813.96946  -5214972.06644  22331100.6174                   22331095.2154
 -10723059.52746  -8352040.37143  24734028.7664                   24734025.8054
 11  8 20  2 59 30.0000000  0  9G26G29G30G15G12G05G25G02G21
 -19180974.59846 -14929926.73444  22231693.2894                   22231690.1604
 -21147136.07447 -16466179.36745  21345676.0864                   21345673.4144
 -11189370.93846  -8709778.93744  22327051.2194                   22327049.7154
 -15698367.41846 -12146671.30143  22999400.1884                   22999398.0664
  -7174771.30946  -5580443.52743  22750016.6334                   22750013.3914
 -16609991.21147 -12876020.44145  21166772.4224                   21166769.8754
 -14573439.80947 -11346905.58244  21997649.7034                   21997649.5704
  -6640098.58646  -5159089.93444  22344747.2274                   22344742.1054
 -10753204.73845  -8375529.98442  24728293.4924                   24728289.0234
 11  8 20  3  0  0.0000000  0  9G26G29G30G15G12G05G25G02G21
 -19229838.24646 -14968002.25443  22222394.0864                   22222392.1174
 -21188259.94947 -16498223.91445  21337850.2424                   21337848.0394
 -11103390.97746  -8642781.57444  22343412.7894                   22343411.1414
 -15766209.78146 -12199535.41444  22986490.0784                   22986488.3014
  -7059913.07046  -5490943.60944  22771872.8364                   22771870.4924
 -16519975.49647 -12805878.32045  21183901.8674                   21183899.6174
 -14501264.96547 -11290665.44144  22011384.1804                   22011384.6884
  -6568293.47346  -5103137.90244  22358411.4694                   22358406.6994
 -10783368.62545  -8399034.22742  24722551.4224                   24722549.0474
 11  8 20  3  0 30.0000000  0  9G26G29G30G15G12G05G25G02G21
 -19278320.18446 -15005780.33643  22213169.1094                   22213165.6914
 -21229120.57047 -16530063.32845  21330075.1564                   21330072.3284
 -11017035.35546  -8575491.50444  22359845.8204                   22359843.9884
 -15833931.24246 -12252305.32444  22973603.2894                   22973601.5554
  -6944879.93446  -5401307.39544  22793762.8054                   22793759.9734
 -16429636.22747 -12735484.07845  21201092.5394                   21201089.8244
 -14428647.79747 -11234080.65644  22025202.3754                   22025203.1604
  -6496395.98846  -5047113.92244  22372093.0164                   22372088.5824
 -10813549.58245  -8422551.73842  24716808.0394                   24716805.2234
 11  8 20  3  1  0.0000000  0  9G26G29G30G15G12G05G25G02G21
 -19326416.52746 -15043257.96944  22204015.3524                   22204013.9884
 -21269715.26647 -16561695.52045  21322349.5234                   21322347.4654
 -10930306.63346  -8507910.68444  22376349.9304                   22376347.9734
 -15901528.30146 -12304978.30144  22960740.2894                   22960737.0084
  -6829675.02346  -5311537.31644  22815686.0314                   22815683.7934
 -16338975.64147 -12664839.45345  21218345.3754                   21218342.3594
 -14355590.43846 -11177152.84444  22039105.2894                   22039105.6454
  -6424405.20346  -4991017.18844  22385791.9454                   22385788.5274
 -10843747.57445  -8446082.51242  24711060.9224                   24711058.4964
 11  8 20  3  1 30.0000000  0  9G26G29G30G15G12G05G25G02G21
 -19374123.86746 -15080432.46944  22194937.8284                   22194935.1454
 -21310041.68047 -16593118.66445  21314675.8204                   21314673.6954
 -10843207.85946  -8440041.52044  22392924.7424                   22392921.8674
 -15968998.11346 -12357552.14143  22947900.6884                   22947898.5124
  -6714301.09046  -5221635.52044  22837640.0634                   22837637.5434
 -16247996.00847 -12593946.22345  21235657.8054                   21235654.7664
 -14282095.27747 -11119883.87544  22053091.0234                   22053091.3834
  -6352321.21946  -4934847.88344  22399509.9144                   22399504.8484
 -10873963.16845  -8469627.03942  24705312.3674                   24705308.7114
 11  8 20  3  2  0.0000000  0  9G26G29G30G15G12G05G25G02G21
 -19421444.03546 -15117305.28944  22185932.8284                   22185930.4924
 -21350103.02347 -16624335.25045  21307053.0004                   21307050.0824
 -10755747.44546  -8371890.53544  22409566.9614                   22409565.4024
 -16036342.89546 -12410028.52743  22935085.1094                   22935083.8404
  -6598766.55946  -5131608.63344  22859626.2734                   22859623.9024
 -16156705.53947 -12522810.79345  21253030.2584                   21253027.2464
 -14208170.32447 -11062280.03545  22067158.2274                   22067158.7304
  -6280148.88746  -4878609.69144  22413243.6804                   22413238.8244
 -10904202.69545  -8493190.21942  24699557.2734                   24699553.6054
 11  8 20  3  2 30.0000000  0  9G26G29G30G15G12G05G25G02G21
 -19468376.62946 -15153876.09044  22177002.0394                   22176999.2194
 -21389899.82047 -16655345.71145  21299479.5634                   21299477.0514
 -10667931.51646  -8303462.55144  22426277.7894                   22426276.4654
 -16103562.83246 -12462407.67243  22922294.0784                   22922291.4064
  -6483077.86746  -5041461.59444  22881641.2584                   22881638.3794
 -16065109.56347 -12451437.29345  21270460.3524                   21270457.2114
 -14133821.08247 -11004345.56245  22081306.5784                   22081307.2934
  -6207891.01646  -4822304.85944  22426994.2274                   22426989.4224
 -10934469.49645  -8516774.64842  24693796.6024                   24693794.0354
 11  8 20  3  3  0.0000000  0  9G26G29G30G15G12G05G25G02G21
 -19514912.07446 -15190137.43044  22168147.0004                   22168144.5084
 -21429423.71947 -16686143.52045  21291957.8524                   21291955.7774
 -10579756.93446  -8234755.08244  22443057.2734                   22443055.3404
 -16170648.52346 -12514682.18743  22909527.9384                   22909525.5204
  -6367231.97746  -4951192.07844  22903686.1884                   22903682.9924
 -15973204.54347 -12379823.00045  21287948.6954                   21287946.2894
 -14059043.95747 -10946077.66844  22095536.5704                   22095536.7624
  -6135541.27046  -4765928.43844  22440761.8444                   22440756.6914
 -10964758.15245  -8540376.08242  24688033.6644                   24688030.5594
 11  8 20  3  3 30.0000000  0 10G26G18G29G30G15G12G05G25G02G21
 -19561045.77046 -15226085.74644  22159367.3754                   22159365.2664
  -9658284.17215                  24621070.367
 -21468671.13347 -16716725.88345  21284489.5084                   21284487.2424
 -10491225.52746  -8165769.57844  22459903.3364                   22459902.5984
 -16237595.71946 -12566848.77343  22896787.7974                   22896785.3914
  -6251230.92646  -4860801.61744  22925758.8364                   22925758.1054
 -15880991.75047 -12307968.87145  21305496.0784                   21305493.6054
 -13983840.21147 -10887477.33645  22109847.3914                   22109847.4734
  -6063097.73446  -4709478.92244  22454547.4924                   22454542.7734
 -10995067.98445  -8563994.02742  24682265.7664                   24682262.4614
 11  8 20  3  4  0.0000000  0 10G26G18G29G30G15G12G05G25G02G21
 -19606770.69946 -15261715.52744  22150666.1644                   22150663.7114
  -9720800.902 5                  24609175.828
 -21507636.39847 -16747088.39145  21277074.7504                   21277072.4924
 -10402336.96146  -8096505.75043  22476818.4384                   22476817.4574
 -16304398.01646 -12618902.43743  22884075.9064                   22884074.2504
  -6135074.07846  -4770289.77744  22947863.6254                   22947861.4614
 -15788470.37547 -12235874.29745  21323102.3364                   21323099.0984
 -13908209.08247 -10828543.98045  22124239.6334                   22124239.4804
  -5990556.80146  -4652953.52044  22468351.5004                   22468346.2854
 -11025396.05545  -8587626.19942  24676494.2664                   24676491.3834
 11  8 20  3  4 30.0000000  0 10G26G18G29G30G15G12G05G25G02G21
 -19652087.31246 -15297027.13744  22142042.3914                   22142040.3554
  -9783148.56645  -7527631.16053  24597309.8284                   24597310.2194
 -21546320.80147 -16777232.05545  21269713.6644                   21269710.9774
 -10313098.09846  -8026968.96944  22493800.4304                   22493798.9304
 -16371056.16446 -12670843.79343  22871391.7424                   22871389.1954
  -6018768.18046  -4679661.82044  22969996.4384                   22969993.3984
 -15695646.80547 -12163544.23445  21340765.9534                   21340763.2114
 -13832156.90647 -10769282.53145  22138711.7504                   22138711.2974
  -5917922.05546  -4596355.01244  22482173.7424                   22482168.3164
 -11055746.41845  -8611275.66842  24670719.9384                   24670715.8324
 11  8 20  3  5  0.0000000  0 10G26G18G29G30G15G12G05G25G02G21
 -19696991.77046 -15332017.57844  22133497.3524                   22133495.1954
  -9845325.70746  -7576080.73042  24585477.2894                   24585477.5864
 -21584721.75047 -16807154.83645  21262406.1094                   21262403.5354
 -10223511.64846  -7957161.35944  22510848.5634                   22510846.7664
 -16437566.70746 -12722670.11743  22858735.3134                   22858733.2544
  -5902316.80146  -4588920.44144  22992155.2584                   22992153.0474
 -15602522.97347 -12090980.21545  21358486.7424                   21358484.3954
 -13755685.87947 -10709694.71145  22153263.9614                   22153263.7934
  -5845193.07446  -4539683.07844  22496013.5084                   22496008.1564
 -11086119.43845  -8634942.89842  24664940.9614                   24664936.9454
 11  8 20  3  5 30.0000000  0 10G26G18G29G30G15G12G05G25G02G21
 -19741485.10246 -15366687.68744  22125030.6024                   22125028.5044
  -9907335.47345  -7624399.81642  24573676.3524                   24573677.2664
 -21622841.21147 -16836858.28945  21255151.7344                   21255149.4304
 -10133585.07046  -7887088.69544  22527960.0474                   22527959.2544
 -16503931.19146 -12774382.64544  22846106.3914                   22846103.9264
  -5785726.96946  -4498071.19143  23014342.1254                   23014339.1214
 -15509106.06347 -12018187.83245  21376264.2114                   21376260.9614
 -13678803.04747 -10649786.00045  22167893.7974                   22167893.7584
  -5772373.55146  -4482940.58244  22509870.0864                   22509865.2584
 -11116520.31345  -8658631.71542  24659153.8524                   24659152.4694
 11  8 20  3  6  0.0000000  0 10G26G18G29G30G15G12G05G25G02G21
 -19785559.88346 -15401031.64144  22116643.6564                   22116641.4184
  -9969172.22745  -7672584.15242  24561910.2194                   24561908.8874
 -21660672.73847 -16866337.38345  21247953.3524                   21247950.7854
 -10043317.18446  -7816750.07043  22545138.2344                   22545136.7304
 -16570141.99646 -12825975.44143  22833506.5004                   22833503.9384
  -5668997.49646  -4407113.18443  23036554.2034                   23036552.8054
 -15415394.30947 -11945165.69145  21394096.9614                   21394093.9844
 -13601506.72347 -10589555.09445  22182603.1024                   22182602.8054
  -5699458.89846  -4426123.97343  22523745.3834                   22523740.1414
 -11146944.98045  -8682339.19142  24653363.7974                   24653361.5634
 11  8 20  3  6 30.0000000  0 10G26G18G29G30G15G12G05G25G02G21
 -19829207.32846 -15435042.60244  22108338.2344                   22108335.5314
 -10030830.07845  -7720629.13342  24550176.5474                   24550174.6844
 -21698209.19947 -16895586.55945  21240809.9384                   21240807.5864
  -9952706.15246  -7746144.07444  22562380.7274                   22562378.8634
 -16636191.11746 -12877442.21944  22820938.1174                   22820935.9024
  -5552126.53546  -4316044.91043  23058794.0944                   23058792.9654
 -15321384.83647 -11871911.56245  21411986.1334                   21411983.1054
 -13523794.53547 -10529000.14144  22197390.5784                   22197391.0904
  -5626443.93846  -4369229.17243  22537640.0234                   22537634.1844
 -11177388.98845  -8706061.67642  24647572.0004                   24647568.0984
 11  8 20  3  7  0.0000000  0 10G26G18G29G30G15G12G05G25G02G21
 -19872424.85246 -15468718.56644  22100113.6254                   22100111.7074
 -10092308.13345  -7768533.92242  24538478.1564                   24538474.8754
 -21735448.35247 -16924604.06245  21233723.6484                   21233721.8054
  -9861755.51246  -7675273.43443  22579688.6174                   22579685.7154
 -16702075.80146 -12928780.87544  22808400.3984                   22808398.0864
  -5435117.70746  -4224869.15643  23081060.2424                   23081058.5514
 -15227080.66047 -11798427.80545  21429931.1564                   21429928.5274
 -13445669.61347 -10468123.57444  22212257.3984                   22212257.8164
  -5553328.73846  -4312256.27043  22551552.5004                   22551548.1644
 -11207853.49645  -8729800.15642  24641773.3594                   24641770.0784
 11  8 20  3  7 30.0000000  0 10G26G18G29G30G15G12G05G25G02G21
 -19915211.96546 -15502059.12544  22091971.4534                   22091968.8754
 -10153608.28554  -7816300.16452  24526811.7274                   24526809.7344
 -21772391.04747 -16953390.55945  21226694.2974                   21226691.4884
  -9770471.60246  -7604143.13343  22597058.6954                   22597056.2234
 -16767796.50846 -12979991.77043  22795894.3524                   22795892.1134
  -5317977.31346  -4133590.93043  23103352.0314                   23103348.9844
 -15132488.08647 -11724719.30145  21447931.0084                   21447928.8484
 -13367137.84447 -10406929.99644  22227201.9144                   22227202.0204
  -5480116.18846  -4255207.53944  22565484.7114                   22565479.8324
 -11238342.16445  -8753557.50842  24635972.4454                   24635968.6644
 11  8 20  3  8  0.0000000  0 10G26G18G29G30G15G12G05G25G02G21
 -19957567.95346 -15535063.75444  22083911.8364                   22083909.3754
 -10214732.21144  -7863928.93442  24515182.3444                   24515178.3594
 -21809037.73447 -16981946.39845  21219720.0864                   21219717.5864
  -9678859.88746  -7532757.37544  22614492.0784                   22614490.1644
 -16833352.46146 -13031074.28144  22783419.8914                   22783416.3364
  -5200711.07446  -4042214.59843  23125665.8914                   23125663.8984
 -15037611.61747 -11650789.58645  21465985.7974                   21465983.4534
 -13288204.24246 -10345423.28944  22242222.1804                   22242222.4804
  -5406808.34046  -4198084.54743  22579435.0004                   22579430.3164
 -11268857.87545  -8777335.85542  24630165.3204                   24630162.0274
 11  8 20  3  8 30.0000000  0 10G26G18G29G30G15G12G05G25G02G21
 -19999486.83646 -15567727.79744  22075934.5704                   22075932.1374
 -10275675.88754  -7911417.39152  24503585.2344                   24503581.0164
 -21845383.34047 -17010267.63345  21212804.0164                   21212801.1724
  -9586920.91846  -7461116.61343  22631987.2734                   22631984.8594
 -16898738.14146 -13082024.12944  22770977.5004                   22770973.8594
  -5083319.22746  -3950740.42643  23148005.4844                   23148003.3954
 -14942451.22747 -11576638.64145  21484094.5084                   21484091.5354
 -13208868.86746 -10283603.52044  22257319.3914                   22257319.2194
  -5333402.26246  -4140885.00043  22593402.7814                   22593398.9224
 -11299398.63746  -8801133.83642  24624352.5234                   24624350.0594
 11  8 20  3  9  0.0000000  0 10G26G18G29G30G15G12G05G25G02G21
 -20040963.63746 -15600047.35244  22068041.2344                   22068039.4734
 -10336436.39555  -7958763.00052  24492021.6174                   24492017.4574
 -21881423.74647 -17038351.05545  21205945.6644                   21205942.7734
  -9494656.16846  -7389222.01243  22649545.4064                   22649542.3204
 -16963948.53546 -13132837.38744  22758567.7734                   22758565.2544
  -4965803.24646  -3859169.53543  23170368.5314                   23170365.4964
 -14847007.91447 -11502267.22745  21502256.8444                   21502254.5704
 -13129132.79746 -10221471.51644  22272492.8524                   22272492.4964
  -5259895.71146  -4083607.17243  22607391.0084                   22607385.8554
 -11329963.25046  -8824950.34042  24618536.9694                   24618533.9344
 11  8 20  3  9 30.0000000  0 10G26G18G29G30G15G12G05G25G02G21
 -20082000.17246 -15632023.85244  22060232.5234                   22060230.5554
 -10397017.72345  -8005969.03142  24480492.0864                   24480488.5944
 -21917161.98047 -17066199.01245  21199144.5314                   21199141.7544
  -9402073.98446  -7317080.03543  22667162.9924                   22667160.4224
 -17028985.73846 -13183515.68744  22746191.0944                   22746189.3834
  -4848171.40246  -3767508.35943  23192753.2664                   23192750.8444
 -14751289.28947 -11427681.28545  21520472.0234                   21520469.2704
 -13049003.96947 -10159033.46944  22287740.4304                   22287740.3914
  -5186293.56346  -4026254.85943  22621397.2114                   22621392.8594
 -11360557.25446  -8848789.75042  24612716.2344                   24612710.8524
 11  8 20  3 10  0.0000000  0 10G26G18G29G30G15G12G05G25G02G21
 -20122591.76646 -15663653.62544  22052507.6094                   22052506.6094
 -10457417.54745  -8053033.78542  24469001.0864                   24468994.4924
 -21952594.34447 -17093808.62945  21192402.3754                   21192398.9184
  -9309176.21946  -7244692.16844  22684841.4384                   22684838.5394
 -17093845.48046 -13234055.69944  22733849.3834                   22733846.4494
  -4730425.64846  -3675758.42644  23215160.0474                   23215156.7544
 -14655296.66047 -11352881.83645  21538738.3524                   21538735.4534
 -12968483.82847 -10096290.50444  22303063.0784                   22303063.5124
  -5112594.34046  -3968826.87944  22635422.3134                   22635417.5434
 -11391180.10946  -8872651.69142  24606887.5784                   24606883.3244
 11  8 20  3 10 30.0000000  0 10G26G18G29G30G15G12G05G25G02G21
 -20162729.98846 -15694930.12144  22044869.7504                   22044868.0354
 -10517629.50045  -8099951.95742  24457542.6884                   24457537.2384
 -21987713.29347 -17121174.02045  21185719.1484                   21185716.4924
  -9215960.89546  -7172056.82843  22702578.6414                   22702576.6914
 -17158519.65246 -13284451.11344  22721542.6884                   22721539.2384
  -4612563.81646  -3583918.02043  23237587.2114                   23237585.0514
 -14559027.18047 -11277866.66045  21557057.6564                   21557054.8594
 -12887569.80947 -10033240.62544  22318460.3834                   22318460.2464
  -5038792.54746  -3911319.00843  22649465.8444                   22649461.3244
 -11421826.87546  -8896532.13342  24601055.4064                   24601051.6564
 11  8 20  3 11  0.0000000  0 10G26G18G29G30G15G12G05G25G02G21
 -20202409.40246 -15725849.10544  22037319.3364                   22037317.2424
 -10577650.36345  -8146721.39542  24446120.5084                   24446116.4224
 -22022513.96947 -17148291.43045  21179096.7034                   21179093.7234
  -9122428.85546  -7099174.70343  22720377.7664                   22720375.6134
 -17223002.68746 -13334697.59444  22709271.8444                   22709268.6334
  -4494586.87546  -3491987.92643  23260037.9844                   23260035.0164
 -14462481.25047 -11202636.07045  21575430.1414                   21575427.0044
 -12806262.52046  -9969884.30144  22333932.2424                   22333932.5394
  -4964885.55146  -3853729.14843  22663530.2734                   22663524.9694
 -11452496.10246  -8920430.21542  24595220.8134                   24595215.8054
 11  8 20  3 11 30.0000000  0 10G26G18G29G30G15G12G05G25G02G21
 -20241632.94546 -15756412.85944  22029855.3524                   22029853.2814
 -10637485.00446  -8193345.60242  24434733.8204                   24434730.0554
 -22057000.68447 -17175164.16445  21172534.2424                   21172531.4964
  -9028589.47746  -7026053.07043  22738234.3834                   22738232.3834
 -17287297.70346 -13384797.55943  22697036.2274                   22697033.6414
  -4376503.87546  -3399975.19143  23282507.8914                   23282505.8164
 -14365667.35547 -11127196.68445  21593853.0864                   21593850.1414
 -12724570.77746  -9906228.38744  22349478.0784                   22349478.3094
  -4890879.18446  -3796061.87944  22677612.7894                   22677608.7154
 -11483194.30946  -8944350.78942  24589378.7344                   24589373.5554
 11  8 20  3 12  0.0000000  0 10G26G18G29G30G15G12G05G25G02G21
 -20280400.92247 -15786621.64844  22022478.2974                   22022475.6724
 -10697135.74245  -8239826.51242  24423382.2734                   24423379.1484
 -22091174.78147 -17201793.32845  21166030.9694                   21166028.5124
  -8934449.64146  -6952697.35943  22756148.6884                   22756147.1024
 -17351405.43446 -13434751.58244  22684837.6564                   22684834.2424
  -4258321.64546  -3307885.15644  23304997.8134                   23304995.9224
 -14268592.03947 -11051553.58245  21612326.0634                   21612322.7584
 -12642501.18847  -9842278.05944  22365095.7194                   22365095.5904
  -4816776.40646  -3738319.47344  22691714.4304                   22691709.6094
 -11513925.66045  -8968297.18742  24583530.0164                   24583525.7894
 11  8 20  3 12 30.0000000  0 10G26G18G29G30G15G12G05G25G02G21
 -20318703.71146 -15816467.96544  22015189.6564                   22015187.1484
 -10756595.64145  -8286158.76642  24412067.1254                   24412064.4184
 -22125027.25847 -17228171.85545  21159589.4534                   21159586.8244
  -8840006.05146  -6879104.95743  22774119.7974                   22774119.0164
 -17415316.32046 -13484552.25044  22672674.8914                   22672672.7154
  -4140036.99246  -3215715.28144  23327507.0634                   23327504.1564
 -14171251.21947 -10975703.59445  21630849.2894                   21630846.0824
 -12560049.95346  -9778030.34444  22380785.4064                   22380785.9694
  -4742570.55546  -3680496.74244  22705835.3754                   22705830.1724
 -11544684.19945  -8992264.81642  24577676.1804                   24577672.3554
 11  8 20  3 13  0.0000000  0 10G26G18G29G30G15G12G05G25G02G21
 -20356540.14846 -15845950.87144  22007989.2274                   22007986.8714
 -10815865.75445  -8332343.14142  24400786.2194                   24400786.0314
 -22158558.27747 -17254299.90645  21153208.8364                   21153205.7304
  -8745264.10546  -6805280.03543  22792148.8524                   22792147.9184
 -17479029.80146 -13534199.07844  22660550.9844                   22660548.3014
  -4021655.07846  -3123469.62943  23350033.6094                   23350031.6804
 -14073649.49647 -10899650.29745  21649422.2034                   21649419.2274
 -12477222.14147  -9713489.19944  22396546.7974                   22396547.3834
  -4668263.93846  -3622595.47744  22719975.4144                   22719970.7274
 -11575472.30545  -9016255.43442  24571817.5164                   24571814.1454
 11  8 20  3 13 30.0000000  0 10G26G18G29G30G15G12G05G25G02G21
 -20393909.73846 -15875069.99244  22000878.6884                   22000875.7544
 -10874947.24645  -8378380.54342  24389544.7034                   24389542.1414
 -22191767.83647 -17280177.47345  21146888.5164                   21146885.8554
  -8650229.62546  -6731227.16844  22810234.3594                   22810232.4844
 -17542544.84846 -13583691.29344  22648464.2814                   22648461.4304
  -3903181.61746  -3031152.63343  23372577.7504                   23372576.3324
 -13975792.08247 -10823397.77345  21668044.2814                   21668041.1914
 -12394023.14546  -9648658.81644  22412379.1484                   22412379.4694
  -4593858.05546  -3564616.85944  22734134.2814                   22734129.6914
 -11606293.57045  -9040271.93042  24565952.7194                   24565949.2814
 11  8 20  3 14  0.0000000  0 10G26G18G29G30G15G12G05G25G02G21
 -20430799.64147 -15903815.33244  21993858.1644                   21993855.5004
 -10933829.50445  -8424262.64142  24378340.6334                   24378336.9414
 -22224644.35247 -17305795.51645  21140632.5944                   21140629.7854
  -8554896.03546  -6656941.27043  22828375.9844                   22828373.6294
 -17605849.10946 -13633019.25444  22636417.9304                   22636415.6954
  -3784609.89846  -2938759.08643  23395142.7424                   23395139.4454
 -13877671.84447 -10746940.45345  21686715.7344                   21686712.6094
 -12310446.12146  -9583533.86744  22428283.5394                   22428283.3054
  -4519343.17246  -3506553.33244  22748313.9614                   22748309.5944
 -11637138.68445  -9064306.99242  24560082.4304                   24560080.0274
 11  8 20  3 14 30.0000000  0 10G26G18G29G30G15G12G05G25G02G21
 -22042637.37146 -17159792.75444  21687135.9454                   21687133.3244
 -12567942.85245  -9697597.68042  24067378.8284                   24067375.1334
 -23832615.45747 -18558759.99245  20834645.8834                   20834643.0864
 -10034693.03946  -7810029.81643  22546779.6884                   22546777.3444
 -19244370.83246 -14909789.38344  22324617.6334                   22324614.8244
  -5241368.66045  -4073895.73043  23117929.1254                   23117927.8284
 -15354717.56347 -11897885.17645  21405643.5234                   21405640.2384
 -13801920.60546 -10745721.78144  22144465.9224                   22144464.9844
  -6020145.93446  -4676010.02044  22462721.4534                   22462716.7624
 -13243438.56345 -10315969.07042  24254415.7894                   24254411.2424
 11  8 20  3 15  0.0000000  0 10G26G18G29G30G15G12G05G25G02G21
 -22078573.67246 -17187795.03944  21680296.8284                   21680294.9884
 -12626438.87145  -9743178.75842  24056247.2274                   24056243.7074
 -23864833.49647 -18583864.93745  20828515.2504                   20828512.1374
  -9938786.51646  -7735297.46543  22565029.5784                   22565027.8874
 -19307259.16446 -14958793.23844  22312649.7734                   22312647.3594
  -5122625.54345  -3981368.62943  23140525.9064                   23140524.1174
 -15256094.60247 -11821036.11345  21424410.1884                   21424407.5204
 -13717611.46547 -10680026.34444  22160509.1334                   22160508.5984
  -5945427.55546  -4617787.92243  22476939.9144                   22476934.6254
 -13274347.86345 -10340054.12542  24248530.8054                   24248528.4264
 11  8 20  3 15 30.0000000  0 10G26G18G29G30G15G12G05G25G02G21
 -22114028.13346 -17215421.85944  21673550.4384                   21673548.3164
 -12684739.89545  -9788607.98842  24045153.0944                   24045149.4884
 -23896718.81247 -18608710.61745  20822447.3914                   20822444.8244
  -9842597.85946  -7660345.24244  22583334.3284                   22583331.6174
 -19369934.83646 -15007631.39844  22300723.1804                   22300720.7344
  -5003800.62145  -3888777.72743  23163136.8834                   23163134.7504
 -15157223.54747 -11743993.74245  21443225.5314                   21443221.8284
 -13632940.15647 -10614048.71544  22176620.9534                   22176620.6724
  -5870606.42246  -4559485.75844  22491177.9144                   22491172.8284
 -13305289.71145 -10364164.53542  24242642.4844                   24242640.5744
 11  8 20  3 16  0.0000000  0 10G26G18G29G30G15G12G05G25G02G21
 -22148997.66846 -17242670.82444  21666896.0164                   21666893.0664
 -12742844.72745  -9833884.29342  24034095.0394                   24034091.6684
 -23928268.89847 -18633295.07045  20816443.8914                   20816440.8404
  -9746130.44946  -7585175.81344  22601690.5394                   22601688.7424
 -19432394.85246 -15056301.49244  22288837.8444                   22288835.2544
  -4884896.96145  -3796125.54343  23185764.2814                   23185761.2814
 -15058106.96147 -11666760.05145  21462085.6094                   21462083.3754
 -13547909.52347 -10547791.07844  22192802.0084                   22192801.5234
  -5795681.95346  -4501103.03544  22505435.6254                   22505430.2544
 -13336264.56645 -10388300.68842  24236749.3204                   24236746.7894
 11  8 20  3 16 30.0000000  0 10G26G18G29G30G15G12G05G25G02G21
 -22183479.12146 -17269539.44544  21660334.1414                   21660331.5554
 -12800752.55945  -9879007.13742  24023076.0864                   24023071.5944
 -23959481.52047 -18657616.58645  20810503.6484                   20810501.2504
  -9649387.31646  -7509791.54343  22620101.2894                   22620099.2234
 -19494635.60946 -15104800.73444  22276993.4224                   22276991.0354
  -4765918.19145  -3703414.74643  23208404.8204                   23208403.0864
 -14958747.26247 -11589336.91845  21480993.6644                   21480990.8754
 -13462522.46547 -10481255.73444  22209049.7584                   22209050.2814
  -5720653.90246  -4442639.61343  22519712.0944                   22519706.8444
 -13367272.76645 -10412462.84443  24230849.0394                   24230845.6054
 11  8 20  3 17  0.0000000  0 10G26G18G29G30G15G12G05G25G02G21
 -22217466.52746 -17296023.11344  21653866.8674                   21653863.3674
 -12858459.55545  -9923973.52742  24012093.9774                   24012090.6954
 -23990351.77747 -18681671.30145  20804629.6954                   20804627.3484
  -9552369.32046  -7434193.10244  22638562.6954                   22638560.7304
 -19556651.93446 -15153125.10244  22265192.3984                   22265189.9184
  -4646864.67245  -3610645.73043  23231059.8134                   23231058.4184
 -14859144.50447 -11511724.38745  21499947.9614                   21499944.6054
 -13376779.32846 -10414442.88344  22225366.7974                   22225367.3244
  -5645519.24246  -4384093.12543  22534009.6724                   22534004.0234
 -13398312.39545 -10436649.45742  24224940.4694                   24224938.7664
 11  8 20  3 17 30.0000000  0 10G26G18G29G30G15G12G05G25G02G21
 -22250960.78546 -17322122.50844  21647492.8914                   21647490.1454
 -12915968.91046  -9968785.92642  24001152.0314                   24001147.0004
 -24020881.28147 -18705460.51245  20798819.9614                   20798817.1024
  -9455083.39546  -7358385.88744  22657075.0164                   22657073.8984
 -19618444.64546 -15201275.23044  22253433.8284                   22253431.0314
  -4527742.91845  -3517823.55943  23253727.2194                   23253726.5594
 -14759305.00447 -11433927.37545  21518946.2734                   21518943.3404
 -13290686.80546 -10347357.81344  22241750.6254                   22241749.6764
  -5570281.47746  -4325466.29343  22548326.8054                   22548322.2384
 -13429387.47345 -10460863.69542  24219029.0784                   24219025.3244
 11  8 20  3 18  0.0000000  0 10G26G18G29G30G15G12G05G25G02G21
 -22283951.79346 -17347829.76244  21641214.2734                   21641212.1294
 -12973271.88745 -10013437.49242  23990246.7344                   23990242.4844
 -24051060.58647 -18728976.84845  20793076.9224                   20793074.6844
  -9357525.53946  -7282366.78543  22675639.3284                   22675638.6094
 -19680003.00846 -15249242.75844  22241718.6174                   22241716.1884
  -4408548.88745  -3424945.08243  23276410.3054                   23276407.5394
 -14659223.64547 -11355941.90645  21537991.3204                   21537988.0554
 -13204240.52046 -10279997.06644  22258200.3054                   22258200.4414
  -5494932.93846  -4266753.18043  22562665.4774                   22562660.2774
 -13460491.25045 -10485100.35243  24213109.4224                   24213106.3754
 11  8 20  3 18 30.0000000  0 10G26G18G29G30G15G12G05G25G02G21
 -22316439.37146 -17373144.74244  21635032.1414                   21635030.1134
 -13030370.67645 -10057929.93042  23979381.0234                   23979377.3404
 -24080890.07047 -18752220.59045  20787400.1094                   20787397.7974
  -9259701.91846  -7206140.60243  22694255.1884                   22694253.4414
 -19741327.10946 -15297027.72344  22230049.8134                   22230047.0164
  -4289288.52746  -3332014.89143  23299104.8134                   23299101.2194
 -14558906.37947 -11277772.60945  21557081.0704                   21557078.1214
 -13117446.42246 -10212365.29744  22274716.5944                   22274716.3794
  -5419476.29746  -4207955.79343  22577023.4224                   22577019.5044
 -13491627.15645 -10509362.03942  24207184.7814                   24207180.6174
 11  8 20  3 19  0.0000000  0 10G26G18G29G30G15G12G05G25G02G21
 -22348421.54346 -17398065.86344  21628946.6024                   21628944.6174
 -13087265.61345 -10102263.49642  23968554.6804                   23968550.9024
 -24110368.96947 -18775191.13745  20781791.2814                   20781788.0594
  -9161617.25846  -7129710.98843  22712919.7584                   22712918.1914
 -19802415.25446 -15344628.85244  22218425.2034                   22218421.6954
  -4169966.34846  -3239036.51643  23321811.1174                   23321807.6524
 -14458356.97347 -11199422.42645  21576215.3754                   21576212.4804
 -13030308.70346 -10144465.78144  22291298.0004                   22291298.4024
  -5343912.43046  -4149074.86343  22591403.5944                   22591398.4144
 -13522796.92245 -10533650.08642  24201252.0314                   24201248.8634
 11  8 20  3 19 30.0000000  0 10G26G18G29G30G15G12G05G25G02G21
 -22379899.00046 -17422593.71544  21622956.7504                   21622954.4534
 -13143959.02746 -10146440.09442  23957765.2734                   23957762.2234
 -24139498.35247 -18797889.34845  20776248.0634                   20776245.0664
  -9063277.95746  -7053082.95343  22731633.8134                   22731631.3244
 -19863267.94946 -15392046.48044  22206844.5164                   22206842.3834
  -4050588.38746  -3146014.69143  23344527.5704                   23344525.1804
 -14357580.91047 -11120895.62545  21595392.3594                   21595389.4414
 -12942833.66046 -10076303.40244  22307944.4454                   22307943.9064
  -5268244.18846  -4090112.60943  22605802.3134                   22605797.5004
 -13554004.38745 -10557967.45742  24195313.7584                   24195311.4414
 11  8 20  3 20  0.0000000  0 10G26G18G29G30G15G12G05G25G02G21
 -22410866.94546 -17446724.56244  21617063.7584                   21617061.2504
 -13200448.35946 -10190457.71542  23947015.7584                   23947012.5744
 -24168274.16847 -18820312.05145  20770772.0004                   20770769.3874
  -8964685.62146  -6976257.73843  22750394.9924                   22750391.7304
 -19923880.05546 -15439276.66044  22195310.4534                   22195307.3244
  -3931156.58246  -3052950.96143  23367253.7894                   23367252.9104
 -14256578.93047 -11042192.78545  21614612.0084                   21614609.3984
 -12855022.48446 -10007879.09444  22324653.5164                   22324653.8914
  -5192469.48046  -4031067.37943  22620222.0004                   22620216.4574
 -13585248.34845 -10582313.41842  24189368.7274                   24189365.6724
